GFSCGP_sfc_dewp_000.txt.gz
Dewpoint
32 25 22 22 22 21 19 19 18 17 19 24 23 22 22 21 21 20 21 20 20 20 20 24 26 28 26 22 19 21 21 22 23 24 23 25 25 25 23 24 22 22 21 22
28 25 24 22 20 21 21 18 16 16 20 22 22 23 23 22 21 21 21 21 21 20 20 25 26 27 25 21 19 19 20 21 22 23 22 21 22 25 23 24 23 23 23 22
21 21 24 23 22 21 21 20 17 17 19 22 20 21 23 23 22 22 22 21 20 20 21 23 24 26 24 20 18 18 20 20 21 23 23 20 21 21 20 22 23 24 24 25
22 22 21 21 19 19 16 19 22 21 21 20 20 14 16 17 16 19 19 18 18 20 23 23 23 25 23 20 19 18 19 20 20 21 22 18 17 16 18 20 25 25 25 22
19 23 23 23 21 22 21 25 24 24 24 25 22 19 15 16 15 15 15 18 19 21 23 23 22 23 23 22 20 19 19 19 19 20 21 20 19 18 17 21 22 21 23 23
21 24 25 24 24 25 23 22 21 20 20 18 16 15 12 15 16 15 16 16 16 26 25 23 22 23 23 23 22 21 19 19 19 20 21 19 18 19 18 19 20 22 22 21
21 20 24 25 23 24 23 21 21 19 20 16 14 14 12 16 13 13 13 12 15 27 25 23 22 22 22 22 23 23 20 18 20 21 20 20 19 18 16 17 19 19 18 17
15 12 21 23 21 22 23 22 23 14 10 10 22 16 15 17 16 15 13 13 24 25 26 25 23 22 21 22 22 22 22 18 20 21 21 20 20 20 19 19 18 17 16 15
14 12 22 23 22 22 22 21 23 23 18 20 13 13 16 20 18 16 14 16 21 25 26 27 25 23 22 22 22 22 21 20 19 20 20 19 19 19 18 17 14 14 13 10
16 14 18 21 20 21 20 22 20 23 12 10 9 11 12 15 14 17 19 18 21 23 25 26 26 25 23 22 21 21 21 21 20 20 19 18 18 18 16 14 12 11 11 9
20 20 16 19 18 17 18 19 19 17 24 14 10 10 13 15 18 19 19 20 22 24 23 24 25 25 23 22 21 21 22 22 21 19 19 18 18 16 13 11 11 10 11 11
26 26 24 15 16 16 17 17 16 14 12 17 14 13 14 16 17 15 16 17 18 23 25 24 24 24 23 21 20 20 22 22 22 19 19 17 15 12 9 7 8 10 10 11
30 26 26 20 20 19 16 17 16 16 16 15 15 12 12 12 11 13 14 18 20 21 25 26 24 22 21 21 20 19 20 21 21 19 18 14 12 9 6 5 7 9 10 10
36 32 28 22 21 21 18 16 16 16 16 15 14 13 13 14 13 14 15 16 19 22 21 23 25 23 21 20 19 17 19 21 20 18 15 12 9 6 4 5 7 7 8 8
37 31 30 29 28 28 27 23 21 19 18 16 14 13 14 14 14 15 15 14 14 16 17 20 22 25 23 21 18 18 18 20 19 16 13 9 7 5 6 10 11 11 10 7
37 32 32 30 30 28 26 24 24 24 23 20 19 18 17 15 15 16 15 16 17 19 20 21 22 23 25 23 18 17 17 19 18 14 11 6 8 10 12 12 12 11 11 10
34 32 30 27 30 30 27 30 29 28 27 24 21 22 21 19 18 19 19 20 21 23 24 24 24 24 25 25 20 17 17 21 19 16 14 11 11 11 11 11 11 10 10 9
35 33 32 28 29 21 28 30 30 29 28 28 27 27 27 26 24 24 27 27 26 26 27 27 27 26 27 26 21 19 21 20 18 16 14 12 10 11 11 10 10 10 10 10
36 34 30 27 27 26 27 28 27 27 27 29 28 28 28 28 28 28 28 28 28 29 29 29 29 29 28 24 20 20 19 17 14 13 12 11 11 11 10 10 10 11 11 10
36 35 32 30 26 23 26 28 28 26 23 28 27 28 28 29 27 28 29 29 28 29 29 28 29 28 25 21 18 18 16 14 12 12 10 10 11 10 10 10 10 11 11 10
30 31 29 30 28 29 33 31 29 24 24 26 27 27 27 26 27 27 27 26 27 27 27 28 26 25 22 18 18 16 14 12 13 12 10 10 10 9 10 9 9 9 9 9
28 27 27 26 24 22 35 31 28 33 37 37 36 37 37 38 38 36 32 29 26 26 23 25 23 21 19 19 18 15 13 13 12 11 9 9 9 9 9 8 7 5 7 6
22 24 19 23 25 32 34 30 25 36 34 34 35 35 35 35 36 36 36 35 32 27 25 21 21 18 15 18 18 16 14 12 11 9 8 6 6 5 5 5 3 4 5 7
16 17 19 20 28 21 12 16 26 26 25 25 26 27 29 30 32 33 32 32 33 27 27 19 18 16 14 15 17 16 14 12 8 7 5 3 3 2 3 5 5 6 5 7
13 10 10 9 8 11 15 18 17 18 20 23 26 27 26 27 28 32 34 35 35 32 23 19 19 19 19 16 16 16 11 9 7 5 3 2 2 2 3 5 6 7 9 9
11 9 7 7 10 10 11 17 20 18 17 19 24 24 24 26 26 27 28 28 28 29 28 22 20 20 19 16 15 12 10 8 6 5 2 1 1 2 3 5 7 12 12 14

GFSCGP_sfc_dewp_003.txt.gz
Dewpoint
30 24 22 18 25 19 17 17 17 18 20 23 22 22 22 23 24 23 22 22 21 22 23 23 26 26 26 24 22 20 22 24 24 26 26 26 23 24 23 23 24 23 23 24
28 24 23 23 25 23 21 19 17 15 17 21 19 19 21 24 23 23 22 22 22 22 22 21 26 26 25 21 21 21 21 24 23 25 24 24 23 23 22 24 23 23 24 24
20 23 28 26 24 21 19 18 16 16 18 21 19 19 20 22 23 23 23 23 23 22 22 23 26 26 24 20 20 20 21 23 23 23 23 23 24 23 22 23 21 24 25 26
25 24 22 24 21 20 15 21 20 21 22 15 20 12 15 19 21 21 22 21 20 21 21 23 25 26 23 20 19 20 21 22 23 23 21 21 19 19 19 20 22 24 25 24
19 19 23 22 19 21 18 23 21 22 22 22 20 17 14 15 15 16 16 17 18 19 21 24 24 26 23 20 19 20 21 22 22 23 21 21 19 20 19 22 22 23 25 24
20 24 23 22 24 23 24 21 21 20 19 16 17 14 9 14 15 16 16 17 16 19 21 24 23 25 23 20 19 19 21 22 22 22 22 19 18 19 20 21 22 22 23 23
19 19 23 24 22 23 23 20 18 15 17 15 13 15 11 15 16 16 16 15 16 21 23 22 22 24 23 21 20 20 21 21 22 21 21 19 18 17 17 20 21 21 21 21
15 8 21 23 20 19 22 21 20 9 10 9 21 16 14 19 17 17 15 14 15 24 23 23 22 23 22 22 21 20 22 20 21 21 21 21 19 18 17 19 20 19 19 18
16 14 22 23 23 22 21 20 20 21 13 17 14 15 15 20 19 18 17 16 20 25 24 23 22 22 22 22 22 21 21 21 20 21 21 20 20 18 17 17 19 19 18 15
17 15 18 20 21 21 21 21 20 22 12 11 12 11 11 14 14 16 18 16 21 24 25 26 23 22 22 21 22 22 21 21 20 21 22 21 20 19 18 19 18 17 15 14
23 21 17 18 19 19 19 20 19 19 23 13 11 11 14 15 15 14 18 18 18 22 24 26 26 24 23 22 22 22 22 22 21 21 22 21 21 20 19 18 16 15 13 13
30 27 25 17 15 19 18 19 18 16 15 19 18 15 16 15 17 18 17 17 20 23 23 23 26 26 24 23 22 21 22 22 22 21 22 21 20 19 17 15 13 13 11 12
34 32 27 25 20 17 15 16 17 19 22 21 20 17 19 18 15 11 11 13 15 16 19 24 23 24 25 23 22 21 21 22 22 22 21 19 19 17 15 12 11 11 12 12
39 34 31 25 23 22 23 21 20 19 18 19 19 18 19 18 17 16 16 16 15 17 17 23 24 24 23 23 22 21 21 22 23 21 20 19 17 16 13 10 10 10 10 10
35 32 33 32 31 29 28 27 26 24 23 21 22 20 19 19 18 18 17 16 15 16 19 20 21 24 24 23 21 20 19 21 22 20 19 18 17 14 10 11 13 12 12 10
33 31 33 32 34 33 32 30 30 30 28 26 24 21 23 24 25 23 23 22 21 18 16 18 21 22 23 24 22 20 18 20 21 20 19 17 15 13 13 14 13 11 12 12
35 33 32 29 32 32 29 31 31 29 28 27 24 24 23 22 23 25 25 24 23 22 20 21 23 24 24 24 23 20 19 21 22 22 21 17 15 13 13 12 11 10 10 10
34 32 32 29 31 22 29 31 32 31 29 28 28 29 27 27 28 28 28 28 28 28 27 27 27 26 27 26 25 23 21 22 23 22 21 16 14 13 12 11 10 10 10 10
38 35 30 28 27 27 27 27 27 27 27 28 29 30 30 30 30 29 30 32 31 31 30 31 31 30 29 28 27 23 22 23 22 20 18 15 14 14 11 11 10 10 10 11
35 35 29 26 24 19 21 29 30 30 26 31 32 32 33 33 31 32 38 36 36 34 31 29 29 29 29 28 23 22 21 21 20 19 17 14 14 13 11 11 10 11 11 11
22 28 27 28 26 26 32 33 35 28 22 30 31 31 30 30 33 36 37 33 31 33 31 29 26 26 26 22 22 21 20 19 19 17 15 13 12 13 12 11 10 10 10 11
18 19 15 19 20 18 30 31 20 23 30 30 27 27 27 28 29 31 32 30 29 32 33 32 27 25 22 21 22 20 19 18 16 14 12 12 13 12 10 9 9 9 9 9
13 20 16 19 18 20 24 15 15 32 28 25 25 27 28 29 30 30 30 31 32 33 34 34 30 24 20 20 22 21 19 15 14 13 13 12 10 9 8 7 6 6 7 6
11 9 10 13 9 8 7 11 19 21 22 25 25 24 26 27 26 25 25 27 28 28 29 33 33 31 30 22 22 23 18 16 13 10 10 9 7 7 7 6 5 5 5 6
13 13 10 8 7 8 10 14 17 19 16 14 16 20 17 15 17 18 20 22 25 28 29 30 30 28 29 28 23 23 17 16 14 13 10 9 7 6 5 5 5 5 7 8
13 11 7 4 6 11 11 14 18 11 10 12 13 11 13 13 13 14 16 16 17 19 23 26 29 28 28 28 25 23 19 16 14 11 8 7 5 5 4 3 5 11 12 14

GFSCGP_sfc_dewp_006.txt.gz
Dewpoint
29 24 21 19 24 19 15 16 17 16 16 23 23 22 23 23 22 23 23 23 22 22 22 24 26 27 26 27 26 24 24 26 27 28 28 28 27 27 27 27 26 25 25 25
27 24 23 22 22 24 22 19 17 17 20 21 19 17 18 21 21 20 21 22 23 23 22 23 24 27 27 26 26 24 24 25 26 26 27 26 24 24 24 25 25 24 25 25
19 20 28 23 22 22 21 20 19 18 19 20 19 17 19 20 21 21 24 24 24 23 22 23 22 26 26 25 24 23 24 24 24 26 26 25 24 22 22 23 23 24 25 26
24 25 24 26 24 22 18 21 21 20 20 14 18 12 13 16 18 20 22 22 23 23 23 23 23 26 25 24 23 22 23 24 24 25 25 23 22 20 20 20 23 24 25 24
16 20 23 22 21 24 20 20 19 21 21 21 21 19 20 17 16 16 16 18 18 18 20 22 24 26 25 23 22 22 23 23 23 24 24 23 22 22 21 22 22 22 24 24
21 22 22 22 23 22 23 21 21 22 19 16 16 16 11 14 14 14 15 15 16 16 19 21 24 27 24 21 22 22 22 23 24 23 23 22 21 21 21 22 22 22 23 23
16 19 21 23 20 22 22 20 17 14 16 15 13 16 11 12 13 15 13 14 15 17 19 22 24 26 22 20 21 22 22 22 24 24 22 21 20 20 19 21 21 21 22 22
13 12 19 22 19 18 20 18 19 12 11 11 19 14 13 17 16 16 17 17 17 16 21 23 24 25 23 21 21 20 23 22 23 23 22 22 20 21 20 20 21 21 20 20
15 15 21 23 22 20 19 19 19 22 11 15 13 14 16 19 16 16 17 18 18 17 22 23 23 24 24 22 21 20 21 22 22 22 23 22 21 20 19 20 21 21 20 20
19 17 19 19 21 21 21 22 20 21 16 12 13 13 13 15 15 16 16 16 18 20 24 24 22 23 24 24 22 22 21 21 22 23 22 22 22 20 19 20 20 20 20 19
26 25 24 19 19 18 20 20 20 20 25 17 15 15 15 14 16 16 17 16 19 20 24 25 24 23 23 23 23 23 22 22 22 22 22 22 22 21 20 19 19 20 18 17
31 31 31 30 24 21 19 18 19 17 19 20 20 18 24 22 22 22 19 18 15 21 22 23 26 26 24 23 22 22 23 23 23 22 22 22 22 21 20 19 18 18 16 16
37 34 28 29 31 27 16 18 19 19 20 20 22 23 22 20 20 24 22 20 15 15 16 20 24 26 26 24 23 22 23 23 23 23 22 22 21 20 20 19 17 16 15 14
39 34 30 24 22 26 22 22 20 17 16 17 17 17 17 18 20 21 23 22 17 16 18 18 19 23 25 26 24 23 22 23 23 23 22 21 21 20 20 19 16 15 14 13
37 33 35 34 33 31 29 29 27 23 22 21 19 19 20 20 22 22 24 24 22 20 19 20 19 21 24 26 25 24 23 23 23 22 22 21 21 20 20 18 17 16 15 11
36 32 35 32 34 32 31 30 30 28 27 26 27 26 27 27 26 25 26 26 26 25 27 28 25 21 22 24 24 24 23 23 23 23 22 21 21 21 20 19 17 16 14 13
31 31 30 27 31 30 26 31 32 30 30 30 27 28 31 32 31 30 30 33 34 33 32 31 30 31 26 22 22 24 24 24 24 25 25 23 22 20 18 17 16 14 13 13
29 29 29 25 26 19 26 35 34 33 33 32 31 31 30 28 29 35 35 35 33 31 29 30 31 31 31 30 28 26 26 24 25 26 25 22 20 19 17 16 15 14 13 13
21 27 24 22 20 22 25 27 29 29 29 27 27 25 25 26 22 31 25 25 27 28 29 29 32 32 31 28 28 28 23 23 24 24 24 22 20 19 16 16 15 14 14 13
12 20 19 17 15 15 21 25 24 29 25 24 27 26 26 25 17 18 23 27 28 30 31 33 33 33 32 29 23 24 22 22 22 23 22 21 20 19 17 16 15 15 15 14
5 7 9 11 10 17 19 24 18 19 15 25 26 23 21 18 21 23 24 26 29 28 27 29 31 31 32 28 23 23 21 21 21 20 18 17 17 17 16 16 15 15 14 13
4 10 9 11 4 7 15 13 9 11 21 28 24 20 23 21 20 21 24 25 23 23 24 27 29 29 31 32 25 24 22 20 17 17 15 15 15 16 16 13 13 13 13 12
4 10 7 13 11 13 15 15 12 28 23 22 22 22 18 20 20 19 16 17 18 19 21 25 28 29 30 32 29 26 27 17 15 17 17 16 13 14 14 13 12 11 11 10
11 8 9 10 8 10 9 10 14 19 21 19 18 15 18 14 13 13 14 13 13 18 19 20 21 23 25 28 31 30 29 21 18 18 16 15 13 13 13 12 11 11 10 9
10 12 10 10 11 11 9 11 16 17 15 14 14 14 13 12 12 11 11 12 14 13 13 15 15 15 16 21 27 31 31 22 19 18 16 14 14 12 12 12 11 11 10 11
12 9 7 5 6 6 9 13 15 13 11 12 13 12 12 11 10 10 10 10 10 9 10 10 10 11 13 15 18 20 27 22 21 17 15 13 12 11 11 11 11 19 17 18

GFSCGP_sfc_dewp_009.txt.gz
Dewpoint
28 24 21 19 23 18 16 16 16 17 18 22 22 21 21 21 22 22 23 23 22 22 22 22 23 27 27 26 26 26 26 27 29 29 30 30 29 31 31 30 27 26 26 27
27 23 23 22 21 23 22 20 19 19 19 18 18 17 18 19 20 20 19 19 19 19 20 21 24 26 27 26 27 27 26 26 28 29 29 28 28 28 29 29 27 25 26 26
20 20 27 24 22 21 21 20 18 18 20 20 19 17 18 19 20 19 20 20 20 20 21 22 23 24 26 26 27 27 26 26 27 28 27 25 24 23 24 26 26 25 26 26
24 25 23 25 23 21 17 21 21 21 21 16 17 11 11 13 14 16 19 19 20 22 22 23 23 23 25 26 27 26 26 26 27 28 27 25 24 22 24 25 26 25 26 25
14 22 23 23 22 23 20 21 19 19 19 20 20 17 19 15 13 16 17 19 19 20 20 19 21 24 26 26 25 25 25 26 26 27 26 25 24 24 22 23 24 24 25 25
22 22 22 21 23 24 22 20 21 22 19 17 17 16 12 13 13 14 15 15 17 17 16 18 21 23 26 24 24 24 25 25 25 26 26 25 24 23 22 22 22 23 23 23
15 19 21 22 19 22 21 19 16 14 15 14 14 16 11 13 12 13 13 15 16 17 17 18 20 25 24 23 23 24 24 24 25 26 25 24 24 23 21 21 22 22 22 22
13 19 18 21 19 17 21 19 19 10 13 14 18 14 14 15 16 17 18 18 19 19 19 20 21 24 24 22 23 23 25 24 24 24 24 24 24 24 22 21 22 22 21 20
16 17 21 22 21 18 18 18 18 20 15 16 13 14 16 19 16 15 17 18 19 19 20 23 24 25 25 22 22 23 24 24 24 24 24 23 23 23 22 22 22 22 21 20
19 17 19 19 24 21 19 21 19 20 15 13 14 13 14 16 16 17 19 20 21 20 20 24 24 23 25 23 22 22 23 24 24 24 24 23 23 22 22 22 22 22 21 21
28 30 26 26 21 24 19 20 20 19 23 17 16 19 20 19 16 16 20 22 22 21 19 21 25 24 24 24 23 23 22 23 24 24 24 24 24 22 21 21 21 22 21 21
36 34 31 29 26 27 22 23 22 19 18 19 18 19 24 23 24 23 26 27 24 19 19 20 22 25 25 24 24 24 23 23 23 24 24 24 23 23 21 20 20 21 21 20
35 34 29 29 28 31 32 31 29 28 24 21 19 18 22 22 22 23 25 23 24 23 20 19 19 21 25 26 25 24 24 24 24 24 23 23 22 22 21 20 19 20 20 19
40 35 33 28 30 28 28 26 26 26 25 22 20 18 21 22 21 21 21 24 27 28 30 30 30 30 30 31 28 26 24 24 25 24 23 22 22 22 22 21 20 19 19 18
37 32 33 32 33 35 34 33 33 30 25 21 22 24 26 25 23 29 33 32 31 30 29 27 29 29 29 31 33 31 28 25 24 24 23 22 22 22 22 22 22 20 19 17
33 27 28 28 27 26 29 32 32 31 29 27 27 26 29 28 27 27 25 21 21 22 23 25 26 27 29 29 30 31 29 28 25 24 24 23 24 23 24 24 22 20 19 18
27 26 25 20 22 21 19 21 20 20 28 28 25 24 27 24 23 27 25 19 19 21 23 26 27 29 31 32 30 29 28 28 29 27 27 26 24 24 23 23 21 20 19 17
25 22 21 17 14 6 12 20 30 27 23 25 25 25 24 22 19 20 26 16 21 24 29 31 30 28 31 31 31 30 28 28 26 28 28 26 25 24 23 21 20 19 18 17
27 24 17 6 3 10 11 20 20 20 19 25 23 23 21 19 13 11 12 17 20 24 29 25 27 28 30 29 31 31 29 27 25 24 25 25 24 24 21 21 20 19 19 18
12 20 17 0 6 5 18 15 23 17 17 22 23 23 22 20 10 9 15 20 23 28 24 24 25 26 28 29 31 30 29 29 26 22 23 22 21 21 22 21 20 20 20 18
0 -1 -1 -5 -2 5 15 13 13 1 5 12 24 23 21 19 18 19 21 22 23 22 23 22 23 22 25 27 28 29 30 29 27 20 19 17 18 18 18 21 20 19 18 17
-0 -6 -6 -6 -9 -2 10 5 3 8 16 19 24 19 20 21 19 19 20 17 13 13 13 14 19 21 18 19 24 25 26 29 29 22 17 16 14 17 17 16 14 17 17 16
-0 3 -2 5 5 14 7 8 14 18 21 22 20 20 21 16 14 15 11 12 12 11 11 14 16 13 13 18 19 18 20 24 29 29 25 20 19 17 19 17 16 15 15 13
10 9 11 8 6 8 11 11 12 14 18 20 21 19 16 14 15 13 13 12 10 11 12 14 12 11 11 12 14 15 19 22 20 24 26 21 18 17 17 17 15 15 14 13
9 12 9 9 8 9 10 11 13 15 18 17 16 14 13 13 11 11 10 11 11 11 12 11 10 9 8 8 10 11 12 13 14 18 22 22 18 17 16 16 16 16 17 17
11 8 7 6 7 7 7 10 14 15 14 14 12 12 13 12 11 10 8 9 9 8 8 7 6 5 5 5 6 6 8 9 10 11 15 21 18 16 15 15 14 21 22 22

GFSCGP_sfc_dewp_012.txt.gz
Dewpoint
27 23 21 20 22 18 15 14 14 16 17 18 16 16 17 18 21 19 18 20 21 22 23 23 23 24 27 27 27 26 27 29 33 34 33 32 32 33 33 32 31 30 30 29
26 23 23 23 21 21 21 19 18 19 20 19 19 18 18 19 19 18 19 19 19 19 19 20 21 24 27 26 26 27 27 28 31 32 32 31 32 31 31 32 29 29 29 28
21 21 27 24 22 20 20 19 17 17 20 20 19 17 19 19 20 20 20 20 20 20 20 20 21 23 25 27 26 27 27 27 29 31 30 27 26 26 28 29 28 27 28 28
24 25 23 25 22 21 17 20 20 20 19 16 18 12 13 15 14 16 17 17 18 19 20 21 22 23 24 25 27 28 28 27 28 30 29 27 27 26 27 28 30 28 27 26
18 22 23 22 22 23 20 21 20 19 20 20 19 15 18 15 14 14 15 17 18 18 19 18 18 19 24 25 27 28 27 27 28 29 29 28 27 27 26 27 28 28 26 26
23 23 22 21 23 23 22 22 21 22 19 17 17 14 12 13 12 14 13 14 15 16 18 19 20 21 23 26 26 26 26 27 28 28 28 27 26 25 25 25 27 27 26 25
15 19 22 22 21 23 21 18 15 14 16 15 15 16 12 18 14 14 15 14 16 19 20 20 22 24 24 24 24 25 26 26 27 28 28 27 26 25 24 24 25 25 25 24
16 24 18 20 19 18 21 19 19 13 14 17 18 16 19 16 16 16 15 17 18 20 21 22 24 24 25 24 24 23 26 25 26 27 27 27 26 26 24 24 24 24 24 24
17 21 20 21 20 18 17 18 20 21 19 17 17 17 18 20 18 16 16 18 20 21 22 21 23 24 24 24 23 23 24 26 25 26 26 26 25 25 24 23 24 24 23 22
22 22 25 25 22 21 19 20 19 21 17 15 15 15 16 19 19 20 19 19 23 26 26 25 22 24 24 25 23 23 24 25 25 26 26 25 25 25 24 23 23 23 23 22
31 29 26 30 24 24 25 21 20 19 23 21 20 19 20 20 22 21 19 22 26 27 26 24 27 28 28 26 24 24 23 24 25 25 26 25 25 24 24 23 23 23 23 22
35 35 31 31 31 27 23 26 24 21 20 20 20 21 27 24 23 24 25 28 30 31 30 29 29 30 29 30 32 30 26 25 25 25 25 25 25 24 23 23 22 23 22 22
37 35 29 30 27 32 31 32 32 31 30 28 25 24 26 25 25 30 31 29 27 26 25 26 26 27 27 28 29 30 30 28 27 26 25 25 24 24 23 22 22 22 22 22
38 34 31 26 25 28 30 31 32 33 29 28 29 30 30 32 33 28 25 20 19 18 19 23 25 26 27 28 28 28 28 28 28 27 25 24 24 24 24 24 22 22 22 21
36 31 32 33 34 32 30 29 26 26 27 26 26 25 27 26 25 27 23 21 20 19 20 26 29 29 27 27 29 29 29 29 28 28 28 26 25 24 24 25 25 23 22 21
32 26 27 23 23 21 22 26 26 24 23 23 26 24 23 22 22 22 26 23 20 20 24 28 29 24 23 27 28 28 29 30 29 28 28 28 28 26 25 25 25 23 22 22
28 26 23 18 19 19 16 18 21 20 18 22 19 20 22 21 18 16 21 26 15 20 23 29 25 22 23 26 28 27 29 30 29 29 28 28 27 27 26 24 24 23 22 22
25 24 23 18 16 9 14 23 20 23 24 24 22 20 21 21 19 17 22 14 15 19 22 26 23 21 24 24 26 27 28 28 29 28 27 27 26 25 25 23 24 23 22 21
26 23 12 8 1 8 11 15 15 15 18 22 19 20 22 22 20 10 10 18 20 22 25 24 23 23 23 22 23 25 22 24 27 28 28 27 26 24 24 24 23 23 22 22
14 24 17 4 8 -5 12 9 14 20 12 15 18 19 21 21 11 9 14 20 20 24 21 22 23 23 23 22 23 20 20 22 21 24 26 26 25 22 22 22 22 23 23 23
-2 -4 9 5 -1 2 13 14 10 -2 2 11 17 19 21 19 16 17 20 18 20 20 16 15 14 13 16 21 17 18 19 18 19 21 21 26 26 23 21 20 18 18 21 21
4 -4 -9 -9 -6 -10 12 6 -0 7 14 16 15 15 23 19 18 20 16 17 16 13 12 12 12 10 13 12 15 15 13 14 15 17 19 20 22 24 22 18 17 15 18 19
0 5 -2 1 0 12 14 12 11 16 17 16 17 19 21 18 17 15 13 14 13 12 12 12 13 13 12 12 13 11 11 12 12 13 13 14 17 22 21 21 19 18 18 16
10 9 7 8 8 9 9 10 12 13 12 13 15 19 20 19 17 14 14 13 12 13 13 13 12 11 10 10 10 9 9 9 9 8 8 10 11 15 21 20 20 19 18 17
11 12 9 9 8 9 10 10 10 11 13 16 19 17 16 15 14 13 12 12 11 11 10 11 11 9 8 8 7 6 6 5 4 4 5 6 8 11 17 20 19 18 20 20
12 9 7 7 7 7 7 10 12 13 15 16 15 14 14 14 13 12 10 9 8 8 9 8 7 6 5 4 3 3 2 2 1 0 1 4 6 8 11 18 18 21 23 23

GFSCGP_sfc_dewp_015.txt.gz
Dewpoint
29 24 22 20 22 19 17 14 14 15 17 19 17 17 17 19 19 19 18 18 19 20 22 25 27 28 29 30 30 30 30 35 41 43 42 39 39 40 38 39 38 36 35 34
25 23 24 24 22 21 21 20 18 19 20 20 19 18 18 18 19 19 19 19 21 21 21 23 24 26 27 28 30 30 29 31 38 40 40 38 39 38 38 37 36 35 35 33
22 22 26 24 22 20 20 19 17 17 20 20 19 18 20 18 22 22 22 22 22 22 21 21 22 24 28 28 30 29 29 30 33 36 37 30 32 31 33 33 33 33 34 34
24 26 23 24 21 22 19 21 20 20 19 15 19 12 17 16 16 19 19 18 18 20 21 21 22 23 24 28 31 30 31 30 32 34 35 33 32 31 32 33 33 32 33 32
20 22 23 23 22 22 21 21 20 21 20 19 18 15 16 16 15 15 17 20 22 25 22 22 23 25 25 28 29 30 30 30 31 33 33 33 33 32 31 32 33 32 32 32
22 24 22 20 22 23 22 21 20 21 19 16 17 16 16 14 14 15 17 18 20 22 23 24 24 27 26 28 28 29 29 29 30 32 33 32 32 31 30 31 31 31 30 29
18 19 22 22 19 23 23 19 17 16 17 17 16 16 16 15 16 17 17 18 18 22 23 24 24 25 26 27 27 27 28 28 29 31 31 31 31 30 29 30 31 30 28 27
19 25 19 21 20 20 22 20 21 20 17 20 19 19 21 19 19 19 19 19 21 26 25 25 26 28 27 27 25 25 27 27 28 28 29 30 30 29 28 29 29 29 29 28
19 22 21 21 20 20 20 18 21 22 24 19 19 20 24 22 19 20 21 23 28 28 29 29 29 29 30 30 28 26 25 27 27 27 28 28 28 28 28 27 28 28 28 27
24 28 26 24 21 21 20 21 20 21 19 19 19 20 20 22 23 23 29 30 29 27 27 28 28 28 28 30 30 30 28 26 26 27 27 27 28 28 27 26 26 27 27 27
31 31 28 31 23 21 21 20 20 20 27 24 20 21 24 26 29 30 30 29 26 24 24 26 26 27 27 28 28 28 30 28 29 29 28 27 27 27 27 26 26 26 26 25
34 36 31 30 31 27 27 26 25 27 27 28 27 26 28 29 31 29 24 22 20 20 21 24 27 27 26 27 28 28 28 29 29 29 29 28 27 26 26 25 25 25 25 25
39 35 28 28 27 31 31 31 32 33 32 28 24 25 34 31 27 25 20 20 20 18 18 22 26 27 24 25 27 27 27 29 29 29 29 28 28 26 26 25 25 25 25 24
38 34 32 25 26 33 31 32 33 33 28 26 27 27 26 26 24 25 23 22 20 20 19 22 28 27 23 21 24 27 26 29 29 29 28 28 28 28 27 26 26 25 24 24
35 30 31 32 33 27 27 27 26 25 25 24 23 23 22 24 22 23 25 24 20 18 20 21 28 27 20 20 21 23 24 27 28 28 28 28 29 28 28 28 28 27 26 24
34 27 26 22 25 24 21 20 20 20 22 24 23 22 22 21 20 19 16 25 21 13 16 20 27 25 19 20 21 23 23 25 25 27 28 28 29 28 27 28 28 27 26 25
28 25 23 19 20 19 15 17 17 17 16 17 16 18 21 19 20 20 18 22 22 15 17 20 24 22 20 21 21 21 24 24 22 25 26 27 28 26 25 27 26 26 26 26
27 24 23 18 11 9 14 19 21 20 23 21 20 20 21 20 20 21 20 22 15 16 17 22 24 20 20 21 22 20 23 20 21 22 22 23 22 20 25 26 26 25 25 25
27 21 12 12 9 10 11 13 12 13 13 19 15 18 18 19 21 18 16 14 15 19 21 25 23 21 21 22 21 22 21 18 19 18 18 18 19 19 24 24 24 24 25 25
19 24 19 8 5 -7 8 5 10 18 7 17 14 13 15 20 14 12 11 15 19 20 22 22 19 19 19 19 20 22 14 15 16 16 15 15 17 20 18 19 22 24 24 24
-4 -0 14 12 10 8 12 14 13 0 2 12 13 15 16 17 17 17 17 18 20 20 20 18 16 15 13 13 19 15 13 13 14 15 13 13 14 15 15 17 20 22 22 23
5 -3 -10 -12 -6 -1 12 9 3 10 13 15 15 14 13 13 17 21 20 18 16 16 15 14 13 12 11 12 15 13 12 12 13 12 10 10 10 11 12 12 15 20 21 20
5 6 1 3 1 10 12 13 12 13 15 14 15 14 15 16 18 19 17 16 15 14 14 14 14 13 12 13 14 12 11 11 10 9 7 6 7 7 8 10 12 15 20 20
11 8 6 8 7 8 8 9 11 13 14 14 14 15 15 16 18 18 17 15 14 15 14 14 13 12 11 11 12 11 11 10 6 4 4 4 4 4 5 7 10 13 18 19
12 12 9 9 9 10 10 11 11 11 13 14 15 18 18 16 15 14 14 14 13 11 11 10 9 9 9 9 8 7 7 5 3 2 2 1 2 2 3 6 9 11 15 20
13 12 10 9 10 9 8 10 12 13 14 14 13 13 14 14 12 11 9 8 8 7 7 6 5 4 3 3 2 2 2 1 -0 -1 -2 -2 -1 -1 0 2 4 11 15 18

GFSCGP_sfc_dewp_018.txt.gz
Dewpoint
29 24 22 20 21 18 19 17 16 17 18 20 18 18 17 18 18 18 19 19 20 21 23 23 26 28 29 29 31 31 32 34 40 44 46 48 49 50 49 50 48 47 44 41
26 23 24 24 23 22 21 20 19 19 19 19 18 17 18 19 20 20 20 20 21 21 21 24 25 27 29 29 30 31 31 32 35 41 44 45 45 46 46 48 47 46 44 41
22 21 26 25 23 21 20 20 18 19 20 20 19 18 20 17 20 20 21 22 21 21 22 24 25 27 30 30 31 30 30 31 32 38 41 42 40 41 42 44 44 44 43 41
25 25 23 24 22 22 20 21 21 21 20 15 19 16 20 19 19 19 20 20 21 24 26 25 26 27 28 30 32 31 32 31 31 34 38 40 36 36 37 37 40 41 41 40
21 23 24 24 23 24 21 22 21 21 20 21 18 17 19 18 17 15 17 21 23 27 27 26 28 29 29 30 31 31 31 31 32 33 35 37 37 36 35 34 38 39 39 39
24 24 23 21 22 24 22 21 21 22 19 19 20 18 18 17 15 16 19 21 27 27 29 29 31 31 30 32 31 30 29 29 32 32 33 34 35 35 35 34 36 37 36 36
22 21 23 22 21 24 22 20 23 25 25 24 18 19 18 19 16 19 19 27 29 29 29 28 28 29 30 31 31 29 29 28 29 31 31 32 33 33 33 33 34 34 34 33
24 24 22 22 22 25 23 22 27 26 25 26 29 22 22 23 23 26 29 29 29 29 29 28 28 27 28 29 29 30 30 29 29 29 29 29 31 31 31 31 31 31 33 33
27 26 23 22 22 22 23 21 24 27 31 26 22 22 25 27 25 29 29 29 27 27 28 28 27 24 25 26 27 28 27 28 28 29 30 29 29 29 29 30 31 30 31 30
28 29 31 27 22 22 22 25 25 21 21 21 20 22 21 25 27 29 29 27 24 24 25 27 26 24 24 25 25 25 27 25 25 27 29 30 30 29 29 29 30 30 30 30
33 35 31 31 27 25 23 21 20 20 24 26 24 21 25 27 29 29 27 22 22 21 22 24 25 24 22 24 24 22 24 25 25 26 28 29 30 30 29 29 29 29 29 29
33 33 30 27 29 29 27 27 26 25 26 24 24 24 31 31 31 26 22 21 20 19 16 19 24 23 20 19 22 23 22 23 24 25 27 26 26 27 27 29 28 29 28 28
39 34 30 31 29 33 33 32 29 30 33 29 26 28 32 28 25 22 22 21 21 20 13 13 22 23 17 16 18 18 21 22 22 22 24 25 25 26 24 25 28 28 28 27
38 35 31 24 25 28 32 33 34 33 29 28 29 30 30 29 25 24 22 22 21 13 13 12 14 22 17 15 14 13 14 19 19 20 23 24 24 25 24 24 27 29 29 27
34 31 29 29 29 28 30 29 27 24 25 24 23 23 22 21 24 21 16 19 18 9 10 12 15 19 17 12 11 12 12 18 18 17 20 21 25 25 24 24 28 30 30 28
33 28 27 27 26 28 28 27 25 23 22 20 19 18 20 19 14 11 8 8 16 10 8 10 14 18 19 14 13 14 12 17 20 19 22 21 24 24 22 23 27 26 26 28
27 26 24 20 21 21 19 21 19 17 17 14 12 21 21 12 13 13 15 14 16 12 10 11 13 16 19 17 15 16 15 19 23 23 24 24 23 21 19 21 25 23 23 25
24 24 25 20 20 11 15 14 16 16 21 23 21 21 17 5 4 12 17 15 13 12 10 11 14 14 19 19 17 17 20 22 22 22 23 22 19 19 18 18 21 19 21 23
24 20 19 15 14 13 12 11 10 12 12 23 15 9 7 6 14 6 11 15 14 15 14 17 19 19 19 17 17 19 21 19 19 16 18 18 18 17 16 17 17 18 20 22
17 22 17 15 10 4 4 4 12 12 9 22 19 13 13 10 4 3 6 12 12 14 17 19 19 19 17 15 14 17 17 18 17 16 16 16 17 16 15 16 16 17 19 19
10 16 15 14 12 12 18 14 16 9 11 22 19 16 14 11 10 12 12 13 17 18 20 19 19 16 15 15 18 16 15 15 16 17 17 17 15 14 14 14 15 15 15 16
3 7 9 8 8 4 13 9 8 11 14 17 14 12 11 11 11 12 12 14 15 18 19 17 16 15 14 14 17 15 14 14 16 16 15 14 13 13 13 12 12 12 13 14
7 10 9 8 7 10 12 15 13 15 18 18 14 14 12 13 11 11 12 16 18 17 15 17 18 16 12 15 15 14 14 15 14 12 11 10 10 10 10 10 9 10 11 11
12 10 10 12 10 11 11 11 11 12 14 15 14 14 14 13 15 17 18 17 15 16 16 16 14 12 11 12 12 11 10 9 8 6 6 7 6 7 7 7 7 8 9 10
12 12 12 13 11 11 12 12 13 13 15 14 15 16 16 15 14 13 13 13 10 10 9 10 10 8 7 6 6 5 4 3 2 2 2 3 3 3 3 3 4 5 7 10
13 11 10 10 10 9 9 12 13 13 13 15 14 13 13 10 9 7 8 6 6 6 5 4 3 3 2 1 -0 -0 -0 -1 -2 -2 -2 -2 -2 -2 -2 -1 -1 6 9 11

GFSCGP_sfc_dewp_021.txt.gz
Dewpoint
29 24 22 22 22 21 20 19 18 20 22 22 21 20 19 18 18 18 18 19 19 21 24 26 29 31 31 32 32 31 32 33 36 42 47 50 51 53 53 53 53 53 51 49
27 23 24 24 23 23 21 20 20 21 21 21 21 19 19 20 20 20 20 20 21 22 25 26 28 30 30 32 33 32 31 32 33 38 45 45 46 48 50 51 52 51 51 48
25 25 25 23 23 22 21 21 20 20 22 20 19 19 22 20 23 21 19 22 25 26 26 27 29 29 31 31 32 32 32 32 33 34 39 42 45 42 44 47 49 50 50 49
27 27 25 24 22 22 21 22 22 20 20 19 22 19 22 22 21 19 21 25 27 27 29 30 30 31 31 32 33 31 32 32 33 35 38 40 40 38 38 39 44 46 48 47
23 24 24 24 22 23 21 24 20 21 21 23 21 20 21 22 20 18 23 27 29 29 29 29 30 31 31 33 33 33 30 31 33 34 36 36 37 38 37 36 39 43 45 45
24 24 22 22 22 24 23 21 21 22 23 23 22 20 20 18 16 19 24 27 29 29 29 28 29 30 30 33 32 32 31 30 32 32 32 34 35 35 36 37 39 40 41 41
25 24 24 23 22 24 22 21 23 22 25 26 22 24 23 23 18 20 25 28 28 29 28 27 27 27 28 29 31 29 29 30 31 33 31 31 31 33 33 35 36 36 37 38
23 20 25 23 23 25 26 24 25 21 22 24 30 26 25 24 24 27 28 28 29 28 29 28 26 26 26 27 27 27 28 25 27 29 31 31 31 31 31 31 32 33 34 35
22 23 29 26 25 23 24 23 25 27 30 27 25 25 27 27 27 28 28 27 26 27 28 28 26 24 25 25 24 26 25 26 24 26 28 30 31 31 30 30 31 32 32 31
31 29 30 28 27 25 22 24 26 25 25 22 21 22 19 23 26 29 28 25 24 25 25 25 26 24 23 24 24 23 22 22 22 24 26 26 28 29 30 31 32 32 31 31
32 34 28 29 26 25 23 23 24 24 27 25 22 20 27 28 29 28 25 24 22 21 20 22 25 21 18 18 19 21 21 21 20 22 25 26 26 26 25 25 28 31 31 31
31 30 29 25 25 26 28 28 27 26 25 25 25 27 31 31 29 26 23 23 22 22 17 15 22 20 15 14 15 14 16 18 20 20 24 23 22 24 22 22 24 29 30 31
35 32 27 26 20 32 32 31 31 32 33 30 28 24 30 30 28 27 27 26 22 21 8 8 11 17 14 11 12 11 12 15 18 17 20 21 23 24 23 21 23 26 27 28
38 34 30 23 20 24 27 29 31 33 28 27 27 28 28 32 32 30 28 24 21 16 12 10 10 12 14 11 8 8 9 12 17 15 16 20 21 22 21 20 22 25 26 25
31 28 28 27 24 24 26 26 26 24 26 25 24 26 25 23 22 22 19 18 19 15 9 8 10 14 14 14 10 10 11 13 15 17 17 18 20 20 22 22 22 26 26 24
25 25 25 23 22 21 21 23 23 24 25 24 23 20 19 17 16 15 13 11 9 7 12 8 10 11 14 16 15 14 13 17 19 22 22 22 24 23 23 22 21 23 24 22
24 24 23 18 18 17 17 18 15 16 16 15 13 21 22 18 14 13 13 11 10 8 9 10 8 10 13 16 18 17 16 19 23 25 25 24 23 23 21 20 18 18 19 19
23 24 23 18 18 10 14 8 10 12 16 21 24 21 14 7 5 7 8 11 12 8 7 9 11 12 18 19 19 18 22 23 23 24 24 23 22 21 19 17 17 16 17 17
16 17 17 15 14 12 12 9 8 7 10 17 23 10 6 5 6 4 3 6 7 9 11 15 18 18 19 19 19 20 20 20 20 19 20 20 19 20 19 17 15 15 17 17
12 15 16 16 11 6 3 7 9 11 9 24 21 14 14 10 4 3 6 12 11 12 16 17 19 22 21 19 18 18 18 18 17 17 17 17 19 18 17 17 15 16 16 16
12 16 16 16 13 13 18 16 13 10 13 23 22 17 17 12 11 14 14 12 14 17 19 20 22 20 18 18 18 16 16 15 16 17 17 17 17 17 16 16 15 14 13 13
3 9 11 12 8 4 13 12 10 13 16 19 15 12 12 12 12 12 10 12 13 16 19 19 18 17 15 14 16 14 13 13 14 13 12 12 12 12 13 12 11 11 11 10
7 9 10 11 8 9 11 15 15 17 20 19 15 15 13 13 10 11 11 14 17 18 17 17 17 15 11 14 13 11 10 9 8 7 5 5 6 6 7 8 8 8 9 8
11 11 9 13 10 11 12 13 13 14 15 15 16 16 15 14 14 16 18 18 16 17 16 15 13 11 10 9 9 8 6 5 2 0 0 1 1 1 2 2 3 4 4 4
14 10 14 14 12 12 13 13 13 14 16 16 16 16 15 15 17 15 15 15 12 11 10 11 9 7 6 5 5 4 3 1 -0 -1 -1 -1 -1 -1 -1 -0 -0 -0 2 3
14 12 10 10 10 10 9 12 14 13 13 15 17 18 16 14 13 10 10 9 7 6 6 6 5 4 3 2 1 1 0 -1 -2 -2 -2 -3 -3 -2 -2 -3 -3 4 7 9

GFSCGP_sfc_dewp_024.txt.gz
Dewpoint
32 27 25 25 24 23 24 22 21 22 23 23 23 23 22 22 21 20 20 21 24 25 28 29 30 31 32 32 32 32 33 34 37 43 46 49 51 53 53 54 54 54 53 51
30 27 27 27 27 25 24 23 21 22 23 23 23 22 21 20 20 22 22 24 25 26 28 30 31 32 31 32 31 32 33 33 35 38 44 45 47 48 51 52 52 52 52 50
27 28 30 28 25 24 23 23 22 22 23 21 21 22 23 24 23 24 26 26 28 29 29 30 30 31 32 32 31 31 32 33 35 37 40 42 43 42 41 45 47 49 50 50
29 29 27 27 25 25 22 24 24 24 21 18 24 20 23 23 24 26 27 28 29 29 30 30 30 31 31 32 32 31 31 32 33 36 39 39 40 38 38 40 44 46 47 47
28 26 26 26 24 25 25 25 23 22 21 22 22 22 22 24 22 25 28 29 29 29 29 29 29 30 32 32 32 31 31 32 32 33 34 36 36 37 38 38 37 39 43 44
26 25 24 24 24 25 25 22 22 22 21 23 23 22 21 19 20 24 27 29 29 28 27 27 28 28 28 30 30 28 28 30 32 32 32 32 32 33 34 35 36 38 39 41
26 25 25 26 24 26 24 22 23 22 22 23 26 24 23 21 20 24 27 28 29 28 27 26 26 27 28 28 29 26 27 26 29 31 32 31 32 32 32 32 33 33 35 37
25 23 25 24 24 25 26 25 25 17 17 20 27 24 25 26 27 28 29 29 28 28 28 26 26 26 26 26 26 26 27 25 26 27 29 30 31 32 32 31 32 32 33 33
22 21 26 26 26 25 25 24 26 24 22 21 23 23 25 28 28 28 27 26 27 27 28 27 25 24 25 25 24 24 23 24 23 26 27 27 27 26 27 30 32 31 31 30
32 29 30 28 27 25 24 25 25 27 24 17 20 20 19 28 28 28 25 25 24 23 23 26 23 21 21 22 23 22 22 22 22 25 26 25 26 25 24 25 26 29 31 31
33 33 29 29 28 25 23 24 25 25 25 20 18 18 28 29 29 25 24 23 22 20 18 22 24 18 17 17 17 18 20 22 21 23 25 24 24 24 23 23 24 27 28 29
33 31 26 27 27 28 27 26 27 25 22 24 24 23 31 29 27 25 24 24 23 23 16 14 21 19 14 15 15 14 17 20 20 20 23 23 23 25 23 21 22 25 26 27
35 30 21 19 18 33 31 31 29 28 33 28 25 24 30 28 26 26 29 29 27 24 15 18 20 22 19 16 15 13 14 17 20 18 18 20 20 22 21 19 20 22 25 25
37 30 24 16 16 22 23 24 25 28 26 22 21 22 23 29 32 33 33 31 25 22 13 12 11 13 15 14 11 10 12 15 17 19 18 19 20 20 20 21 21 21 23 25
31 25 28 27 26 25 24 23 23 23 23 21 19 19 21 22 24 20 18 18 20 20 15 11 10 12 13 16 16 15 14 16 17 19 21 20 21 21 22 22 22 21 21 24
27 19 23 17 23 23 20 20 20 19 19 19 19 19 20 18 15 15 15 13 12 8 8 12 10 11 13 14 17 17 15 18 19 19 21 22 23 22 22 22 21 20 20 21
23 20 11 10 18 16 9 14 14 13 13 13 12 17 21 18 14 12 11 13 14 12 11 9 12 10 13 16 18 19 20 19 21 21 21 22 22 21 21 21 20 17 16 16
22 17 15 8 8 -1 8 10 11 11 13 16 21 18 17 11 8 9 9 10 11 12 9 10 13 13 18 20 20 19 21 22 22 21 21 21 22 21 20 19 18 17 15 14
22 20 16 6 3 8 10 9 8 7 8 15 16 20 8 9 9 6 7 10 11 11 13 15 17 19 21 20 19 20 20 21 20 19 19 19 18 18 17 17 17 17 16 15
12 15 13 4 3 -5 3 7 10 11 7 18 16 14 15 15 9 8 12 13 13 14 15 18 19 22 20 19 19 19 18 17 15 16 16 16 16 15 14 15 15 15 15 15
5 6 10 11 8 9 15 15 12 3 5 18 17 18 18 15 14 15 15 14 14 16 17 21 19 19 18 17 17 14 13 12 14 13 12 10 9 9 9 9 9 10 10 11
6 3 2 2 1 5 12 12 10 14 21 21 19 16 15 15 14 14 13 13 13 17 18 19 18 16 14 14 14 11 9 9 9 7 6 4 2 3 4 2 3 3 4 5
6 8 5 8 8 13 15 16 18 17 19 19 18 18 15 15 13 13 12 13 18 17 17 16 13 12 11 11 11 7 6 6 5 2 -1 -1 -1 0 0 -1 -1 -1 -0 0
12 11 9 11 10 11 11 12 14 14 15 16 16 16 16 15 15 15 18 18 17 17 15 13 10 7 6 7 8 4 4 3 -0 -2 -2 -1 -2 -2 -2 -1 -1 -2 -2 -2
13 13 12 12 12 12 12 14 14 15 15 15 16 16 16 16 17 17 17 16 15 13 12 10 7 6 5 4 3 1 2 -0 -2 -2 -2 -2 -3 -3 -3 -2 -2 -2 1 3
16 13 10 10 11 10 10 13 15 16 15 15 16 17 18 18 17 14 14 12 11 9 8 6 4 3 1 -0 -1 -1 -4 -4 -3 -2 -3 -4 -5 -4 -4 -4 -4 4 7 9

GFSCGP_sfc_dewp_027.txt.gz
Dewpoint
30 25 23 22 23 21 21 22 22 22 23 23 22 23 23 23 23 21 23 26 27 29 30 31 32 32 32 30 31 33 34 35 37 41 46 48 50 52 53 55 56 56 56 54
28 25 27 27 27 25 24 23 22 23 24 22 22 21 21 22 22 23 25 26 28 29 30 30 31 32 32 31 31 31 32 34 36 39 41 45 44 43 48 51 52 53 54 53
27 27 29 27 26 24 23 22 23 23 23 20 20 22 22 24 26 27 28 29 30 29 29 29 30 31 31 31 31 31 32 32 32 36 37 40 42 41 39 43 46 49 51 51
28 28 27 28 27 26 23 25 24 23 20 16 22 18 23 24 25 27 28 29 29 29 29 29 29 30 29 28 29 30 31 32 31 32 34 35 35 36 37 39 39 42 45 46
28 25 24 25 25 25 24 25 23 22 19 22 20 20 23 24 25 27 28 28 28 28 28 27 28 28 29 28 27 26 28 30 32 32 32 32 32 34 35 35 36 37 41 42
26 25 24 24 25 25 24 21 22 21 20 20 22 22 22 19 23 27 28 28 27 26 27 27 28 28 27 28 27 26 25 27 29 31 31 31 31 31 31 32 33 34 35 38
25 25 25 25 22 25 22 22 22 19 19 19 25 22 22 24 24 27 28 27 27 26 25 25 25 25 25 25 25 23 24 25 27 28 28 28 30 31 31 31 31 31 32 33
24 22 24 24 24 24 24 24 22 13 17 17 24 21 23 28 28 28 28 28 28 28 26 25 25 25 25 23 23 23 24 22 25 26 27 27 26 26 27 29 30 30 31 31
24 21 25 26 25 27 25 24 26 24 18 19 23 24 29 28 27 26 26 27 27 27 26 24 23 24 24 23 23 22 21 22 23 25 25 25 26 24 23 24 26 27 28 28
31 25 31 27 28 26 26 26 24 25 14 15 21 21 21 27 26 25 25 24 23 23 25 24 21 20 20 21 21 22 21 20 21 24 25 23 24 24 22 22 23 25 26 27
33 32 29 29 29 26 23 24 25 26 26 19 16 17 28 28 26 24 23 23 22 20 21 25 19 17 19 20 20 22 22 20 19 21 24 24 24 25 23 21 21 22 25 26
32 32 25 28 28 28 27 25 26 24 20 24 24 21 30 28 26 25 24 24 23 21 17 19 21 15 15 15 16 15 19 21 20 20 22 23 22 23 22 20 19 21 21 23
34 28 17 18 21 31 29 29 26 26 32 25 23 22 29 27 26 25 25 25 24 22 17 20 23 23 19 19 17 15 16 19 21 18 18 19 20 20 20 21 21 21 20 19
35 31 21 13 13 26 24 25 25 26 22 17 19 21 21 21 28 30 30 32 30 23 13 15 14 15 15 13 12 11 13 15 18 18 19 19 19 20 20 21 21 22 22 21
30 24 28 27 27 25 25 24 24 22 22 20 18 18 19 19 20 20 20 26 27 22 16 12 12 13 14 15 16 15 15 15 17 18 19 19 21 22 22 22 23 22 22 19
30 19 24 16 23 23 21 21 21 20 20 18 17 16 17 18 15 16 14 13 12 9 8 11 12 11 12 12 14 17 17 18 19 18 19 21 21 21 22 22 21 20 20 19
24 21 12 8 20 15 9 14 14 14 14 12 10 14 18 17 15 11 9 10 12 13 11 8 10 11 12 14 16 18 19 20 20 20 20 20 21 21 21 21 20 19 18 17
22 16 11 4 4 2 9 10 11 12 14 16 17 16 17 16 7 8 8 8 9 12 9 8 11 12 16 20 20 19 20 21 21 19 18 19 20 19 19 18 16 15 15 15
25 20 8 6 1 7 8 7 5 5 5 15 12 19 19 9 9 7 7 9 9 9 11 13 15 19 21 19 18 19 19 20 19 18 18 18 16 14 13 10 10 10 12 12
21 23 15 -5 2 -3 6 7 11 11 5 11 11 15 14 13 8 8 10 13 13 13 15 16 20 21 19 17 16 17 17 16 14 16 13 11 10 8 7 6 5 6 6 7
2 1 14 13 8 6 13 15 12 1 3 15 15 14 16 14 14 14 15 15 15 16 16 20 19 18 15 15 14 12 13 11 13 11 8 7 6 4 2 2 3 2 2 2
7 4 1 -2 -5 4 13 13 7 11 21 19 16 14 16 16 16 16 15 15 14 15 19 18 17 15 13 13 12 10 8 8 8 6 4 2 0 0 2 -1 -1 -1 -1 -2
4 8 4 8 8 13 14 13 16 19 18 19 16 16 17 16 15 14 13 14 16 18 18 14 12 10 10 10 10 7 6 5 4 -2 -4 -3 -1 -0 -0 -2 -2 -2 -2 -2
12 11 10 9 10 12 12 14 15 17 17 17 17 16 17 15 15 16 15 16 18 17 14 12 9 6 5 6 8 3 3 3 -8 -10 -4 -2 -2 -2 -2 -2 -3 -3 -3 -3
13 13 11 11 11 12 12 13 13 15 17 17 17 16 16 16 17 17 18 19 16 14 12 8 6 6 5 5 2 -2 1 -5 -6 -4 -2 -2 -2 -4 -4 -3 -3 -2 0 2
16 13 12 11 11 11 11 14 16 16 16 16 17 17 18 19 18 17 17 15 12 10 8 6 5 3 0 -3 -4 -5 -8 -10 -9 -4 -2 -3 -3 -4 -4 -4 -4 4 7 9

GFSCGP_sfc_dewp_033.txt.gz
Dewpoint
29 19 18 21 22 17 17 19 19 21 24 23 23 22 23 23 24 27 28 28 29 29 29 28 27 27 29 30 30 31 31 33 35 39 43 43 39 40 39 41 44 48 51 54
26 20 20 22 22 22 22 21 21 23 25 23 23 22 22 27 27 27 28 28 28 28 27 26 25 25 26 27 29 30 30 31 33 34 37 40 39 38 36 36 37 39 42 45
25 25 27 24 25 24 24 23 22 22 24 22 22 21 23 27 29 29 29 28 28 27 26 26 24 25 24 25 27 28 29 30 31 33 33 33 34 33 32 33 34 35 35 34
27 28 27 27 25 26 25 26 24 25 21 20 23 18 19 25 27 28 27 27 26 26 26 26 25 23 24 24 25 26 26 25 27 31 31 31 30 29 31 32 32 33 33 31
27 28 26 26 26 27 26 26 24 21 20 21 19 18 18 26 26 26 27 26 26 26 25 25 24 23 23 23 24 25 24 24 23 24 25 25 23 27 25 25 25 27 29 28
28 25 25 26 25 27 25 22 24 24 21 20 20 19 19 23 24 26 26 26 26 26 25 24 24 23 21 21 22 23 22 23 23 21 21 20 21 20 20 22 23 24 25 25
25 25 25 23 22 23 23 23 20 18 18 20 23 21 20 26 28 27 26 25 25 25 24 23 22 21 19 18 20 21 22 22 22 20 19 19 20 19 19 21 22 22 23 22
23 23 24 24 22 22 22 23 22 11 15 18 23 22 21 28 27 27 25 25 24 24 24 24 23 21 19 17 17 19 22 22 22 21 21 20 19 19 19 20 20 21 22 22
24 24 24 23 26 25 24 22 24 22 12 17 22 23 27 27 27 26 26 26 25 24 24 24 24 21 20 18 16 15 18 21 22 21 20 21 20 19 18 18 20 20 20 19
26 24 27 28 27 26 25 27 23 23 12 14 18 21 20 25 26 27 27 27 27 26 25 23 22 22 20 20 19 17 16 17 20 21 20 20 20 20 19 19 19 19 19 20
31 27 27 28 27 25 25 24 25 24 21 12 10 13 23 26 26 26 26 27 27 27 26 23 21 20 19 19 19 18 16 15 16 18 19 19 19 19 19 19 19 20 20 20
33 29 25 27 28 28 26 25 25 21 18 21 20 17 29 27 27 26 26 26 26 25 25 23 19 18 18 17 16 15 17 16 16 17 17 17 17 18 18 19 19 21 20 21
32 27 17 22 21 28 26 25 26 28 24 15 17 19 28 27 26 26 26 26 25 24 21 24 18 17 16 15 15 14 16 17 19 18 17 17 17 18 18 19 20 21 21 21
35 28 24 23 18 24 24 24 25 24 21 19 21 23 27 27 26 26 27 27 27 25 19 22 18 16 15 15 14 14 14 17 19 20 18 18 19 19 19 20 21 21 22 21
31 23 26 24 23 25 24 24 24 22 22 21 21 22 22 26 27 26 22 21 26 26 17 18 21 21 20 17 15 13 12 15 17 17 18 18 20 20 20 20 21 20 20 17
28 24 25 19 26 27 27 26 25 24 24 22 22 21 22 21 19 17 18 21 27 29 23 17 16 16 17 17 15 14 15 17 18 18 18 18 19 19 19 17 15 12 11 10
27 25 23 23 18 16 15 17 21 21 22 21 18 20 17 15 16 17 18 16 19 22 24 19 15 14 14 15 15 15 17 20 19 18 15 16 17 15 14 11 10 9 8 8
27 26 25 16 15 12 16 10 11 14 16 16 16 13 15 17 17 17 18 16 13 12 12 12 10 10 14 14 16 19 20 19 17 15 14 14 13 10 9 8 7 6 6 5
25 23 18 18 7 12 14 9 7 7 4 15 16 17 16 16 10 10 9 10 9 9 11 14 14 12 14 18 19 19 17 16 14 16 15 12 10 7 7 4 5 4 4 4
24 23 25 8 8 6 10 7 9 8 4 11 16 15 14 11 9 9 9 9 10 11 12 13 14 17 19 19 18 16 14 11 11 14 11 9 9 2 2 4 2 3 2 3
15 19 19 12 15 9 13 13 11 0 3 13 13 14 15 12 13 14 13 10 13 14 15 15 17 19 19 16 15 13 12 8 12 9 8 7 5 2 1 0 2 0 -1 0
10 9 9 8 8 5 14 12 9 13 14 16 14 12 14 15 14 14 13 12 12 14 16 18 19 19 15 14 13 11 8 10 7 6 4 1 -4 -3 -1 -9 -4 -5 -4 -4
6 11 9 12 10 14 15 15 15 16 16 17 14 14 16 16 15 14 14 15 15 15 16 20 19 15 12 11 9 8 7 6 5 1 -4 -10 -6 -3 -2 -8 -4 -4 -6 -6
11 10 10 10 11 11 13 15 15 17 15 14 17 15 16 15 15 14 14 15 16 17 17 17 14 13 10 7 8 5 4 4 -7 -4 -6 -5 -7 -6 -6 -2 -1 -5 -5 -4
11 12 12 11 10 11 12 14 15 15 16 16 16 17 16 16 15 15 16 18 18 18 16 14 14 12 8 7 4 1 2 -1 -3 -5 -3 -3 -5 -8 -5 -4 -3 -2 0 3
13 9 8 7 10 10 10 13 15 15 14 15 17 16 18 18 17 17 18 18 18 17 13 11 9 7 5 3 0 -3 -6 -6 -8 -4 -3 -4 -4 -4 -3 -3 -4 3 7 10

GFSCGP_sfc_dewp_036.txt.gz
Dewpoint
28 21 20 22 20 19 17 19 18 20 23 23 23 23 23 25 27 28 28 28 27 26 26 25 25 26 27 28 29 30 32 33 35 37 41 37 35 35 35 35 35 35 37 42
24 19 21 21 23 20 20 19 19 22 24 23 23 23 25 28 28 28 28 27 26 24 24 24 24 25 25 26 27 28 30 32 33 35 36 36 35 34 33 34 33 33 34 35
23 24 25 22 22 21 21 19 21 21 24 23 24 21 24 28 28 28 28 28 26 24 24 23 23 23 24 24 25 25 26 29 31 32 32 32 32 31 30 30 30 29 28 31
25 27 27 25 24 23 22 25 24 23 24 22 24 19 20 26 27 27 26 26 25 25 25 23 21 22 23 23 24 24 22 22 24 27 26 25 23 21 27 26 26 25 25 24
28 27 26 26 26 26 25 27 25 23 22 20 21 19 19 26 25 26 26 25 25 25 24 22 21 21 21 22 22 22 21 20 20 21 21 20 21 22 22 22 22 24 23 23
29 27 27 27 26 27 25 24 24 23 21 19 20 20 20 23 24 26 26 26 25 25 24 23 22 19 19 20 21 20 18 19 19 18 18 17 16 17 17 19 20 22 23 21
26 25 24 23 23 23 23 22 20 18 18 20 22 19 20 25 27 27 26 26 26 25 23 22 20 16 17 18 19 19 18 19 19 18 17 17 17 17 18 20 20 20 21 21
25 23 25 25 23 23 23 23 21 12 14 16 23 21 23 27 27 27 27 26 25 24 24 23 21 17 14 16 18 19 20 19 19 19 18 18 19 19 19 19 19 19 20 21
23 23 25 23 25 24 22 21 24 21 12 16 21 22 26 27 26 25 25 25 24 24 24 24 23 20 15 14 15 18 20 20 18 18 19 19 18 18 18 18 19 19 19 18
26 23 26 26 25 26 25 26 23 23 13 11 18 19 19 25 25 25 25 24 24 25 24 24 24 21 19 16 15 15 17 19 19 19 19 18 19 19 18 19 19 19 19 19
28 26 27 27 26 24 24 24 25 24 21 15 11 13 23 24 26 25 25 25 26 26 25 24 23 22 19 19 17 16 15 16 17 18 18 18 18 18 19 19 19 20 20 20
31 28 25 26 28 28 26 25 25 22 19 19 19 18 29 27 27 26 26 27 28 28 27 25 22 20 19 18 17 15 15 15 16 17 18 18 18 18 18 18 19 21 20 21
32 27 18 22 25 27 26 25 26 26 24 17 17 19 28 27 27 27 27 27 26 26 25 26 21 19 19 17 16 14 16 16 17 17 17 17 18 18 18 19 20 21 21 20
34 28 24 22 22 26 26 26 26 24 18 20 21 22 26 27 26 26 26 26 26 26 25 23 21 18 18 16 14 12 14 17 18 18 17 18 18 19 19 20 20 19 19 16
31 25 26 23 21 24 25 25 25 24 24 22 22 22 23 28 28 27 26 26 23 23 25 21 22 19 17 16 14 14 14 15 17 18 18 18 19 18 19 18 18 15 13 10
29 25 26 23 26 26 26 24 25 25 23 22 21 21 20 24 24 24 24 21 19 22 26 22 21 21 19 17 16 15 13 14 17 17 18 18 19 19 18 16 13 11 10 9
29 26 25 24 19 21 23 24 25 24 24 23 22 24 20 19 20 20 19 18 20 24 27 26 19 18 19 20 19 17 16 17 19 19 16 16 16 14 12 11 10 8 8 7
27 25 27 16 19 16 19 10 17 26 25 24 19 16 19 18 17 18 19 19 18 18 20 22 20 16 17 16 16 16 18 20 19 16 14 14 12 9 10 8 7 6 5 5
26 27 19 17 16 19 18 9 6 6 7 17 21 21 16 16 12 10 13 17 17 15 15 15 15 13 12 14 16 19 19 19 16 14 15 12 9 7 6 3 4 5 4 3
26 27 27 14 16 13 10 8 10 8 7 14 18 17 15 12 5 5 9 11 11 11 11 13 14 14 13 16 19 19 17 15 12 14 13 9 8 3 2 4 2 3 0 3
20 21 23 17 17 16 16 13 10 3 9 13 16 17 15 12 9 7 12 11 11 12 12 13 14 15 16 18 18 17 15 12 12 11 8 7 5 2 1 -1 1 -2 -3 0
16 17 16 17 15 13 14 11 9 14 15 16 14 12 14 12 10 13 13 12 11 12 13 16 16 16 18 17 17 15 13 11 9 6 5 4 1 -1 1 -9 -7 -8 -8 -8
9 14 13 17 15 15 13 16 16 15 16 15 13 12 11 12 12 12 13 14 13 12 13 16 17 17 17 15 15 13 11 8 5 2 -1 -2 -1 0 0 -8 -5 -5 -9 -9
12 11 12 11 13 13 14 15 16 17 14 15 16 14 14 13 14 14 15 15 15 17 17 16 14 14 14 10 12 9 7 5 -2 -7 -2 -1 -4 -2 -2 -1 -1 -7 -8 -6
12 11 13 12 10 11 11 13 14 16 17 16 16 15 15 15 15 16 16 18 17 17 16 15 16 16 15 9 6 3 3 0 -4 -6 -1 -1 -1 -2 -3 -2 -3 -2 -1 -0
12 10 8 8 9 8 10 12 13 14 13 14 15 15 17 18 17 17 17 18 17 17 14 14 13 12 8 7 3 -1 -1 -3 -5 -3 -2 -1 -2 -2 -2 -3 -4 4 8 10

GFSCGP_sfc_dewp_039.txt.gz
Dewpoint
28 23 23 23 21 22 20 18 18 20 23 24 23 23 24 26 27 27 27 26 25 24 25 25 25 25 26 27 29 31 33 34 37 39 38 36 34 34 33 32 32 34 35 37
24 21 24 24 23 20 19 19 18 21 24 24 24 23 26 28 27 27 27 25 24 23 23 23 23 24 24 25 25 27 30 31 34 35 36 35 32 30 29 26 26 27 31 33
23 24 23 21 21 21 20 19 19 20 25 24 23 23 25 28 28 28 27 26 24 23 22 22 22 22 22 22 23 23 24 27 28 32 32 30 28 25 20 21 22 24 25 26
24 26 26 23 22 20 19 22 21 23 23 22 23 19 23 26 27 27 27 25 24 24 23 21 21 21 21 21 22 21 21 21 22 24 24 23 19 15 20 21 22 23 25 23
29 27 27 27 26 24 24 27 25 25 24 21 20 19 20 26 25 26 26 25 25 24 22 20 20 20 20 21 20 19 18 18 19 20 20 19 19 20 19 20 22 23 23 24
29 29 28 27 27 27 26 24 24 23 22 19 20 20 20 22 24 26 26 25 25 25 23 21 20 19 19 19 19 18 16 17 18 17 17 17 16 18 18 20 21 22 21 21
27 26 25 24 23 24 24 22 21 19 20 20 21 20 20 23 26 27 26 25 25 25 23 21 18 16 18 18 18 17 16 16 17 18 17 17 17 18 18 19 19 19 19 19
27 26 25 24 25 24 23 23 23 16 16 17 23 20 21 27 27 27 27 26 25 25 23 22 19 15 16 18 18 18 18 16 17 17 17 18 19 19 19 18 18 18 19 19
27 26 25 24 24 25 22 21 24 21 13 19 21 22 25 28 26 26 26 25 25 25 24 23 22 16 14 17 18 18 17 18 17 18 18 18 18 18 18 18 19 19 19 17
26 24 26 25 26 26 24 25 22 23 15 15 18 19 18 25 25 25 25 25 25 25 24 24 23 20 15 14 16 19 18 17 18 18 19 18 19 19 19 19 19 19 19 19
27 27 27 26 24 24 25 24 24 23 22 17 14 15 21 22 26 25 25 25 25 24 24 24 25 22 19 16 15 16 18 19 19 19 19 19 19 19 19 19 19 19 19 19
29 28 26 25 28 27 26 24 24 22 19 20 20 20 28 28 27 26 26 25 25 25 25 25 24 23 20 18 16 14 16 17 18 19 19 19 19 19 19 19 19 20 17 17
31 28 22 24 25 27 26 25 26 25 25 19 19 21 28 27 27 26 26 26 27 27 27 26 24 22 20 18 17 15 15 16 18 18 19 18 19 18 18 19 19 17 15 15
33 29 26 25 24 27 26 26 26 26 21 22 22 23 27 27 26 27 27 27 27 27 27 27 25 22 20 18 16 15 15 17 18 18 18 18 19 19 19 19 16 13 12 9
33 31 27 24 22 27 26 26 25 24 24 23 23 23 24 27 28 27 27 27 26 26 26 25 25 23 20 19 16 14 13 16 18 18 18 19 20 19 18 15 13 11 10 8
34 32 29 27 26 25 24 24 26 26 26 25 24 23 25 26 27 26 26 26 26 24 21 24 23 23 20 18 16 14 13 15 17 18 19 19 20 19 17 14 11 10 8 8
33 29 29 28 25 25 26 24 24 24 24 25 23 25 23 23 24 26 27 26 26 21 21 25 24 22 22 19 17 16 15 16 19 19 19 19 18 17 13 11 9 7 6 6
31 31 31 18 23 19 21 10 24 25 25 23 21 20 25 25 22 21 22 21 19 19 21 24 27 22 20 21 21 19 19 19 19 19 18 17 15 13 10 8 6 5 5 4
32 30 20 19 20 22 15 8 19 24 21 24 25 25 18 15 13 13 18 18 18 18 20 21 23 24 19 18 18 18 19 20 19 18 17 15 13 10 8 6 4 4 4 3
29 32 30 20 18 17 17 10 8 11 12 15 26 24 17 12 10 11 11 14 16 17 17 16 16 16 13 14 16 18 18 18 18 18 16 13 10 6 5 5 4 4 3 4
22 23 26 21 21 22 23 14 10 15 18 17 19 19 16 13 13 10 9 10 12 15 14 13 14 14 14 15 19 18 17 16 17 15 12 9 8 5 4 2 3 1 0 1
19 20 20 21 18 17 14 10 11 18 16 18 15 16 16 13 10 9 10 11 11 11 12 16 14 14 14 18 18 17 16 16 13 11 8 6 3 5 3 -3 -1 -3 -3 -4
14 22 22 22 21 16 12 18 16 17 19 16 14 14 15 13 7 8 9 12 13 12 13 14 16 15 16 17 18 17 16 12 9 6 3 0 -0 1 -0 -3 -1 -1 -3 -4
13 12 13 15 14 13 13 15 16 15 12 14 14 14 12 9 10 12 13 14 14 17 16 16 15 15 16 15 16 17 11 9 5 1 0 -1 -2 -0 -1 1 1 -1 -2 -2
15 12 13 12 11 12 12 14 15 16 17 15 15 14 13 13 14 14 16 18 18 18 16 15 16 16 16 14 12 8 7 5 2 -0 0 1 -1 -1 1 0 1 0 1 -0
11 10 7 9 8 8 8 13 15 15 15 17 16 15 17 17 16 17 17 18 17 17 15 14 14 13 11 8 6 2 2 2 1 -0 -0 -0 -0 -0 -0 -1 -1 4 9 11

GFSCGP_sfc_dewp_042.txt.gz
Dewpoint
29 25 25 25 24 24 23 22 21 21 22 24 24 23 23 26 26 27 26 25 24 24 25 26 28 30 33 35 37 37 39 40 43 43 42 39 36 33 31 31 34 36 37 39
26 25 27 26 25 22 22 22 22 22 22 24 22 23 24 27 27 27 26 24 24 24 24 25 26 28 30 31 33 35 35 37 38 39 38 34 29 26 25 26 26 27 29 30
25 25 26 23 23 22 22 22 21 22 24 24 24 24 26 27 28 28 26 25 24 24 23 23 23 24 26 27 29 30 32 33 34 33 31 27 24 22 20 20 22 23 23 24
24 26 23 23 21 22 21 23 22 22 22 23 23 23 25 25 27 27 27 24 23 24 23 22 21 21 22 23 25 25 27 27 27 29 29 26 21 17 16 19 22 23 24 22
26 26 27 25 24 23 25 26 23 24 23 24 22 22 23 25 25 26 26 25 24 25 23 20 20 20 18 20 22 21 21 21 22 23 23 21 20 18 16 19 22 23 22 22
30 29 28 27 28 26 27 25 24 24 24 24 25 24 23 23 24 26 27 25 24 24 21 20 19 18 16 18 19 19 17 17 18 18 18 18 19 19 19 20 21 20 19 19
29 28 27 27 27 26 26 26 25 24 24 24 21 22 23 24 25 26 27 25 24 24 21 19 18 16 15 16 18 16 14 14 16 17 17 18 18 19 19 19 19 18 18 17
29 28 27 26 30 27 25 27 27 26 22 21 24 21 21 26 28 28 28 26 25 24 21 20 18 17 15 16 15 14 15 14 15 16 17 18 19 18 18 17 17 17 17 17
28 29 26 24 25 28 25 24 27 23 22 26 20 22 25 28 27 27 27 26 24 24 23 20 18 17 16 17 15 14 13 15 15 16 17 18 19 19 18 18 18 17 17 15
29 28 26 25 26 26 25 26 24 25 26 25 20 21 21 25 26 26 27 26 25 25 24 22 18 16 16 15 15 15 14 15 17 17 18 18 19 19 19 18 18 18 18 16
28 28 27 26 24 24 24 24 24 24 26 28 23 18 22 24 27 26 27 27 25 25 24 23 21 17 15 15 16 14 15 16 17 18 19 20 19 19 19 19 19 18 17 15
32 31 29 24 27 27 25 24 24 24 24 22 23 23 24 26 27 27 27 28 27 26 25 23 24 22 16 13 14 14 15 17 17 19 20 20 20 20 19 18 18 18 14 14
31 33 33 30 26 28 25 25 25 25 31 30 28 25 28 28 27 27 27 27 27 26 25 25 25 25 21 15 13 13 15 16 18 19 20 19 19 19 19 19 17 15 13 11
34 34 33 29 26 26 26 26 26 26 28 27 26 28 26 26 27 27 27 27 27 26 26 25 25 26 25 21 15 11 12 15 17 18 19 19 20 20 19 19 16 13 10 9
32 34 32 30 26 28 28 27 26 24 24 26 26 25 24 25 27 27 27 27 27 26 26 26 26 26 25 24 19 15 12 14 16 17 18 19 21 20 20 18 15 13 11 8
34 34 32 30 27 26 27 28 27 26 25 25 25 25 26 27 28 27 27 27 27 27 27 28 28 29 26 24 22 18 14 16 17 17 19 19 23 22 22 19 15 12 11 10
34 34 32 31 32 28 26 29 27 26 26 25 24 29 30 28 28 29 29 28 28 28 28 27 27 26 27 25 23 21 18 18 22 24 26 26 26 23 20 16 13 11 9 8
34 34 33 29 28 22 27 19 27 26 28 29 29 33 32 29 27 29 31 30 29 28 25 23 25 24 26 25 23 22 22 22 23 25 26 25 23 22 18 14 12 10 8 8
34 34 25 25 25 28 18 14 25 25 26 29 29 27 22 18 18 19 21 24 27 26 25 25 27 27 25 24 24 23 23 23 22 22 23 23 22 21 16 14 11 9 10 9
29 33 32 24 25 24 23 15 12 19 20 28 33 29 23 17 22 23 17 20 19 20 21 21 22 24 25 23 22 23 23 23 22 22 21 22 21 19 16 13 12 12 11 10
25 27 28 25 25 27 31 17 11 22 30 28 32 30 22 21 22 18 17 16 18 19 20 18 18 18 18 18 21 21 22 21 23 24 22 20 18 16 14 12 11 11 9 7
24 25 25 26 25 23 16 10 17 26 19 23 21 21 20 16 10 11 10 10 12 13 15 19 18 16 16 20 22 21 20 21 22 21 19 17 15 13 11 10 9 7 7 6
23 28 27 28 27 17 14 20 19 20 26 18 18 18 18 14 8 9 10 13 13 13 14 16 19 17 15 22 22 22 21 21 19 18 16 14 11 11 10 8 8 7 7 6
16 13 17 24 18 14 15 19 18 16 16 17 17 18 17 15 10 10 12 14 14 21 21 22 21 21 21 21 22 23 20 19 16 16 13 10 8 8 7 7 7 8 8 7
17 15 16 13 10 12 14 17 18 17 16 14 15 15 15 13 14 14 19 22 21 22 22 21 21 21 21 23 21 21 18 15 15 14 11 11 9 7 8 7 7 7 8 8
12 11 10 14 11 12 11 15 17 17 17 18 18 17 18 18 17 18 20 21 21 22 22 20 21 20 21 19 19 15 14 14 14 12 10 9 8 6 5 5 5 10 12 13

GFSCGP_sfc_dewp_045.txt.gz
Dewpoint
31 25 25 25 25 23 24 23 22 23 22 23 23 22 22 25 25 26 27 26 25 25 27 30 33 37 40 40 40 42 43 43 44 44 42 40 36 35 33 32 34 35 36 39
29 26 26 26 27 25 25 24 23 24 22 23 23 24 25 25 26 27 27 26 25 25 25 29 32 35 38 39 40 40 41 43 43 42 39 35 31 29 28 27 28 27 30 28
27 26 27 27 26 25 24 24 23 23 25 24 23 25 26 26 27 27 28 27 25 24 24 27 30 33 35 36 37 37 38 39 38 37 32 29 28 26 24 24 25 26 26 27
27 27 26 26 24 25 24 25 24 23 24 23 26 22 25 27 27 28 28 26 24 25 25 25 26 29 30 31 33 34 34 34 34 34 33 31 25 21 21 22 25 26 27 23
25 26 26 25 25 25 25 26 25 25 26 27 27 24 24 26 26 27 28 27 25 26 25 24 24 24 24 27 28 28 27 26 27 28 28 27 25 23 20 22 26 25 26 25
27 30 27 27 28 26 28 27 26 26 27 26 26 25 25 25 25 26 28 26 25 25 24 22 22 21 21 25 25 24 22 22 23 23 24 23 23 22 23 23 24 23 21 20
28 29 30 29 28 28 27 27 28 26 25 25 24 26 26 27 25 26 27 26 25 25 23 21 20 18 19 22 23 21 19 18 20 22 21 21 20 21 22 22 21 20 19 18
27 27 30 29 30 30 28 29 29 28 26 25 23 23 24 27 27 27 28 27 25 25 23 21 20 19 17 20 19 16 20 16 17 18 19 21 21 20 19 18 18 17 17 17
28 29 30 29 30 32 28 27 30 28 27 25 22 23 25 29 27 27 27 26 25 25 24 22 20 18 16 18 16 16 15 18 16 18 19 19 20 20 19 19 19 18 17 15
31 29 28 27 26 27 28 28 26 26 28 26 23 23 21 27 26 27 27 27 25 25 24 22 20 19 17 17 15 15 15 16 18 18 19 19 20 19 19 19 20 19 17 16
32 31 28 26 25 26 26 26 26 26 28 29 25 21 24 27 27 27 28 27 26 26 25 22 21 20 19 18 16 15 16 18 19 20 21 21 21 20 20 21 20 19 18 16
34 32 33 27 27 27 27 26 26 26 27 25 27 25 21 26 27 27 28 28 27 26 26 22 21 19 19 17 15 14 16 18 20 20 22 21 20 21 21 19 19 22 17 16
33 35 34 33 27 27 25 25 26 26 32 31 29 25 26 27 27 27 28 29 28 27 26 24 22 20 17 17 17 15 15 18 19 20 21 21 21 21 21 20 20 19 17 15
37 36 36 31 29 27 27 26 26 27 28 28 28 28 24 26 26 27 28 29 28 27 26 25 24 24 20 17 14 14 15 17 19 20 21 22 21 21 21 21 20 18 16 14
37 35 36 35 33 31 29 28 27 25 25 26 27 26 26 23 25 26 26 28 28 27 26 25 25 27 25 22 16 14 13 16 18 18 20 21 23 22 22 23 21 19 16 12
36 35 36 34 35 34 32 31 29 27 26 25 25 25 27 26 25 25 26 27 27 27 27 27 26 27 28 26 23 19 14 17 18 18 20 21 23 24 26 24 21 18 16 14
34 34 33 31 34 34 28 32 30 28 27 26 24 27 33 29 27 28 29 28 28 28 28 27 27 27 28 28 26 23 20 18 21 23 25 26 26 26 25 23 20 17 15 13
35 33 34 32 33 26 31 31 29 30 29 30 30 36 35 31 30 33 34 31 30 29 29 29 29 29 31 30 28 26 25 22 23 25 27 27 26 25 24 21 19 17 15 14
36 35 31 29 30 30 28 20 27 29 30 32 32 31 27 26 26 26 30 32 31 31 31 31 30 28 28 28 28 27 26 24 24 24 25 26 25 25 23 20 18 17 16 15
31 34 32 29 28 26 23 21 25 29 27 35 34 31 27 25 30 31 24 25 28 30 29 29 30 29 27 27 27 26 25 24 23 23 23 24 25 24 23 20 19 19 18 17
26 28 27 30 29 31 30 20 20 27 31 34 35 31 25 26 28 25 24 22 24 24 23 24 24 24 26 25 26 25 25 24 24 25 24 24 24 23 22 21 19 18 17 13
26 27 27 30 27 25 18 13 23 27 24 30 33 30 26 24 16 20 19 18 17 16 20 21 21 20 20 24 25 25 24 25 26 26 24 23 22 22 20 18 17 16 14 13
26 30 31 32 30 19 18 22 25 26 32 22 26 27 26 17 10 13 13 12 13 13 15 19 22 19 17 24 24 24 23 24 23 22 21 20 19 19 17 15 14 12 12 11
21 19 27 29 27 24 22 29 21 20 20 20 21 23 21 13 10 12 13 14 14 22 22 24 23 23 23 23 24 24 24 22 20 20 18 17 15 16 14 14 14 14 13 12
19 20 23 19 14 19 29 28 23 21 18 16 17 19 18 17 14 14 20 22 22 23 24 24 23 23 22 24 23 24 21 19 20 20 17 17 15 14 13 12 13 12 14 14
15 14 15 19 16 26 24 24 23 19 17 18 17 17 19 19 18 19 22 22 23 23 24 22 22 22 22 22 21 20 19 18 19 18 17 16 15 13 13 12 11 14 15 14

GFSCGP_sfc_dewp_048.txt.gz
Dewpoint
32 27 26 25 26 25 24 24 24 24 24 24 24 24 24 24 24 24 25 27 27 26 28 31 35 41 41 42 44 44 44 44 44 43 40 37 34 33 32 31 32 32 34 37
31 28 29 29 28 27 25 24 24 25 24 24 24 24 25 25 24 25 26 27 27 26 27 31 35 40 41 40 41 42 43 44 43 40 38 34 31 29 28 28 27 29 29 29
29 29 30 28 28 27 26 25 24 25 25 25 23 24 25 27 27 26 27 28 27 25 26 30 34 37 38 39 40 40 41 40 37 34 30 28 27 27 26 26 26 27 27 28
29 30 28 28 26 27 25 27 26 26 25 22 25 23 26 27 27 27 28 28 26 25 26 29 32 34 35 35 36 37 37 36 34 32 30 28 25 22 24 26 27 27 27 25
28 27 28 28 27 28 26 29 27 27 25 27 25 25 26 28 26 27 28 28 26 25 26 28 30 31 30 32 32 31 30 29 29 30 28 25 23 24 24 26 26 26 26 25
28 31 29 28 29 28 29 28 28 28 27 25 26 26 26 27 26 27 29 28 26 26 25 26 26 25 27 27 27 26 25 25 26 26 25 24 23 24 25 26 25 25 24 24
27 28 31 30 28 29 28 27 27 25 25 25 25 26 26 28 26 27 29 29 26 26 24 23 22 22 24 25 25 24 22 22 24 24 24 24 23 24 24 24 23 22 22 21
25 26 29 30 29 29 28 28 29 22 24 25 23 23 25 29 28 28 29 28 25 25 24 22 21 21 22 24 22 20 22 20 21 22 22 23 24 24 24 22 22 22 21 20
26 27 30 30 30 31 29 27 30 28 21 22 26 25 26 28 28 27 28 27 25 25 23 22 21 19 21 22 18 19 19 20 20 21 22 21 21 21 21 21 21 20 20 18
32 30 30 26 28 29 29 30 27 27 20 21 26 26 24 27 26 27 28 26 25 25 24 22 21 19 19 19 18 18 18 19 21 21 22 21 22 21 21 21 20 18 18 18
33 33 27 27 26 27 27 26 27 27 29 24 23 24 25 26 27 26 27 27 25 25 24 21 21 19 18 18 17 17 18 20 21 22 22 22 22 21 22 22 21 20 19 18
33 34 28 26 27 28 29 28 27 26 25 26 26 25 22 27 28 27 28 27 26 25 24 22 21 19 18 17 16 16 18 20 21 22 23 22 22 22 21 21 20 20 18 18
34 33 29 31 28 28 26 27 28 27 29 26 24 25 27 27 28 27 28 28 26 26 24 22 21 19 18 17 16 15 17 20 21 23 23 22 21 21 20 20 20 20 18 17
37 36 32 29 29 30 26 26 27 28 26 26 26 27 26 26 27 28 29 28 27 26 25 23 21 19 18 17 15 14 16 20 21 22 22 22 21 22 21 21 20 19 18 16
36 33 34 33 33 32 28 28 27 25 26 26 27 27 28 28 26 27 28 29 28 26 25 24 22 21 18 17 16 14 15 19 19 21 22 22 23 22 22 22 21 19 17 15
37 34 35 33 34 35 34 34 28 27 26 26 27 26 29 29 26 26 27 28 28 27 26 25 24 23 20 17 16 15 14 19 20 19 21 23 23 23 24 23 21 19 17 15
36 35 32 31 33 34 32 35 35 33 27 26 25 27 29 27 24 26 27 28 28 28 27 26 25 25 25 20 16 16 16 19 21 22 23 24 24 24 24 22 20 18 17 16
34 34 34 31 33 26 30 33 35 35 35 32 29 30 32 30 28 29 29 28 29 28 28 28 27 26 28 27 24 21 21 21 22 23 24 25 24 24 23 21 19 18 17 15
37 34 32 30 31 30 31 24 27 29 30 34 34 32 29 28 28 28 32 31 31 31 31 30 30 29 30 28 27 26 24 23 22 23 24 24 24 24 23 21 19 18 16 15
32 36 33 29 28 26 23 20 25 30 26 32 34 33 28 28 27 30 28 30 32 32 32 31 31 31 30 29 28 27 25 23 22 23 24 24 25 25 23 21 19 17 15 15
26 29 28 30 29 30 25 20 23 24 25 27 29 29 27 29 30 31 27 27 30 29 29 29 28 28 28 27 27 26 25 23 24 24 24 24 24 23 22 20 17 16 14 16
27 26 26 29 28 25 19 17 25 26 23 29 29 27 25 21 21 24 23 23 23 23 25 25 24 24 25 26 26 25 24 24 23 23 22 22 23 23 21 18 13 13 14 10
27 30 29 29 30 20 20 22 25 25 27 23 28 28 24 17 15 18 19 17 17 18 20 20 20 19 20 24 25 23 23 23 21 21 21 18 18 18 17 15 12 11 10 10
23 21 29 29 28 25 24 31 23 21 18 18 20 26 22 15 14 14 14 14 14 19 20 21 21 20 19 19 22 20 21 21 20 18 17 15 15 13 11 14 13 12 10 9
21 24 25 21 20 26 28 30 31 25 17 15 18 20 18 14 13 15 18 18 19 21 22 20 20 20 19 19 18 17 18 17 16 15 14 13 11 12 9 10 11 12 9 11
17 19 22 24 22 27 28 30 31 29 20 16 15 17 19 16 15 18 19 20 20 20 20 19 18 18 16 17 15 13 12 14 14 13 13 12 11 9 9 8 6 16 16 16

GFSCGP_sfc_dewp_051.txt.gz
Dewpoint
31 26 25 25 24 24 24 23 23 24 24 23 24 24 24 24 24 24 26 27 27 27 29 32 38 41 43 44 45 45 44 43 42 41 38 36 33 31 29 29 30 32 33 34
29 27 28 28 27 26 25 24 23 25 24 23 23 23 25 25 24 24 24 26 27 26 29 33 37 40 41 43 45 45 44 44 43 40 35 32 28 27 27 27 27 29 30 29
29 29 31 30 28 27 26 25 24 24 25 24 23 23 24 25 25 24 25 25 27 26 28 32 36 40 40 41 43 44 44 42 35 32 29 27 26 25 23 25 26 28 29 29
29 30 28 29 27 27 25 27 26 26 25 22 24 21 25 26 26 26 25 27 27 26 28 32 35 38 39 40 41 40 39 34 31 30 28 26 24 22 24 26 26 26 27 26
28 28 29 28 27 28 26 28 26 27 25 26 25 23 24 26 25 26 27 27 27 26 28 32 35 37 36 35 36 36 35 33 32 30 28 25 24 24 24 24 24 24 25 25
28 30 29 28 29 28 29 27 28 28 27 24 24 24 24 26 27 27 28 28 26 26 28 31 33 32 31 31 30 29 28 28 29 27 25 23 23 23 23 23 23 23 23 22
27 28 30 29 27 29 28 26 24 24 23 24 26 25 25 28 27 28 28 28 25 26 27 29 29 29 28 27 27 26 26 25 26 25 23 23 22 22 21 22 21 21 20 20
25 24 29 30 28 26 27 27 26 20 23 24 24 24 26 29 29 28 29 29 26 25 26 27 27 27 25 25 24 22 24 24 24 24 23 23 24 24 22 21 21 20 20 19
25 25 30 29 30 27 27 26 29 27 18 21 26 26 27 28 27 28 29 28 25 25 25 24 23 24 24 24 22 22 22 23 22 23 23 23 24 23 22 22 21 20 20 18
28 29 29 27 30 29 29 29 26 27 18 18 25 25 26 25 26 27 28 27 25 25 23 23 21 22 23 23 20 20 20 21 22 22 22 22 22 22 21 20 20 19 19 19
30 33 27 27 27 28 27 27 28 28 27 22 20 22 28 28 27 27 28 27 25 25 23 22 21 20 22 20 18 19 20 21 21 22 22 22 22 21 21 20 19 18 19 18
30 34 26 26 27 28 29 28 28 26 23 26 25 25 24 26 28 27 27 28 26 26 24 22 21 19 20 18 17 17 19 20 21 22 22 22 21 21 21 19 19 20 18 18
34 33 28 28 28 27 26 28 28 28 28 26 23 25 26 26 28 27 28 28 26 26 24 22 21 18 18 17 16 16 18 20 22 22 22 21 21 21 20 20 19 19 18 17
36 34 30 26 28 29 25 27 28 29 27 26 26 27 25 24 26 27 28 28 26 26 24 22 21 19 18 17 16 15 18 20 21 22 21 21 21 21 20 20 20 19 18 16
35 32 32 32 32 30 28 26 27 27 28 26 27 27 27 28 26 26 28 28 26 25 25 22 21 20 18 17 16 15 17 20 21 21 21 21 22 22 21 21 21 20 18 16
36 32 33 32 33 34 32 31 27 27 28 28 27 27 29 30 30 27 28 28 27 26 25 24 23 21 19 18 16 15 16 20 21 21 21 22 22 23 23 22 22 20 18 17
36 34 33 31 32 33 31 34 34 34 29 27 26 28 29 30 28 28 28 29 28 28 26 26 23 22 20 19 17 16 17 21 22 23 24 24 24 23 23 23 21 19 17 16
35 36 34 32 32 26 31 35 36 35 36 33 29 30 31 30 30 29 30 29 29 29 28 27 25 23 23 21 20 19 20 22 23 23 24 24 24 23 24 22 21 19 17 15
38 36 33 31 30 30 31 27 33 34 33 36 35 34 33 31 30 28 30 29 30 30 29 29 28 26 26 21 20 20 21 21 22 22 24 24 24 25 24 23 22 19 18 17
35 38 34 31 29 27 26 24 25 31 29 34 37 36 37 29 28 31 30 30 30 31 31 30 30 29 28 25 23 21 20 21 21 22 23 24 26 26 25 23 22 20 19 18
29 31 30 31 30 30 27 22 23 26 26 25 28 31 30 30 32 32 31 31 31 31 31 31 30 29 29 28 26 23 23 21 22 24 24 25 25 25 24 24 21 18 18 17
28 27 27 30 28 26 27 21 27 27 24 28 28 27 27 24 25 26 27 27 28 29 29 28 28 28 27 28 28 26 24 24 23 23 23 24 24 24 23 21 18 17 16 14
28 29 28 30 29 23 21 24 24 26 27 24 28 27 23 20 21 21 23 24 25 25 25 25 26 25 26 25 26 25 23 23 22 21 22 21 20 22 21 20 16 13 13 15
26 25 32 31 31 25 21 29 25 21 18 18 23 27 19 16 19 19 18 19 20 22 21 21 22 21 20 19 21 19 20 20 19 17 15 14 17 13 10 14 15 15 13 13
29 30 28 27 21 26 28 28 29 25 16 17 18 22 20 17 16 17 19 19 20 20 19 19 18 17 16 16 15 13 15 16 15 13 14 14 11 11 10 11 10 12 9 13
19 24 27 27 27 29 28 27 29 31 19 17 16 18 18 17 17 19 19 19 19 18 18 16 15 16 13 13 10 7 7 12 15 13 13 12 11 9 9 9 7 17 17 17

GFSCGP_sfc_dewp_054.txt.gz
Dewpoint
29 25 24 25 22 24 23 23 23 24 25 23 23 23 23 24 25 25 25 26 27 28 28 32 40 42 44 44 44 45 44 43 43 41 39 38 33 32 32 33 34 35 35 34
28 25 26 27 27 24 24 23 23 24 26 24 23 23 24 25 24 24 25 25 26 27 28 32 39 41 43 44 44 45 44 42 43 42 35 32 30 28 29 29 30 30 30 29
28 27 30 28 28 25 25 24 24 24 25 24 24 23 23 25 26 25 25 25 26 27 28 31 39 40 41 43 44 45 44 43 39 32 29 27 26 25 25 26 28 29 29 29
29 30 29 29 27 27 25 27 26 25 25 22 26 20 24 25 25 26 25 25 25 27 28 31 37 40 41 42 44 45 45 37 32 31 30 28 26 24 24 25 27 27 28 26
27 29 29 28 28 28 27 28 27 26 25 24 25 23 23 26 25 26 27 28 25 27 28 31 35 40 40 42 44 41 37 33 31 31 30 28 25 24 24 25 25 25 25 25
27 30 30 29 29 29 29 27 28 28 26 23 23 23 22 24 25 26 27 28 27 27 28 30 35 40 38 38 38 37 34 32 31 30 27 25 23 23 22 23 23 23 23 23
27 27 28 28 27 29 27 25 23 23 22 22 26 23 22 26 28 28 28 29 28 27 28 31 36 37 35 34 34 35 33 31 30 27 25 24 22 20 20 21 21 20 20 20
24 22 28 29 27 27 27 26 24 17 20 22 25 24 25 28 29 30 29 29 27 26 28 31 34 36 34 32 31 32 31 28 26 25 24 23 21 21 20 20 19 18 18 18
24 24 29 29 29 27 26 25 27 25 16 21 25 26 28 29 27 28 28 29 25 26 28 30 33 33 31 29 28 28 27 27 25 24 23 22 23 22 21 21 21 19 19 18
27 24 28 27 29 29 26 28 25 26 17 17 24 25 25 27 26 27 27 28 26 25 27 28 29 29 29 28 25 25 26 24 24 24 23 22 23 22 21 20 19 18 18 18
29 29 27 27 28 27 27 27 27 27 26 20 18 22 28 28 28 27 28 28 27 25 25 25 26 26 26 25 22 22 23 23 23 23 23 23 23 22 21 19 19 18 18 18
30 31 26 26 28 29 30 27 28 25 23 26 25 24 25 28 28 28 28 28 27 26 24 24 23 23 24 21 20 21 21 22 23 23 23 22 22 21 20 18 18 19 17 18
31 30 24 27 29 29 27 28 28 29 28 25 23 25 26 27 30 28 28 28 27 26 23 23 22 21 22 21 20 19 20 21 22 22 22 21 21 20 19 18 17 18 17 17
34 33 28 25 27 28 26 27 29 28 27 26 26 26 28 27 26 26 27 28 27 26 24 22 22 20 21 21 19 17 19 21 22 22 21 21 21 20 19 18 18 18 17 16
34 33 31 30 29 28 28 27 28 28 28 27 27 27 28 28 26 26 27 28 26 26 24 22 22 21 20 20 18 17 18 20 21 21 21 20 21 21 20 20 19 19 18 16
35 33 34 31 31 30 29 28 28 29 29 28 28 28 30 29 30 27 27 28 27 26 25 24 23 22 20 19 18 16 17 20 21 20 21 21 22 22 23 22 21 19 18 17
35 35 33 31 32 32 30 32 30 28 28 28 27 29 31 30 30 30 29 28 28 27 27 26 23 22 21 19 18 17 17 21 22 23 24 24 24 23 23 22 21 19 18 17
35 37 36 33 32 26 32 34 34 33 32 30 29 31 32 32 31 32 31 30 29 29 28 27 26 23 23 21 20 18 20 22 23 24 25 25 24 24 23 23 21 20 19 18
40 36 32 31 31 31 31 29 32 33 33 35 35 34 35 34 30 31 30 30 30 31 31 29 28 25 24 22 20 20 21 23 22 23 24 25 25 25 24 24 22 21 21 20
39 40 33 31 29 27 28 27 31 34 30 34 36 36 36 34 32 35 35 30 30 31 31 30 28 26 23 22 22 21 21 22 22 22 24 25 26 27 26 24 24 26 24 22
31 34 31 31 31 31 28 23 28 30 28 24 27 30 31 33 35 31 30 30 30 30 30 30 28 26 24 23 23 22 22 22 23 26 27 26 26 27 26 26 27 26 23 20
30 29 29 31 29 27 28 22 29 29 24 27 27 27 30 27 27 28 28 29 29 30 30 29 29 29 28 25 24 24 24 26 27 26 25 26 27 27 27 27 26 22 21 18
29 32 28 31 31 27 25 26 26 26 28 26 28 27 25 24 25 24 26 27 27 28 27 28 27 27 27 26 26 24 23 23 23 23 24 24 25 24 24 23 19 15 16 17
28 27 30 31 31 28 23 25 26 22 19 18 27 25 21 19 22 23 23 24 24 23 23 23 25 24 22 20 22 22 22 22 22 21 19 18 20 17 16 18 18 17 16 16
28 30 29 30 30 27 31 28 31 19 18 17 20 24 20 20 19 21 22 22 22 21 21 22 23 22 19 19 17 15 18 19 18 15 15 15 15 15 13 13 15 17 11 15
26 28 30 29 30 33 32 32 30 24 19 18 19 19 19 20 19 21 20 21 20 19 17 17 16 18 15 16 14 13 11 17 17 15 14 13 14 12 12 11 7 18 17 19

GFSCGP_sfc_dewp_057.txt.gz
Dewpoint
28 24 23 25 22 22 21 22 22 24 25 23 23 23 23 24 26 26 26 26 27 28 29 30 33 41 43 44 44 45 46 45 44 44 43 42 38 37 37 37 38 39 37 35
27 24 26 27 26 23 23 23 22 24 25 24 24 23 24 24 24 25 25 26 26 27 28 29 34 41 42 44 44 44 45 44 43 44 37 34 33 30 31 33 33 33 32 31
27 26 30 27 26 25 24 23 23 23 25 24 23 23 23 24 25 25 25 25 26 26 27 28 33 40 42 43 44 45 44 44 44 34 31 29 29 29 29 30 30 30 30 30
28 30 29 28 26 26 24 26 25 25 25 23 26 19 22 24 25 25 26 25 25 26 27 28 31 39 42 43 44 45 44 43 34 33 33 33 34 32 28 28 28 28 28 26
25 29 28 28 27 28 26 28 27 27 25 24 24 22 25 25 24 25 26 27 26 26 27 28 31 36 41 44 44 45 44 36 33 33 34 34 33 27 26 26 26 25 26 25
26 30 30 28 29 29 29 26 27 28 25 22 22 23 19 23 24 25 26 26 28 27 28 28 31 37 41 42 44 45 42 36 33 33 32 29 26 25 25 24 24 23 23 23
27 27 28 29 27 29 27 25 22 20 21 21 25 23 20 23 25 26 25 27 29 28 27 29 33 39 40 41 44 43 39 33 33 32 30 27 25 24 22 22 21 20 20 21
21 17 27 29 26 27 27 26 23 14 18 18 25 24 25 28 27 28 29 30 30 27 28 30 33 38 39 40 42 40 38 32 31 30 28 27 25 23 21 20 19 18 18 18
23 23 28 29 28 26 26 25 26 23 14 20 20 23 26 29 29 29 29 29 27 27 28 30 34 37 38 39 39 39 35 32 30 29 27 25 23 22 20 20 19 18 18 18
25 22 28 29 30 30 26 28 25 25 15 15 20 23 22 26 27 28 28 28 28 27 27 30 34 36 36 36 34 33 32 30 29 27 26 23 22 21 20 19 19 18 17 17
28 27 26 28 27 26 27 26 26 26 25 18 17 20 27 27 27 27 28 28 29 27 27 29 32 33 33 32 29 28 29 29 27 26 25 24 22 21 20 19 19 17 17 17
30 30 25 26 29 29 29 26 26 23 21 25 24 21 29 29 29 28 28 28 29 27 26 27 29 29 28 28 27 26 26 27 27 26 25 23 22 21 20 18 17 18 16 17
31 30 22 25 28 28 26 28 27 28 28 23 22 22 26 27 27 28 28 31 28 27 25 25 25 26 27 26 26 25 25 26 25 25 24 23 22 20 19 18 17 17 16 16
35 34 27 25 25 27 26 27 28 27 26 24 25 25 27 28 26 26 27 28 28 27 24 24 24 24 26 25 25 24 23 24 24 24 23 22 21 20 18 18 17 17 17 16
36 33 33 31 28 28 27 27 28 27 26 25 25 26 27 28 27 27 28 27 28 27 25 23 23 23 24 25 23 23 22 23 23 22 22 22 22 21 20 19 19 19 18 16
39 33 33 31 32 31 29 28 28 28 28 27 27 27 29 32 31 29 28 28 28 27 26 25 24 23 22 23 23 22 21 22 23 22 22 22 22 22 22 21 20 19 18 18
36 35 34 31 32 33 30 31 30 29 29 28 27 29 31 30 30 31 31 29 28 28 28 27 25 24 23 22 22 21 21 22 23 23 24 24 24 23 23 22 20 19 18 17
35 35 35 32 32 26 32 33 33 31 30 30 30 31 32 32 32 33 33 31 30 30 29 28 27 24 24 23 23 21 22 23 24 24 25 24 24 24 23 22 20 20 19 18
41 36 34 31 30 31 32 32 32 32 32 33 30 30 31 31 31 32 32 32 32 32 31 31 29 27 25 23 22 21 22 23 23 23 24 24 24 24 23 23 23 23 22 22
38 40 34 31 29 26 29 29 33 35 31 34 35 35 34 34 32 34 35 33 32 32 32 31 30 26 25 23 22 21 21 22 22 23 24 24 25 26 26 25 25 25 24 24
30 33 32 31 30 32 29 23 31 30 28 26 33 36 34 34 35 31 31 30 30 30 29 29 27 25 24 23 22 21 22 22 23 25 25 26 26 27 27 27 27 27 26 25
29 30 31 32 30 28 26 27 31 30 25 27 27 28 30 31 29 28 29 28 29 29 28 28 26 24 23 24 23 22 22 24 26 27 27 27 28 29 29 29 29 28 27 26
28 31 28 31 31 35 28 30 28 26 29 27 28 28 28 27 27 26 27 27 28 28 28 28 27 26 24 24 25 24 27 28 29 29 30 31 31 31 31 30 28 27 26 25
28 29 30 30 31 31 26 24 26 23 22 20 27 27 23 22 25 25 25 26 25 23 23 22 25 23 22 22 23 23 24 25 28 27 25 25 26 25 26 27 24 23 21 21
26 28 27 28 30 29 29 27 27 24 21 18 22 24 21 22 22 24 23 22 22 21 21 22 24 23 20 20 19 18 20 22 21 20 18 18 19 20 17 18 19 20 18 21
28 28 30 27 28 31 31 31 29 22 19 19 18 20 20 21 21 23 23 22 21 21 19 21 20 20 16 16 14 12 12 16 17 15 15 16 17 16 17 16 14 20 19 21

GFSCGP_sfc_dewp_060.txt.gz
Dewpoint
28 23 22 23 22 21 20 22 24 22 25 23 23 23 23 24 25 25 26 26 26 27 29 29 30 33 40 42 44 45 47 47 46 46 46 45 42 41 41 42 43 44 44 44
25 23 24 26 24 23 23 24 22 23 25 23 24 24 25 25 24 25 25 26 26 27 27 29 30 34 40 42 44 44 48 45 47 48 42 39 37 34 36 37 36 37 38 39
25 24 28 26 26 24 23 22 22 22 25 26 24 23 23 24 25 25 26 26 26 26 26 28 29 32 39 42 44 45 47 45 46 39 33 33 33 33 34 33 34 33 34 34
27 28 27 26 25 25 23 25 24 24 24 21 24 18 21 22 23 25 25 26 26 26 26 27 28 32 38 41 44 45 46 46 44 35 36 39 40 38 34 32 31 30 31 29
23 28 28 26 26 26 24 28 26 27 25 24 23 22 22 27 23 24 25 26 26 27 27 27 28 30 35 40 44 45 44 45 38 37 38 39 39 31 30 29 28 28 28 26
26 30 29 28 29 28 29 26 27 28 25 22 22 21 17 22 22 23 24 25 26 27 27 27 29 31 37 42 44 45 44 40 36 37 37 38 31 30 30 27 27 26 25 24
27 27 29 29 27 28 27 25 20 17 20 18 23 22 19 21 24 24 24 24 28 29 27 28 29 34 38 41 43 45 45 39 36 36 36 33 32 31 30 26 25 22 22 21
20 15 27 28 25 26 27 25 21 10 14 15 25 22 23 27 26 25 26 27 30 29 28 28 30 35 38 40 43 45 45 39 35 35 32 31 30 30 30 26 22 20 19 18
20 19 28 28 28 25 26 25 25 19 13 18 15 18 22 27 28 29 29 29 29 29 29 28 31 36 38 39 42 44 42 38 35 34 30 29 28 27 26 23 20 19 18 18
23 20 28 29 29 29 26 27 23 24 14 13 17 19 19 21 25 26 27 28 29 29 28 28 32 35 37 39 42 42 41 36 34 33 31 29 27 26 23 21 19 19 18 17
26 25 25 28 27 26 26 26 25 25 23 16 14 15 25 22 23 25 27 28 29 29 28 28 32 35 36 37 37 38 38 35 32 31 30 28 26 24 22 21 19 18 17 18
29 29 24 25 28 28 27 26 26 22 19 23 22 19 27 28 28 28 27 29 31 29 28 28 31 33 33 34 33 33 35 34 32 30 28 27 25 23 22 19 18 19 17 18
30 30 21 26 27 27 26 28 26 27 26 21 20 19 26 27 29 30 28 29 28 28 27 27 29 31 32 32 32 32 31 32 30 28 27 26 24 23 21 19 18 17 17 17
37 35 31 26 25 27 26 27 27 26 25 23 23 22 24 28 26 27 27 28 28 28 27 26 26 28 29 31 31 30 30 30 28 27 27 26 24 22 20 19 18 16 16 16
38 33 34 31 30 28 27 27 28 26 25 24 23 23 24 25 27 27 28 28 28 28 27 25 25 26 27 28 29 29 29 27 27 27 26 26 25 22 20 19 18 17 17 15
38 33 34 32 33 33 30 28 28 28 27 26 25 25 27 28 29 29 28 29 29 28 28 27 26 25 25 26 27 27 27 27 27 26 26 25 24 23 22 21 20 18 17 17
36 35 33 31 31 31 29 31 31 28 28 27 26 27 29 29 29 30 31 30 29 29 29 28 27 26 25 25 26 26 26 26 26 26 26 25 25 24 22 21 20 18 17 17
35 35 34 31 30 25 31 33 34 32 31 30 29 30 31 32 32 33 33 33 32 31 30 29 29 27 27 26 26 26 26 25 26 26 26 25 24 24 23 21 20 18 18 17
37 35 33 31 29 30 30 31 31 32 31 33 32 32 32 32 30 31 32 33 33 33 33 33 32 29 27 25 25 25 24 24 25 25 25 25 25 25 23 22 20 20 20 19
36 37 32 31 29 25 28 26 32 34 30 33 35 34 33 33 30 32 34 32 34 33 33 32 32 29 27 25 25 23 23 24 24 24 25 25 26 26 24 23 23 24 24 24
30 31 29 31 30 32 29 25 31 30 28 26 30 34 33 33 35 32 30 30 30 30 30 29 28 27 25 24 23 23 22 23 24 25 25 25 26 26 26 26 26 26 26 25
30 30 30 32 29 28 28 28 30 31 26 27 27 29 30 31 32 29 28 29 29 28 27 27 25 24 23 24 23 22 22 24 24 25 25 26 27 27 28 28 27 27 26 25
26 29 29 32 30 33 29 29 31 27 29 27 28 29 28 28 27 27 28 27 27 27 27 26 24 23 23 22 23 22 23 24 24 25 26 28 29 29 29 28 27 27 27 27
30 29 29 29 31 33 31 27 25 24 25 22 26 27 26 26 26 26 26 27 26 23 23 23 23 22 21 21 23 24 26 28 29 28 28 29 29 29 30 30 29 29 28 27
29 30 29 29 30 30 30 28 26 25 21 19 22 24 23 22 24 26 25 24 23 22 21 22 24 22 20 20 20 21 23 27 27 26 25 27 27 28 26 24 26 26 22 26
29 27 28 27 30 30 30 28 29 26 24 21 20 21 20 22 23 24 23 23 23 23 22 23 21 20 18 17 16 16 18 21 21 20 20 20 20 19 19 18 16 21 21 24

GFSCGP_sfc_dewp_063.txt.gz
Dewpoint
28 23 22 22 23 20 20 19 18 21 24 25 24 24 24 25 25 25 25 26 26 27 28 31 32 33 35 40 43 45 48 50 50 49 49 49 48 46 46 48 49 51 51 51
25 22 24 25 24 23 23 22 22 23 25 25 24 24 25 26 25 26 25 25 26 26 27 30 31 32 34 37 42 45 48 49 49 50 48 46 43 40 41 42 43 46 47 48
23 23 27 25 25 23 23 22 21 21 24 25 24 24 24 25 26 26 26 26 26 26 27 28 30 31 34 38 42 44 47 48 49 48 39 37 37 39 37 37 39 39 44 44
26 27 26 26 24 24 22 24 24 24 24 19 24 16 23 22 22 25 26 26 26 27 28 28 29 30 33 37 41 44 47 47 48 41 44 43 45 43 39 39 37 35 38 38
22 28 27 26 25 25 23 27 25 25 24 24 24 22 20 24 22 23 23 26 26 28 28 28 28 30 31 36 42 44 47 47 45 42 44 45 44 41 37 35 34 33 33 34
25 31 29 27 28 27 29 27 27 27 24 21 21 19 10 20 21 21 23 24 26 27 29 29 29 31 33 38 42 44 46 47 42 41 43 44 43 35 35 34 33 31 30 29
27 27 29 29 27 28 27 24 18 16 21 19 23 20 12 21 22 22 21 21 25 27 29 29 29 30 35 39 42 44 45 46 41 42 41 43 38 37 37 35 33 29 27 26
19 16 27 29 25 26 26 23 19 10 12 12 24 21 20 25 26 26 24 25 28 29 30 30 30 31 36 39 42 43 44 44 41 41 41 40 37 37 37 35 32 30 29 26
19 19 27 28 27 25 26 25 22 17 13 18 15 17 19 25 24 26 28 29 29 29 30 30 30 32 36 39 41 43 43 44 40 40 40 36 35 36 35 32 30 26 25 20
21 19 27 28 28 28 24 27 23 23 13 12 14 16 14 19 22 24 25 27 29 30 30 30 30 32 36 39 41 43 44 44 39 39 36 34 33 33 32 29 26 23 21 19
25 24 24 27 26 25 25 25 25 24 22 15 13 14 20 20 21 21 24 27 29 30 30 30 30 32 36 38 40 43 43 41 38 36 35 33 31 30 29 27 24 22 20 19
29 27 22 24 28 28 27 24 25 21 19 22 21 17 23 24 28 29 28 28 29 30 30 29 30 33 35 37 38 41 41 38 36 35 34 32 29 27 26 26 22 21 19 19
30 29 19 24 26 27 26 26 26 26 26 21 20 18 26 26 25 27 28 29 29 29 28 28 29 32 33 35 36 37 39 37 35 34 33 31 29 27 26 25 22 21 19 18
35 32 28 25 23 27 26 26 26 25 24 22 22 21 21 25 25 26 27 28 28 29 28 28 28 29 32 33 34 35 35 36 34 32 32 31 29 28 27 24 21 20 18 17
36 33 34 31 31 28 28 27 27 25 25 23 22 22 23 24 25 25 26 28 28 28 28 28 27 28 29 31 32 33 34 33 32 32 31 31 29 28 26 24 22 21 19 17
38 34 35 33 34 34 32 29 28 27 26 25 25 24 26 26 26 26 26 27 27 28 29 29 29 28 27 28 30 31 32 32 31 31 31 30 28 27 26 24 22 20 18 18
35 35 33 30 33 33 30 33 33 31 28 27 25 27 29 29 28 29 30 30 30 30 31 31 30 29 28 28 28 30 31 31 30 31 31 29 28 27 26 24 22 19 18 17
33 32 32 31 30 24 31 32 34 33 32 30 30 31 32 32 32 32 32 32 32 32 32 32 32 30 30 29 28 29 30 29 30 30 30 29 27 26 25 23 21 20 18 17
37 32 30 29 30 31 31 30 30 31 31 33 32 32 32 32 32 32 33 33 33 34 35 35 34 33 30 28 28 28 28 28 28 29 28 28 27 26 24 24 22 20 20 19
36 36 32 30 26 23 27 29 32 34 30 33 34 33 33 33 31 33 34 33 34 33 33 32 33 32 30 28 27 27 26 26 26 27 27 26 26 26 24 24 23 23 23 22
28 31 29 30 28 31 35 29 32 30 28 26 30 34 32 32 34 34 31 32 31 30 30 30 29 29 28 26 26 25 25 25 26 26 26 26 26 25 25 25 24 24 25 25
29 28 28 30 28 24 35 30 33 34 29 29 29 30 31 33 33 33 30 29 29 29 28 27 25 24 23 25 25 24 23 25 25 25 25 24 25 26 26 25 26 26 26 25
22 27 24 32 31 35 32 34 33 29 29 28 28 28 28 28 28 28 28 28 28 27 27 24 23 22 22 22 23 23 23 24 24 24 24 25 26 26 27 27 26 26 26 25
29 28 28 27 27 30 32 33 29 30 29 25 24 27 27 26 24 27 27 27 26 23 24 21 21 20 20 21 22 22 23 23 24 25 26 27 27 28 28 28 27 27 27 26
25 29 25 28 32 30 33 32 31 31 27 22 20 25 23 22 24 26 25 24 24 24 23 24 23 21 19 21 21 23 24 29 29 28 28 28 29 29 28 28 28 28 28 28
26 27 28 28 28 30 31 30 30 30 28 24 20 21 20 22 23 24 23 23 24 24 23 22 20 19 17 17 16 18 23 26 26 25 26 26 26 26 24 23 21 26 27 30

GFSCGP_sfc_dewp_066.txt.gz
Dewpoint
29 24 22 19 23 19 19 19 16 18 23 25 23 22 21 23 25 25 25 25 26 27 28 29 32 34 38 41 41 41 43 46 49 50 51 51 53 54 53 54 55 57 58 57
25 21 23 26 25 23 22 20 19 21 24 25 23 23 23 23 25 24 23 23 24 26 28 29 31 34 36 37 40 41 43 45 49 49 50 51 53 52 52 50 50 52 54 55
19 20 26 25 24 23 22 21 19 18 24 26 25 20 22 23 26 26 26 25 25 25 25 26 30 32 35 36 39 40 42 45 48 49 50 49 48 47 44 45 47 48 50 51
24 26 26 25 22 23 19 23 23 23 22 15 24 7 13 15 18 23 25 25 24 26 28 28 29 32 34 37 39 40 42 44 47 49 49 48 49 50 48 46 46 43 46 47
20 27 26 25 23 25 22 27 25 25 24 26 18 19 12 21 17 19 22 26 26 28 29 29 30 32 33 37 39 41 41 44 47 49 48 49 50 51 47 46 43 41 41 42
27 30 28 26 28 26 29 28 28 27 25 19 13 18 8 7 14 18 21 22 25 26 29 30 31 32 33 37 39 41 41 43 46 48 48 49 49 48 44 44 44 40 39 38
27 27 30 30 28 29 28 24 17 20 23 18 21 20 13 17 19 20 19 19 24 27 28 30 31 32 33 36 39 41 42 42 45 47 47 48 49 48 46 43 43 39 39 37
17 16 27 29 25 25 28 23 17 24 16 9 25 18 13 24 24 25 24 25 27 28 30 32 33 34 34 37 39 41 42 42 44 45 46 47 48 47 47 45 45 42 41 42
17 18 28 29 27 25 26 24 22 21 23 20 12 15 19 26 21 22 25 26 29 30 31 32 33 33 34 37 39 41 41 43 44 44 45 46 46 45 44 43 45 44 42 38
21 18 27 28 28 28 25 25 22 22 25 20 11 15 13 20 20 21 24 26 28 30 32 33 33 33 34 36 39 41 42 42 44 43 44 44 44 44 44 40 39 38 36 29
25 24 24 28 26 23 24 23 24 22 23 22 16 9 13 17 21 21 24 27 30 32 32 32 32 32 34 37 39 41 42 42 43 43 44 43 42 41 40 37 35 32 29 25
29 29 25 21 27 28 26 22 22 20 24 23 21 18 20 23 27 29 30 29 30 31 31 31 32 32 34 36 38 40 42 42 43 42 43 42 41 39 37 35 33 30 26 24
30 31 31 29 28 28 26 26 25 24 28 30 25 20 24 26 25 27 29 31 30 31 30 31 30 31 33 35 37 39 41 42 43 41 41 40 39 38 37 35 31 29 25 23
37 35 33 28 25 26 27 26 27 25 26 24 24 22 21 24 25 26 27 29 30 30 30 31 31 31 32 34 34 36 39 41 41 40 39 40 39 36 34 32 29 28 25 22
36 33 35 34 33 30 29 28 27 26 25 24 23 23 23 23 24 24 25 25 27 28 29 30 31 32 32 32 33 35 36 39 40 39 39 38 38 35 33 31 28 27 25 21
35 33 34 33 33 33 30 29 29 28 27 25 25 24 25 25 26 26 27 27 28 28 29 30 33 32 32 31 31 33 34 37 38 38 38 38 36 34 33 30 27 25 24 22
34 33 33 30 33 33 31 34 32 30 29 29 27 29 31 30 30 30 30 30 29 30 30 31 33 34 35 34 32 32 33 35 37 37 38 37 35 33 32 29 26 24 23 22
34 33 32 28 31 23 34 34 33 33 34 34 32 32 33 33 33 34 34 34 33 33 33 34 35 35 37 35 34 32 35 35 35 36 37 35 33 33 31 28 26 25 23 21
36 34 29 26 27 29 27 29 32 32 33 35 35 35 35 35 34 33 34 35 34 35 36 38 38 37 36 34 33 33 33 34 33 33 35 34 33 32 30 29 27 25 23 23
33 34 30 30 25 23 22 27 32 33 31 34 35 35 36 36 32 33 36 37 36 35 34 33 33 33 34 34 31 31 31 31 31 31 33 32 32 31 30 29 28 28 26 24
29 29 28 27 25 30 35 33 34 31 35 35 36 37 37 36 36 38 34 34 33 32 32 31 30 29 28 28 30 29 29 29 31 32 31 31 31 30 30 30 29 28 26 24
26 28 29 30 26 25 36 32 34 36 36 38 34 33 33 34 35 35 32 32 31 30 30 28 27 25 24 27 29 27 27 28 30 30 29 29 30 30 30 28 28 27 26 25
23 25 24 27 24 30 35 34 35 33 32 32 33 34 29 30 29 29 29 29 29 27 27 25 26 24 23 26 28 27 26 27 28 28 27 28 29 29 29 28 28 27 27 25
23 22 25 25 22 31 34 34 34 32 31 31 31 28 29 28 28 26 28 28 27 27 26 25 25 24 24 25 25 26 26 27 27 27 28 28 28 29 30 29 28 28 27 27
24 31 31 31 31 32 34 35 34 35 35 35 32 26 26 24 25 26 27 26 26 26 25 25 24 23 22 24 25 27 29 29 30 29 29 29 29 30 29 29 29 28 30 30
23 22 21 20 22 28 25 32 32 33 33 32 29 25 24 24 25 26 25 25 26 25 24 22 20 19 19 20 20 22 28 30 29 28 29 30 29 29 28 27 28 30 30 33

GFSCGP_sfc_dewp_069.txt.gz
Dewpoint
28 19 17 16 15 14 16 14 13 12 22 23 19 17 16 17 18 18 19 20 21 21 23 29 30 34 42 46 50 52 53 53 54 54 54 54 54 57 59 60 61 62 61 61
26 21 19 21 23 22 20 17 14 15 23 24 19 17 18 19 20 20 19 19 18 19 21 26 30 34 37 41 46 47 47 48 49 50 50 50 50 51 53 56 57 58 59 59
20 17 21 24 23 21 18 17 14 14 22 23 24 20 17 17 20 22 21 22 21 21 20 21 30 33 38 39 42 44 44 44 45 48 49 49 49 51 51 53 53 52 54 56
21 19 23 24 19 20 14 15 20 18 20 10 21 7 10 9 10 16 21 21 20 23 24 25 27 32 36 39 41 42 43 44 45 48 49 49 49 49 48 50 52 49 50 52
18 25 25 22 19 21 19 25 22 23 23 22 18 18 10 10 11 12 15 23 23 27 27 26 28 33 34 40 43 43 42 42 44 48 49 50 49 47 48 51 51 49 47 49
24 30 26 23 27 25 27 26 26 26 21 16 12 10 7 9 6 8 14 17 21 23 26 29 31 33 34 41 44 44 42 42 44 47 49 50 48 48 50 51 49 48 46 45
22 25 28 29 26 29 26 22 14 16 22 16 16 16 11 14 13 17 15 19 19 26 27 29 31 34 35 39 42 42 42 41 43 46 48 49 48 49 50 50 50 46 43 42
16 16 26 29 24 22 27 21 18 21 16 15 24 18 10 16 19 23 23 24 27 28 30 32 33 35 36 38 39 40 42 41 42 45 47 47 48 48 50 48 49 48 46 45
14 15 25 27 25 21 24 23 22 23 30 21 14 14 16 24 22 20 19 19 23 26 32 33 33 34 35 38 39 40 40 42 41 43 46 46 47 48 49 48 49 47 47 46
21 19 24 28 28 27 24 23 22 21 25 20 14 16 12 19 16 17 21 22 26 30 32 33 34 35 35 36 38 40 41 41 42 43 45 45 46 47 48 47 48 48 46 44
25 23 26 27 25 20 23 22 23 19 21 21 18 14 12 16 22 21 26 30 29 32 33 33 34 34 35 37 39 40 41 41 43 44 45 45 45 46 47 46 46 46 45 39
29 26 26 22 23 25 23 20 20 21 21 20 21 20 21 21 28 28 27 29 31 32 31 32 33 34 35 37 38 39 41 42 43 44 44 44 45 45 45 45 44 43 38 34
34 29 30 27 27 27 25 24 24 22 26 31 26 19 19 23 24 25 28 30 30 32 31 32 32 32 33 35 37 38 39 41 43 43 43 43 44 43 43 42 41 37 33 30
38 36 33 26 24 27 26 25 24 25 26 25 25 23 23 22 22 24 27 28 27 29 30 30 33 34 35 35 35 36 37 41 42 43 43 42 43 43 42 41 39 34 32 28
32 33 34 34 32 31 31 31 28 25 25 24 25 24 24 25 25 24 25 25 26 26 27 28 32 35 35 36 34 34 35 38 41 42 42 41 42 42 41 40 38 34 31 28
35 32 32 33 32 32 32 34 33 32 31 28 26 25 27 27 27 26 26 27 27 28 28 30 31 32 35 35 35 34 34 37 40 41 40 41 41 40 39 37 34 31 29 27
34 33 32 29 31 32 29 33 32 33 31 29 26 27 29 29 30 32 33 33 32 31 32 32 32 33 37 37 35 35 35 37 39 40 40 39 39 37 36 33 31 29 27 26
32 32 32 28 30 22 30 29 32 32 32 33 32 32 32 33 34 34 35 36 35 35 34 35 36 36 39 40 39 37 38 37 38 39 39 38 37 36 34 32 30 29 27 25
29 30 27 24 23 23 22 23 25 22 24 30 33 35 35 35 36 36 37 37 36 37 38 38 38 37 36 36 37 36 35 36 37 36 37 36 36 35 33 31 30 29 28 26
33 32 28 27 23 18 16 19 22 29 27 37 37 35 36 37 34 35 37 37 36 36 36 35 35 34 35 34 32 32 33 34 34 34 35 36 35 34 32 31 30 30 29 27
28 28 27 27 25 27 33 35 34 27 28 35 36 36 36 34 35 35 35 34 36 35 33 33 32 31 28 28 30 30 31 32 33 33 33 33 33 33 32 32 30 29 27 26
18 22 23 27 23 21 30 31 33 33 31 33 34 34 34 34 32 32 30 31 31 31 30 30 28 27 25 27 30 30 29 30 31 31 31 31 31 31 31 30 29 29 27 25
18 19 21 26 27 31 29 32 33 35 35 35 35 36 34 31 29 29 29 29 30 29 29 27 27 26 25 27 28 29 28 29 29 29 28 29 30 30 30 29 28 27 27 25
20 20 20 22 21 21 23 27 35 35 35 36 35 35 33 30 30 28 28 29 28 29 27 27 27 26 25 27 27 27 28 28 27 28 28 28 28 29 29 29 28 28 27 26
23 24 25 25 25 26 31 34 36 36 36 36 36 34 31 29 27 27 27 29 28 28 27 26 25 24 23 24 26 28 30 28 29 28 28 29 28 28 28 29 29 29 30 30
22 21 20 19 20 21 22 27 35 34 34 35 34 33 29 27 27 28 28 27 28 27 25 23 22 21 21 23 22 24 28 28 29 28 29 29 30 30 29 29 29 33 32 33

GFSCGP_sfc_dewp_072.txt.gz
Dewpoint
31 23 20 19 19 17 18 18 15 15 25 24 23 22 19 18 17 18 19 20 22 22 23 27 29 32 40 47 51 56 58 57 57 58 58 57 58 59 60 61 61 62 63 64
28 23 22 21 26 23 22 19 17 16 25 24 22 20 19 18 18 18 20 20 20 21 22 23 30 32 37 41 49 53 55 56 56 56 57 56 56 56 58 57 58 59 60 61
26 24 24 25 25 24 20 18 16 16 23 24 23 22 22 23 21 19 21 21 21 20 21 21 28 32 34 39 44 50 52 54 55 55 54 51 50 50 51 53 55 56 57 59
26 26 23 25 22 23 19 21 19 21 20 16 25 16 15 12 11 19 23 24 23 23 25 25 25 32 35 36 41 45 47 49 51 51 50 49 48 47 49 51 51 53 54 57
23 25 25 25 23 22 22 27 23 24 22 25 22 20 16 13 11 11 14 18 21 23 25 26 27 29 34 38 40 42 44 44 44 46 47 48 48 48 49 48 48 49 51 53
28 30 28 26 29 27 28 26 26 25 22 17 14 17 10 11 12 11 13 18 23 28 30 29 30 36 36 40 42 42 42 42 44 45 47 48 48 48 46 48 49 50 49 50
26 26 29 30 27 29 27 22 17 20 21 19 16 13 10 13 12 15 15 18 21 37 32 32 34 32 34 38 42 43 42 41 42 44 46 48 49 48 47 48 49 48 47 46
17 17 28 29 26 26 27 22 21 14 18 17 21 16 17 18 19 19 21 23 25 32 29 30 32 35 35 37 40 41 41 41 41 43 46 47 48 48 48 49 49 48 47 48
17 18 26 28 26 24 26 24 23 21 19 20 19 17 16 21 17 19 20 21 21 25 30 32 32 34 37 38 39 40 40 42 41 42 45 46 48 48 48 48 48 48 47 46
24 21 26 29 28 27 25 25 22 23 15 14 16 16 14 16 15 18 22 27 30 31 34 34 34 35 36 38 39 40 41 41 42 42 44 45 46 46 47 48 47 46 45 45
27 27 27 27 26 23 25 23 24 22 22 19 14 13 15 22 26 28 29 29 31 32 32 33 34 35 36 37 39 40 40 41 42 43 43 45 45 45 46 47 46 45 44 43
31 29 25 24 24 27 25 21 22 21 19 21 20 17 22 23 26 26 27 30 31 31 31 32 33 34 35 36 38 39 40 41 42 43 43 44 44 44 45 45 44 43 42 39
34 30 23 26 26 28 25 24 25 23 23 22 20 18 19 25 24 27 25 28 30 31 31 32 32 32 33 35 37 38 39 41 42 43 43 43 43 43 44 43 43 41 39 35
39 36 29 24 27 31 30 31 27 26 26 23 22 21 22 23 23 23 24 28 29 29 29 31 32 33 34 34 36 37 38 40 42 42 43 42 42 43 43 42 41 38 35 32
36 33 34 33 34 33 33 35 35 36 32 24 24 23 24 24 25 27 27 27 27 27 27 28 28 32 33 35 35 35 36 38 41 42 42 43 42 42 41 39 37 34 32 31
37 31 32 27 31 30 29 31 32 32 33 34 32 28 28 28 29 28 28 28 31 32 32 32 32 32 33 34 35 35 35 36 39 41 41 41 38 37 37 36 35 32 31 29
34 33 31 23 29 28 27 29 29 30 30 31 29 30 31 31 31 31 31 32 32 34 34 35 34 35 36 37 37 35 35 35 36 36 35 34 35 35 35 34 32 30 29 27
30 29 30 21 20 15 23 25 29 31 32 32 32 33 34 34 35 36 36 36 36 37 37 38 38 37 38 37 37 37 34 34 33 34 33 32 33 33 31 31 30 29 28 26
32 29 22 13 9 15 16 14 16 20 20 25 35 36 35 35 35 34 35 36 36 37 37 36 36 35 35 35 33 31 31 32 32 33 33 32 32 31 30 30 28 27 27 26
26 28 25 14 13 6 17 22 32 29 24 31 34 33 33 35 31 34 35 34 35 35 35 33 33 33 31 29 28 29 29 30 30 31 32 32 30 29 29 29 28 26 26 29
25 23 21 21 20 22 25 26 33 22 20 29 30 32 34 32 33 35 34 32 32 32 32 32 30 29 27 27 28 28 28 27 29 29 29 28 28 26 26 25 25 26 28 27
21 20 19 24 22 17 30 28 29 28 28 28 29 33 33 35 36 34 32 31 30 30 30 28 27 27 25 27 27 27 27 28 26 25 26 25 23 26 27 28 29 28 27 26
15 16 16 19 18 31 29 28 29 33 31 31 33 33 35 35 34 33 32 31 28 28 29 27 25 25 25 25 25 25 27 27 26 25 23 22 22 24 24 24 27 26 26 25
19 20 18 18 19 19 21 24 26 31 34 34 33 33 34 33 32 31 30 28 28 26 25 24 23 21 21 23 25 24 25 24 26 26 26 24 23 24 24 25 24 25 25 25
22 22 19 20 22 22 24 25 27 32 33 32 33 34 34 33 31 29 28 27 27 25 24 22 22 22 22 22 23 26 24 25 25 26 27 27 27 28 27 27 25 23 23 26
20 19 17 16 21 21 20 22 26 31 31 31 31 31 30 30 29 26 26 26 26 25 23 21 19 19 19 19 18 19 25 22 22 25 26 27 27 26 23 23 28 32 31 33

GFSCGP_sfc_dewp_075.txt.gz
Dewpoint
29 23 20 21 20 17 16 16 17 16 24 23 22 22 23 23 20 17 19 23 24 23 24 25 27 30 40 49 55 57 59 60 62 60 60 60 60 60 59 61 62 63 64 62
26 20 22 22 22 20 18 17 17 18 25 21 20 19 20 21 19 18 17 17 19 20 22 23 26 30 35 44 50 56 58 59 60 61 60 60 59 57 59 58 59 62 63 62
25 23 25 24 24 21 20 18 17 16 22 22 21 18 19 19 24 22 21 20 21 21 21 21 22 29 31 39 48 52 56 58 59 59 57 54 54 52 54 55 57 57 60 62
26 28 23 24 22 21 19 24 20 19 18 14 22 14 19 16 14 14 19 21 22 23 23 23 22 28 31 35 42 49 54 57 57 56 56 56 56 55 56 57 55 53 55 59
24 23 23 23 22 22 20 25 23 23 21 23 22 18 18 18 12 12 11 14 17 22 23 24 26 26 33 34 40 47 51 53 55 55 55 55 54 54 48 48 49 49 50 55
25 29 27 24 29 25 27 25 26 25 21 15 17 14 13 11 11 11 13 19 24 25 31 28 36 33 35 36 39 43 46 47 49 53 52 51 52 47 47 46 47 47 48 51
26 25 29 29 25 28 25 18 15 16 18 13 17 14 12 13 13 12 13 15 20 34 29 26 30 29 32 39 40 40 42 43 44 46 47 48 48 47 47 47 48 46 47 49
21 18 26 27 24 24 25 19 17 10 18 17 19 15 14 18 16 16 17 18 22 23 28 30 30 32 33 35 41 42 41 40 42 44 45 47 48 48 48 47 48 48 48 48
18 17 27 28 26 23 25 22 22 20 15 18 17 18 17 20 16 17 21 26 28 31 33 34 34 33 36 36 38 40 40 41 41 42 44 46 47 48 48 47 47 49 47 47
22 20 28 28 27 27 24 25 21 23 11 11 15 15 15 17 17 28 28 27 28 31 32 33 34 35 36 38 38 39 40 40 41 41 43 45 46 47 47 47 46 47 47 46
25 25 25 26 25 23 25 23 23 22 23 15 13 12 16 16 24 25 27 28 31 31 31 32 34 34 35 37 38 39 40 40 41 42 42 43 45 45 46 46 46 46 45 45
31 28 24 23 25 26 24 22 23 21 18 20 21 15 24 25 24 24 25 29 35 36 31 31 33 34 34 35 37 38 40 40 41 42 42 42 44 44 44 45 44 44 44 42
33 28 18 23 25 27 24 25 24 24 25 21 18 17 21 24 24 24 24 26 27 29 30 31 32 32 33 34 36 37 39 40 41 42 42 42 43 43 43 44 43 42 42 40
39 34 26 21 28 32 30 33 35 30 23 22 22 21 23 25 25 25 27 28 28 28 28 29 31 32 33 33 34 36 37 39 40 41 42 42 42 43 43 42 42 41 39 37
38 32 33 32 33 33 36 34 34 33 33 31 26 26 27 27 27 27 28 29 29 29 31 32 32 33 32 33 34 35 36 37 39 40 41 41 41 41 41 39 38 37 36 35
36 27 32 29 32 31 28 29 31 33 32 31 30 31 33 33 34 32 31 31 33 33 34 34 35 35 35 35 36 36 35 35 36 39 39 40 38 37 37 37 36 35 33 32
34 32 28 15 27 27 20 26 29 29 31 30 29 29 31 31 33 35 36 36 35 35 36 36 36 37 37 36 36 37 37 36 34 33 33 34 34 34 35 35 34 34 32 30
31 30 29 10 12 5 19 23 26 29 30 31 31 33 35 34 34 35 35 34 34 35 35 35 35 34 35 35 35 31 31 31 31 31 31 31 32 33 32 31 32 30 29 28
30 26 13 9 0 13 14 11 11 17 19 31 29 31 31 33 33 33 35 34 34 35 35 35 34 33 32 31 28 28 29 30 30 31 31 31 31 31 30 30 29 27 25 24
31 29 21 4 9 7 15 19 27 28 21 30 30 29 30 33 24 27 32 34 35 33 33 33 32 30 29 27 27 27 28 28 29 30 30 31 30 28 28 28 26 24 25 26
22 25 22 20 18 16 21 22 30 15 15 25 27 27 28 27 29 29 33 36 34 32 31 31 30 28 28 26 26 26 27 27 28 28 28 27 28 25 25 25 29 29 29 28
18 15 16 14 18 15 24 29 26 25 26 26 27 27 28 29 30 33 35 34 32 30 29 29 28 27 26 26 26 25 26 27 25 24 25 24 21 25 27 31 29 29 28 27
12 21 17 20 18 23 29 26 28 30 27 26 28 29 32 33 33 33 34 31 29 28 28 28 25 25 25 24 25 24 24 25 24 19 18 18 20 22 22 29 28 27 27 26
19 19 18 16 16 18 19 22 25 27 27 28 30 31 31 32 32 32 31 30 29 27 25 25 23 21 21 21 22 25 24 23 18 19 21 21 19 19 21 23 23 25 26 25
19 20 16 16 21 22 23 23 24 25 29 31 31 31 32 31 32 30 29 27 26 25 23 21 23 21 19 18 19 22 25 19 19 19 23 26 23 20 22 23 18 20 20 23
20 18 17 15 20 20 20 22 22 22 25 27 28 28 29 30 30 28 26 24 24 23 21 19 19 17 15 15 17 16 22 25 18 26 26 26 26 25 25 26 27 30 30 29

GFSCGP_sfc_dewp_078.txt.gz
Dewpoint
28 22 20 20 17 12 16 16 14 16 23 22 22 22 22 22 22 21 20 21 22 24 24 25 25 29 39 48 52 56 60 61 61 61 61 61 61 63 63 64 64 64 62 61
24 19 21 22 21 19 17 16 15 17 24 21 19 19 21 21 20 19 19 18 18 19 22 23 25 27 31 38 49 54 58 60 61 61 61 61 61 61 62 62 62 63 63 62
19 17 23 21 22 20 19 17 16 15 20 20 24 15 15 15 22 21 20 21 20 19 19 20 21 24 28 33 44 51 57 59 61 61 61 55 54 53 55 56 60 62 63 62
25 26 23 23 21 20 17 21 19 19 16 11 20 9 18 16 15 16 15 13 16 21 22 23 23 22 26 30 36 47 54 58 60 61 60 59 59 58 58 59 58 57 59 62
23 24 24 22 21 21 19 24 20 21 21 22 21 15 15 18 14 12 12 13 24 25 23 24 25 28 27 30 34 44 51 56 58 59 59 59 58 58 53 51 53 52 54 56
24 28 25 23 28 23 26 24 24 24 17 12 16 10 8 9 9 10 13 19 19 24 25 26 28 30 32 35 36 44 50 53 55 57 57 57 57 53 49 48 49 49 50 54
26 24 28 27 25 26 23 15 12 13 16 11 16 15 12 14 13 12 16 18 21 24 28 30 30 30 32 33 38 39 44 48 49 53 53 52 54 51 50 48 49 46 48 49
21 20 25 27 24 23 22 15 15 7 14 13 19 15 12 19 17 18 23 23 28 31 32 33 34 33 33 35 37 41 40 41 44 47 48 49 50 51 50 48 48 48 49 50
20 17 27 28 26 24 23 20 18 18 14 17 16 16 17 19 20 27 27 27 28 30 31 32 34 34 36 36 36 38 40 41 41 42 44 45 46 47 48 47 47 48 48 47
19 19 28 27 26 27 22 24 21 22 9 8 13 14 12 14 18 25 25 27 29 30 31 31 34 34 35 37 37 38 39 39 40 41 41 43 45 46 47 46 46 46 47 45
24 22 24 26 24 23 24 22 22 22 20 12 11 12 17 16 23 25 26 28 29 29 30 31 32 34 35 35 37 38 39 39 40 40 41 42 43 44 45 46 46 46 45 45
27 26 23 23 25 25 25 23 23 20 17 20 20 16 20 24 25 25 26 26 27 28 29 30 31 33 34 34 35 36 38 39 40 41 41 41 42 43 43 44 44 43 44 42
30 29 23 24 25 27 24 26 24 24 24 19 17 17 24 25 26 25 25 27 28 29 29 29 30 32 32 32 33 35 36 38 39 40 41 41 42 42 42 42 43 42 42 41
38 31 25 22 26 30 30 32 34 27 21 21 20 19 20 26 29 29 28 29 30 30 30 32 33 33 35 34 33 34 35 37 38 39 40 40 41 41 41 41 41 41 40 40
35 28 30 31 33 33 34 33 33 31 32 27 28 31 30 32 31 30 31 32 33 34 35 36 36 37 37 37 37 37 37 36 37 38 39 40 40 40 40 39 38 37 37 37
35 29 31 28 31 32 30 32 33 32 31 30 30 29 29 30 33 34 35 35 34 34 35 35 35 35 35 35 35 35 35 35 34 35 34 36 35 35 36 35 35 35 35 35
30 31 27 20 26 27 21 26 29 28 31 27 26 28 32 33 33 33 34 34 33 34 34 34 34 34 34 34 34 33 30 30 30 31 31 31 32 32 33 34 34 34 34 33
30 25 20 14 16 14 19 20 25 27 28 30 30 32 34 32 32 34 35 33 33 34 34 33 33 32 32 33 31 28 28 29 29 30 30 30 31 31 31 31 31 32 32 30
30 26 17 14 5 13 11 10 12 15 16 29 28 28 28 30 28 30 35 34 33 35 34 34 33 32 31 30 28 27 27 28 28 28 29 30 30 30 30 30 29 27 26 24
31 26 19 2 1 -0 7 22 17 23 17 30 28 27 26 27 16 19 28 29 34 35 33 32 31 30 29 28 27 26 26 27 28 28 28 29 29 28 28 29 27 24 24 29
26 27 23 8 4 11 18 23 27 11 14 24 26 24 24 24 22 20 27 32 33 32 31 30 29 28 28 26 26 25 25 26 27 27 27 27 27 27 27 27 29 30 30 29
18 18 17 21 19 13 23 27 19 22 25 25 25 26 25 25 26 29 32 31 30 30 29 28 27 26 26 25 25 25 25 26 25 26 25 25 24 26 26 27 30 29 29 28
17 17 16 18 18 21 26 26 29 27 25 26 25 26 27 28 30 31 32 31 29 29 28 27 24 24 23 21 21 22 24 25 24 23 22 21 21 22 22 29 28 27 27 26
19 20 19 19 20 22 23 21 23 30 25 27 27 27 28 30 31 31 31 31 29 25 23 22 20 20 19 17 20 19 24 26 24 20 25 25 19 20 19 21 26 27 26 25
18 20 17 17 20 22 22 23 24 24 25 27 27 30 31 30 30 30 29 26 25 23 22 19 19 19 19 17 17 15 19 24 25 24 25 26 27 23 20 21 19 21 23 24
21 19 18 16 20 20 19 20 21 21 21 22 23 24 28 29 29 28 26 24 23 22 19 18 17 16 16 14 14 14 12 20 22 25 26 26 26 25 25 25 25 30 30 31

GFSCGP_sfc_dewp_081.txt.gz
Dewpoint
27 22 18 18 14 7 15 18 17 15 23 22 21 22 22 23 22 21 21 21 22 22 23 24 24 29 44 50 53 55 59 60 62 62 61 61 62 63 63 64 63 62 61 59
23 19 20 21 20 16 16 15 19 16 24 22 20 19 20 21 21 20 19 19 19 19 19 21 24 26 30 39 49 52 56 59 61 61 61 61 61 62 63 63 63 63 63 61
18 15 22 20 20 18 17 15 15 13 19 18 18 13 12 14 21 20 20 21 20 20 20 20 21 22 25 29 38 48 53 56 60 60 60 56 55 55 57 59 62 63 63 62
21 22 22 21 21 20 18 20 18 18 17 9 19 4 15 16 17 15 15 13 17 21 20 23 24 24 25 25 30 40 49 55 59 60 60 60 59 59 59 60 60 61 62 62
19 25 22 21 20 21 18 22 19 19 18 21 20 14 13 15 11 9 16 21 23 25 26 26 28 30 31 34 32 34 47 54 57 60 60 60 59 60 57 55 55 55 59 62
21 28 24 23 27 22 26 21 20 22 15 10 13 8 5 6 8 11 15 18 22 26 30 31 32 32 32 34 38 40 45 50 54 57 58 58 59 56 52 51 53 52 54 58
25 24 28 27 24 26 20 14 11 11 13 9 18 13 10 12 14 13 16 23 29 31 31 32 33 34 33 35 37 39 42 46 50 53 54 54 55 54 53 51 52 49 50 51
20 20 26 27 23 23 19 14 14 5 10 10 20 13 11 18 19 26 25 28 30 30 31 32 33 34 35 36 36 38 40 40 43 48 51 51 52 52 52 50 50 51 51 52
20 17 26 27 25 24 22 16 16 17 13 16 13 14 15 21 25 25 27 29 29 29 30 31 33 34 34 36 36 37 38 39 41 41 44 46 48 48 49 48 48 49 48 48
21 16 27 27 25 26 22 23 19 20 7 6 10 12 8 16 23 25 28 28 28 29 30 31 32 33 34 35 36 37 38 39 39 40 41 42 43 45 46 46 46 46 46 45
21 21 24 26 24 23 22 21 21 20 19 12 10 10 16 17 25 26 27 27 27 28 29 30 31 32 33 34 34 35 37 38 39 39 40 40 41 42 43 44 44 44 44 44
26 24 24 23 26 26 24 22 21 17 17 19 19 15 20 25 25 26 26 26 31 29 30 30 31 32 33 34 34 34 35 36 38 39 40 40 41 41 41 42 43 43 44 42
29 27 21 23 26 28 23 25 24 23 24 20 17 17 24 26 25 25 27 28 29 31 33 34 35 36 36 36 36 36 36 36 37 38 39 39 40 40 40 41 41 41 41 41
36 30 25 19 24 27 29 32 32 24 23 20 20 19 22 25 31 31 32 33 34 35 35 35 35 35 35 36 36 36 36 36 35 35 36 37 38 39 40 40 40 40 39 39
33 31 32 33 33 33 32 32 33 29 26 20 25 27 25 31 31 32 35 35 34 34 34 34 34 34 34 33 33 33 34 32 31 31 32 33 35 36 36 35 35 35 35 36
34 32 32 30 32 32 30 32 32 32 32 32 31 30 31 32 34 33 34 32 32 33 34 34 34 33 33 32 32 32 30 29 30 29 30 31 31 31 31 32 32 33 33 34
31 29 26 26 28 30 24 26 29 29 30 28 24 26 32 33 32 32 34 32 31 32 34 34 33 32 32 32 32 30 28 28 28 29 29 29 30 30 30 31 31 32 32 32
29 28 25 20 17 18 22 18 19 28 28 29 29 31 32 31 31 31 34 32 30 32 34 34 33 31 31 31 30 28 28 28 28 28 28 28 29 29 29 29 30 30 30 30
31 27 16 17 3 16 17 14 12 18 16 27 29 30 27 27 27 25 33 34 32 33 34 33 33 31 30 29 28 27 27 27 27 27 27 27 28 28 28 28 29 28 26 26
29 27 22 3 7 7 11 20 15 17 12 21 28 27 24 21 20 19 34 29 31 33 33 31 30 29 28 27 27 26 26 25 25 26 26 27 27 27 27 30 30 30 27 30
27 25 22 12 6 11 17 21 23 8 10 24 27 25 24 19 19 18 26 29 32 32 30 29 28 27 27 27 25 25 25 24 25 25 25 25 25 25 26 27 29 30 30 30
23 23 21 19 17 13 20 21 18 20 25 26 25 24 24 23 25 26 28 31 32 30 28 28 27 26 26 25 24 23 23 24 24 23 23 22 22 23 25 22 28 30 29 29
16 20 18 21 20 21 25 24 28 26 26 25 25 24 25 25 26 28 30 30 30 30 29 27 23 24 24 20 19 20 21 23 25 25 22 23 26 21 20 20 27 28 28 27
21 21 20 19 20 21 25 22 24 27 24 23 25 25 25 26 28 30 30 30 29 26 23 21 19 21 21 17 18 17 18 19 22 24 24 25 26 26 25 20 21 24 26 26
18 21 18 18 20 21 22 23 22 21 21 22 25 26 26 26 28 29 28 27 26 23 21 19 18 19 19 18 16 12 16 13 17 23 24 25 26 27 26 26 21 17 18 25
20 18 16 15 19 19 19 23 23 21 21 22 22 24 25 28 28 27 27 24 23 22 19 18 19 19 19 13 12 10 6 7 12 18 22 25 26 27 25 25 25 30 32 32

GFSCGP_sfc_dewp_084.txt.gz
Dewpoint
27 18 16 19 12 5 14 11 11 15 23 23 20 20 21 22 22 21 21 21 21 21 22 24 24 26 43 50 53 57 59 61 62 62 62 62 62 63 63 63 62 59 59 57
23 17 18 20 16 16 16 19 16 16 23 25 21 19 20 20 20 20 19 20 19 19 20 20 21 24 27 38 50 53 57 59 61 62 62 62 62 62 62 63 63 62 60 59
17 15 22 19 19 14 20 14 14 11 17 17 13 10 9 13 18 17 17 18 18 19 17 21 23 23 23 26 33 48 53 56 59 61 60 56 56 56 60 62 62 63 62 60
17 21 20 20 17 16 14 18 16 17 15 11 20 1 12 13 16 13 18 22 25 25 26 27 29 30 32 33 28 31 45 52 55 59 59 59 59 59 60 61 62 62 62 62
17 23 20 19 18 19 17 21 19 18 17 20 18 11 10 11 8 12 16 20 24 29 30 32 32 31 33 36 37 36 38 47 53 57 59 59 59 59 57 56 57 60 61 61
21 27 24 20 25 22 25 19 19 20 14 9 12 7 3 5 12 18 17 26 30 31 31 32 34 34 35 36 38 40 44 47 51 55 56 57 58 56 53 52 54 56 58 60
25 24 28 27 24 25 18 13 11 10 12 8 17 14 7 10 13 15 23 28 29 30 31 32 33 34 35 36 36 38 40 41 47 51 53 54 55 54 53 52 52 50 53 53
18 17 26 27 23 23 17 14 14 5 8 8 19 13 9 18 24 26 28 30 30 29 30 31 33 33 34 35 36 37 38 38 40 44 49 50 51 52 52 51 50 51 51 53
18 16 26 26 25 23 20 14 15 17 11 14 12 14 15 23 26 27 28 28 28 29 30 31 32 33 33 34 35 36 37 38 39 40 41 42 45 47 48 48 48 48 48 48
21 15 26 27 25 25 23 21 17 18 6 5 8 11 7 23 25 27 27 27 29 30 30 31 32 33 35 34 34 35 36 37 38 39 40 40 41 42 43 44 44 45 46 45
21 21 24 26 23 22 21 19 19 17 17 11 9 9 15 23 26 26 27 28 28 29 30 31 34 35 36 36 36 36 37 37 37 38 39 39 40 40 41 41 42 42 43 43
24 24 24 23 25 26 23 20 19 16 14 17 17 13 21 26 27 27 27 27 29 31 34 35 36 36 36 36 35 35 36 35 35 36 37 38 39 40 40 40 41 41 41 41
26 24 19 23 26 27 23 23 22 21 23 19 16 15 25 25 26 27 28 30 33 35 34 34 34 34 35 35 35 34 35 33 32 32 33 34 34 35 36 38 39 39 39 39
34 28 21 15 20 25 26 30 25 20 20 17 19 20 23 27 30 30 33 34 34 34 34 34 34 33 33 34 34 33 33 32 31 31 32 32 32 33 33 34 34 35 36 36
33 29 32 32 32 31 30 30 29 22 19 17 17 19 23 25 31 33 35 34 33 34 34 34 33 33 32 31 31 31 30 29 29 29 29 30 31 31 31 31 31 32 32 33
35 32 32 30 34 32 30 31 31 31 31 30 31 30 32 32 34 33 33 31 30 32 34 34 33 32 31 31 30 30 28 28 28 28 28 29 29 29 29 30 30 30 31 31
35 32 31 27 29 31 28 29 30 30 31 30 28 28 32 32 33 32 33 30 29 31 33 34 33 32 31 30 30 29 28 28 27 28 28 28 28 28 28 29 29 30 30 30
32 30 29 20 26 21 23 18 25 29 29 30 28 31 31 32 32 31 33 30 29 32 33 34 32 31 31 30 29 28 27 27 27 27 27 26 27 27 27 27 28 28 29 29
31 29 20 22 20 19 19 17 13 18 18 28 28 32 31 28 26 23 31 31 30 32 33 33 32 31 30 28 28 27 27 27 26 26 26 26 26 25 25 25 28 29 29 26
29 29 28 13 15 10 16 14 15 16 11 15 28 29 25 22 21 21 32 31 29 31 32 31 30 29 28 27 27 26 26 24 25 26 26 26 25 24 24 25 27 28 25 28
26 26 23 10 11 13 19 21 20 6 8 22 27 26 23 20 21 19 26 26 29 32 31 29 28 28 27 27 25 24 24 23 24 24 24 23 23 22 22 23 23 25 25 26
26 24 22 17 14 15 19 20 15 18 26 25 23 22 22 22 24 25 26 28 30 31 30 29 28 27 26 25 23 22 22 23 21 23 25 25 20 26 24 18 21 25 28 28
23 24 22 23 22 20 21 23 24 26 25 24 22 22 21 21 23 25 27 29 30 30 30 29 24 23 23 20 19 20 20 20 19 17 21 25 25 26 27 26 24 23 22 26
21 21 22 22 23 21 25 24 25 24 21 22 23 24 23 23 24 24 26 28 28 26 24 21 18 19 18 16 18 16 16 16 8 12 17 23 25 27 27 28 26 24 18 18
19 21 17 18 20 23 22 24 24 21 21 21 24 25 23 24 24 25 26 24 24 23 20 18 18 19 20 17 14 12 13 8 9 11 16 19 23 26 27 27 27 26 22 24
19 19 18 16 20 19 22 23 21 19 19 19 20 21 25 26 27 26 24 22 21 20 19 18 19 19 18 12 10 8 3 1 2 9 13 15 17 21 25 26 25 28 30 30

GFSCGP_sfc_dewp_087.txt.gz
Dewpoint
28 18 19 17 12 8 13 7 7 15 24 23 21 20 20 22 22 22 21 20 20 21 22 23 25 27 34 51 54 58 60 62 63 62 62 62 62 62 63 62 61 59 58 57
22 16 18 20 14 14 14 13 14 18 24 22 22 19 20 20 21 22 21 20 20 20 20 23 25 26 29 36 49 54 58 60 62 62 62 62 61 62 62 62 62 61 59 58
18 17 21 19 17 15 16 12 14 12 18 18 13 10 9 14 18 19 20 21 25 25 26 29 30 32 35 31 31 46 53 58 61 62 62 59 60 59 62 62 62 62 60 60
16 22 19 18 16 14 13 16 16 17 15 7 16 -1 12 14 15 19 21 24 28 31 32 32 32 34 35 39 38 32 40 52 57 61 61 61 60 59 60 61 62 62 62 60
17 21 20 18 16 16 14 20 18 18 18 17 16 9 8 10 13 15 23 29 31 32 33 33 34 36 36 39 41 43 43 43 49 57 60 60 60 60 59 59 60 61 62 62
23 27 22 18 24 21 24 18 18 19 13 9 12 8 3 5 11 17 28 29 30 31 32 33 35 36 36 38 39 41 42 45 52 54 57 58 59 58 57 56 57 59 61 61
25 24 27 26 24 24 18 14 12 12 13 9 15 12 7 11 15 22 27 29 30 31 32 33 33 34 35 36 38 39 40 40 43 50 54 56 57 57 56 56 55 55 54 55
19 16 25 26 22 22 18 13 14 7 9 8 18 14 9 23 24 27 29 29 30 30 31 33 34 35 35 36 36 37 39 39 40 41 42 47 50 52 53 53 54 54 54 55
15 14 26 25 25 23 19 14 15 17 11 13 14 15 18 26 27 27 28 29 30 30 32 33 35 35 36 36 36 37 37 38 38 40 40 41 42 43 44 45 48 49 50 50
20 17 26 26 25 24 19 20 16 16 6 5 7 11 12 25 26 27 28 29 30 31 33 35 36 36 36 36 37 37 37 36 37 38 39 39 40 41 42 42 43 43 44 45
20 22 25 25 23 21 19 18 18 16 17 9 8 8 14 25 27 27 29 29 30 31 34 35 35 36 35 35 35 35 34 33 33 35 37 37 38 38 39 40 40 41 42 42
23 24 24 23 25 25 23 18 18 15 14 15 15 10 22 27 28 29 29 29 31 35 35 34 34 34 34 34 33 33 32 32 32 32 34 34 34 35 36 36 37 38 38 40
25 23 17 22 24 26 23 22 20 20 23 18 16 13 25 27 27 28 29 31 34 34 34 34 34 33 33 33 33 32 32 31 31 31 31 31 31 31 31 32 33 34 35 36
32 25 19 12 16 24 23 23 22 18 19 18 18 20 24 26 28 28 32 34 34 34 34 34 33 33 33 32 32 31 30 31 30 30 30 30 31 30 30 31 31 32 32 33
30 24 28 30 29 26 25 26 23 19 16 14 14 19 24 26 30 30 34 34 34 34 34 33 33 32 32 31 31 31 30 29 29 29 29 29 30 30 30 30 31 31 32 32
35 29 30 29 32 30 29 29 26 21 21 27 20 19 25 27 32 34 34 34 32 33 33 33 33 32 31 30 30 29 28 28 28 28 28 29 29 29 29 29 29 30 30 31
34 32 28 25 30 29 27 29 29 28 31 24 25 27 32 32 33 34 33 31 30 31 33 33 32 31 31 30 29 28 28 28 28 28 28 28 28 27 28 28 28 29 29 30
32 31 30 24 30 24 26 17 27 30 31 31 28 30 32 32 33 34 34 30 30 31 33 33 32 31 31 29 28 27 28 27 28 28 27 27 27 26 26 26 26 28 29 29
35 32 23 23 18 21 21 19 26 29 29 30 30 30 31 30 26 27 33 28 29 31 34 33 32 31 30 28 28 27 27 27 26 26 26 26 26 25 25 24 25 26 28 28
30 32 30 20 19 15 21 15 14 16 17 20 30 31 28 23 25 24 31 30 31 33 33 32 31 30 28 28 27 26 26 24 25 25 25 25 25 23 23 24 24 25 25 27
28 28 27 21 21 19 21 20 15 11 17 22 29 29 25 23 25 26 32 26 30 32 33 31 29 28 28 27 26 25 24 24 24 23 24 25 26 24 25 25 25 24 24 26
24 25 23 17 19 17 19 22 13 18 27 25 25 23 21 21 23 23 24 26 29 31 31 30 29 28 26 25 23 22 22 23 20 20 19 20 24 27 27 28 27 27 26 26
25 25 21 22 22 21 21 21 23 27 26 23 23 23 23 22 22 23 24 27 28 29 30 28 25 23 23 19 20 20 21 19 18 13 13 15 19 23 26 28 28 28 28 26
22 21 25 24 23 20 22 24 26 26 25 23 22 22 21 20 22 23 25 27 27 24 23 20 19 18 18 17 18 17 17 15 6 8 12 15 17 20 22 26 27 28 27 25
21 21 19 20 20 24 24 24 24 21 22 23 24 22 21 20 22 24 26 24 23 22 20 18 18 17 18 17 15 12 13 7 8 9 12 14 16 17 19 22 25 27 28 28
20 19 19 18 21 22 22 25 24 21 21 22 20 21 24 25 26 26 24 23 21 19 17 16 15 15 14 12 12 10 2 1 0 7 11 11 12 14 17 21 24 26 27 28

GFSCGP_sfc_dewp_090.txt.gz
Dewpoint
27 18 17 17 17 13 14 10 9 12 22 21 19 19 16 19 21 21 20 20 20 21 22 23 24 27 30 41 54 58 60 62 63 62 63 63 62 63 63 63 62 63 61 60
22 16 20 18 14 13 14 11 11 19 23 22 21 20 20 19 20 20 19 18 20 24 27 30 31 32 28 30 41 50 56 59 62 62 62 62 62 63 63 63 63 63 63 61
16 16 21 17 15 12 13 9 15 13 19 18 16 13 12 13 17 23 23 24 27 28 28 31 34 37 39 36 32 40 49 55 58 61 61 62 61 61 62 63 63 62 62 62
16 22 19 19 15 15 13 16 17 19 15 4 18 -3 12 13 18 23 29 30 31 32 33 34 35 37 40 42 44 32 39 49 54 58 59 59 58 58 59 61 62 63 62 61
16 20 19 17 16 17 15 20 19 20 18 17 14 6 6 11 16 23 30 32 33 34 35 35 36 38 39 42 46 48 46 42 49 55 57 58 58 58 59 60 62 62 63 62
24 25 20 18 22 20 23 20 20 19 16 12 12 11 3 6 14 25 29 30 32 33 33 34 36 37 38 42 43 43 45 51 54 53 56 57 57 58 59 59 60 61 62 62
25 23 27 26 22 23 20 15 15 13 15 10 15 13 5 12 16 27 28 30 31 33 34 35 36 36 38 40 41 41 41 41 46 53 54 55 57 58 58 57 57 57 57 57
15 16 25 27 22 21 21 13 16 18 13 10 19 14 10 19 20 28 29 30 31 33 36 36 37 38 38 39 39 39 40 39 41 42 43 44 47 51 52 52 53 54 54 55
15 15 26 26 25 22 18 15 17 18 20 19 11 15 19 26 26 28 28 30 31 34 36 37 37 37 37 38 37 37 37 38 38 40 40 41 42 43 42 44 44 44 45 45
19 16 26 26 25 24 20 18 16 15 21 16 7 12 7 25 27 28 29 30 32 35 36 36 36 36 36 36 35 35 35 35 36 37 37 37 38 38 39 39 40 40 41 41
19 24 25 26 23 20 17 16 16 12 17 23 12 5 12 23 28 28 29 31 33 36 36 35 34 34 35 35 35 34 34 34 34 35 36 35 35 35 35 35 36 36 37 37
25 27 25 22 26 26 22 17 15 12 18 13 16 10 24 23 28 29 30 31 34 36 34 34 34 34 34 34 33 32 33 33 33 34 34 33 32 33 33 32 33 35 34 35
26 27 27 23 24 26 23 21 17 19 25 26 22 9 25 28 29 30 30 32 35 34 34 34 34 33 33 33 32 31 31 31 31 32 31 31 31 31 31 31 32 32 33 34
30 27 20 14 13 22 23 23 22 17 23 18 17 13 25 27 28 30 31 34 35 34 34 34 33 33 33 32 30 29 29 30 30 30 30 31 31 30 30 31 31 32 32 32
29 29 23 19 25 23 24 24 22 17 15 15 13 14 22 27 29 30 32 35 34 34 34 33 33 32 32 31 30 29 28 29 29 29 29 29 30 30 31 32 32 32 33 32
35 33 29 30 32 30 26 25 24 20 19 16 16 16 21 28 30 31 34 34 34 34 34 33 33 32 31 30 30 29 28 29 29 28 29 29 31 31 31 31 30 30 31 31
36 34 32 26 31 32 27 29 25 22 20 18 16 20 26 28 31 32 35 34 34 34 33 33 32 32 32 30 29 28 28 29 30 31 30 29 29 29 29 29 28 29 29 30
34 33 33 29 32 23 26 20 26 24 25 25 24 30 28 28 32 34 36 35 33 33 33 33 33 32 32 30 29 28 29 29 30 30 30 29 29 29 28 28 28 28 29 29
37 33 27 28 29 29 25 20 29 28 26 31 27 31 31 32 33 32 34 34 32 33 34 35 34 32 30 29 29 29 29 29 28 28 27 27 28 28 27 27 28 28 29 29
33 36 33 26 27 24 24 18 19 24 27 32 31 32 31 31 29 29 32 31 33 34 35 34 33 31 30 29 28 28 28 28 27 26 25 26 27 28 27 27 28 29 29 28
29 31 30 29 28 29 29 21 18 25 31 26 34 33 31 31 30 31 31 29 33 35 34 32 31 30 28 28 27 27 26 27 25 25 25 25 25 26 28 28 30 30 30 30
28 29 28 27 27 24 21 19 19 26 27 29 31 30 29 27 30 31 26 29 33 34 33 32 31 29 26 26 27 27 27 25 24 23 23 23 23 24 27 28 29 31 31 31
27 29 29 29 30 23 22 24 24 28 30 27 27 25 25 27 29 26 27 30 32 32 32 30 31 27 25 26 26 27 27 24 22 20 19 20 21 22 24 25 27 28 29 30
26 23 28 29 28 24 23 25 26 28 27 27 27 25 23 22 23 24 27 28 29 29 29 27 27 27 27 25 24 24 23 20 16 17 18 20 21 21 22 23 24 26 27 28
26 24 27 27 22 24 24 26 27 25 26 24 24 23 22 24 25 25 28 29 28 27 26 26 26 25 24 23 23 22 19 15 15 16 17 18 19 20 20 21 22 24 27 29
22 23 24 24 24 24 23 26 26 25 24 25 23 23 24 25 26 28 28 27 26 24 22 21 19 17 17 16 17 18 12 9 9 13 15 15 14 16 16 17 20 23 26 27

GFSCGP_sfc_dewp_093.txt.gz
Dewpoint
26 20 17 14 14 12 12 11 10 11 21 19 18 16 12 13 19 18 19 19 20 21 22 23 25 28 30 39 52 56 58 60 61 62 63 63 63 64 64 64 64 63 63 62
23 17 18 18 15 13 12 10 8 19 23 22 19 17 14 15 20 20 20 19 19 21 25 29 30 30 30 30 38 50 55 57 60 62 63 63 63 64 63 64 64 63 63 63
17 16 21 17 14 12 11 9 10 9 21 20 17 12 13 15 17 21 21 21 24 26 27 31 35 37 38 35 34 37 46 54 58 61 62 63 63 63 63 63 63 63 63 63
16 21 19 18 14 13 11 12 15 20 15 4 17 -3 11 11 16 22 27 26 28 31 32 34 36 38 42 44 42 34 41 47 53 57 59 61 60 59 59 61 63 63 63 63
15 19 19 18 14 16 14 18 17 19 13 15 12 5 -1 11 15 23 29 31 32 34 34 35 37 39 41 45 49 44 37 44 50 54 56 58 59 59 58 60 61 62 63 62
23 24 19 17 19 18 21 18 19 18 14 7 4 6 -0 8 10 23 29 31 33 33 34 35 37 39 41 44 45 49 51 49 47 51 55 55 55 56 57 58 60 61 60 61
23 19 25 22 21 22 18 13 12 10 13 8 14 16 4 12 16 24 28 31 32 34 34 35 36 38 40 41 42 43 45 50 55 55 55 56 57 58 58 57 57 57 57 58
12 14 23 23 17 17 20 11 16 19 15 11 19 14 9 16 21 27 29 31 33 34 36 37 38 38 39 40 40 41 42 41 42 44 45 48 52 52 50 48 48 48 47 48
10 13 26 24 24 18 18 14 16 18 23 19 12 12 19 25 25 28 29 31 33 35 37 37 37 37 38 38 38 39 39 40 40 40 41 41 41 42 42 42 43 42 42 41
15 20 26 25 25 23 19 14 11 14 23 18 10 11 6 23 24 28 29 30 33 36 36 37 36 37 36 36 36 37 36 37 37 38 37 37 37 37 38 38 38 38 38 38
17 22 25 25 22 17 17 15 15 9 18 27 16 5 9 21 24 27 29 30 33 36 36 36 36 36 36 36 36 36 36 36 36 36 36 36 36 35 35 35 35 36 36 36
26 25 24 21 26 26 20 14 14 13 19 13 22 13 23 20 24 28 29 31 34 36 35 35 35 35 35 35 34 34 34 34 34 35 35 33 33 33 33 33 33 35 34 36
25 30 28 23 22 26 22 19 16 13 28 30 23 7 24 21 25 28 30 32 35 36 34 34 34 34 34 33 32 31 31 32 32 32 32 31 31 31 31 32 32 33 33 33
29 31 20 15 13 18 22 21 21 16 21 18 16 11 23 25 27 29 31 32 35 34 34 34 34 34 33 32 29 29 29 31 30 31 30 32 32 31 31 32 32 32 33 32
27 28 22 17 16 18 21 22 22 18 15 13 12 13 14 25 28 29 31 32 34 34 34 34 34 34 32 31 29 28 28 29 29 29 30 30 32 31 33 33 33 33 34 32
32 34 25 32 25 27 26 25 23 21 19 16 12 12 16 23 27 29 31 34 34 34 34 34 34 33 32 30 29 28 28 30 31 31 31 31 32 33 34 33 32 31 32 32
34 34 34 31 32 31 28 28 24 23 20 17 14 16 22 25 28 30 32 34 34 35 35 34 32 32 32 31 29 28 28 31 32 34 33 32 31 31 31 30 30 30 30 31
35 35 35 31 33 21 26 21 22 23 21 22 19 20 26 27 29 32 33 35 35 35 35 33 33 32 32 31 30 29 31 33 33 32 32 31 30 30 30 29 29 29 30 30
36 34 32 29 29 27 27 23 26 25 22 22 22 22 28 28 31 32 34 36 36 36 35 34 34 33 31 30 29 32 32 32 31 29 29 29 29 29 29 28 29 29 29 29
35 35 31 31 29 24 25 24 29 30 25 27 27 27 30 31 29 30 36 37 35 35 36 35 34 32 31 31 31 30 30 30 29 27 27 27 28 28 28 28 29 30 31 30
31 31 30 30 30 33 28 23 26 28 31 31 33 31 32 29 30 34 35 34 35 35 35 34 32 31 30 29 29 29 29 28 27 27 27 27 26 26 27 28 29 29 30 29
28 30 30 31 29 26 21 20 27 30 28 31 35 34 33 31 33 33 32 33 34 34 33 32 31 29 28 29 30 29 28 26 26 25 24 24 24 25 26 25 26 28 29 29
29 30 31 31 32 27 22 29 28 30 31 30 34 33 31 32 29 28 31 33 34 33 32 32 30 27 26 28 28 28 27 25 23 20 19 21 23 23 25 25 25 26 27 28
28 26 30 31 31 27 26 27 28 28 30 31 32 30 30 30 26 28 31 32 32 31 30 29 29 28 27 27 26 26 24 21 16 18 20 21 21 23 23 24 24 25 25 26
28 27 32 30 24 26 27 28 28 28 29 28 27 28 29 28 28 29 30 30 30 29 28 29 28 27 26 25 24 22 19 16 17 17 18 20 21 21 20 21 22 22 23 25
24 26 27 28 27 26 26 28 30 29 27 28 25 25 27 28 27 28 29 29 28 27 26 25 24 23 21 19 18 17 12 11 10 14 16 17 15 17 17 18 18 21 22 24

GFSCGP_sfc_dewp_096.txt.gz
Dewpoint
28 23 20 19 18 17 18 16 14 18 21 21 20 19 17 20 19 18 19 19 22 23 24 24 25 26 29 33 53 56 59 61 62 62 63 63 63 64 64 64 64 63 63 63
27 21 22 21 18 17 16 16 15 22 22 23 19 18 17 17 18 20 19 19 20 21 25 30 29 29 29 30 33 46 56 59 61 62 63 63 63 64 64 64 64 63 63 63
22 21 22 19 17 15 15 14 15 18 23 22 17 16 20 19 19 20 23 21 23 25 27 32 35 38 39 35 35 35 44 55 59 62 63 63 62 62 63 63 63 63 63 63
23 23 21 21 16 15 13 16 20 23 17 10 16 1 15 16 17 22 24 23 24 30 32 35 37 39 43 45 42 36 36 45 54 62 61 61 60 60 61 62 63 62 62 62
22 21 21 21 18 19 19 21 21 23 19 16 13 8 7 15 16 22 27 29 32 32 35 36 38 41 44 46 48 36 38 45 50 53 60 61 59 59 59 60 60 61 62 62
24 25 23 21 23 20 23 21 20 18 15 11 9 5 8 11 13 22 29 31 34 34 35 36 39 41 43 44 48 51 45 46 49 53 55 56 55 56 57 57 58 59 58 59
23 22 26 24 22 23 20 16 15 12 14 13 16 12 9 14 19 26 29 32 33 34 35 36 38 40 41 41 42 45 51 53 53 53 53 54 55 54 56 55 55 55 54 53
16 18 23 22 20 20 21 13 20 12 17 13 18 12 12 20 21 28 30 32 33 35 37 37 38 39 40 41 41 41 42 43 44 45 47 48 48 46 45 45 45 44 44 44
14 20 26 24 25 21 20 15 19 17 18 21 15 14 23 25 24 29 31 32 34 36 37 38 38 38 38 39 39 39 39 40 40 40 40 40 40 40 40 39 40 40 39 38
16 21 27 26 26 25 20 16 14 17 11 12 14 14 10 23 24 29 30 32 34 36 37 37 37 37 37 37 37 37 37 38 38 38 37 37 37 37 37 37 37 37 37 37
18 25 26 25 23 19 17 16 15 12 21 19 16 11 13 21 23 28 30 31 35 36 36 36 36 36 36 36 36 36 37 37 37 37 36 36 36 35 35 35 35 35 36 36
25 28 25 22 26 26 23 16 15 15 15 16 23 16 23 22 23 28 29 31 35 37 36 35 35 36 36 35 34 34 34 35 35 35 35 34 34 33 33 33 33 34 34 35
25 28 24 22 22 26 22 20 17 15 25 21 17 11 24 21 24 28 29 32 35 36 35 35 35 35 34 33 32 32 32 33 33 33 32 32 32 32 32 32 33 33 33 33
32 31 23 14 15 21 21 21 20 17 22 19 18 10 22 21 25 28 30 33 36 35 34 34 35 34 33 32 30 30 31 32 32 32 32 32 32 32 32 33 33 32 33 32
28 28 26 20 14 19 21 21 21 18 16 13 10 14 15 23 25 27 30 33 35 34 34 34 34 34 32 30 29 29 29 30 30 31 31 32 32 32 32 31 31 30 30 31
30 28 25 24 22 25 22 23 21 20 17 16 13 12 13 25 27 28 30 33 35 34 34 34 34 33 31 29 28 29 30 31 32 30 30 31 30 30 30 29 29 29 29 29
30 30 28 22 29 26 22 25 24 21 20 17 13 14 21 24 27 28 31 32 34 34 34 34 33 32 31 30 28 29 30 32 31 30 29 29 29 29 28 28 28 28 28 28
33 30 31 26 27 18 22 20 22 23 23 22 19 19 21 25 27 29 32 32 34 34 34 34 32 32 32 31 30 30 31 31 30 29 29 28 28 27 27 27 27 27 27 27
34 32 29 25 20 23 23 23 22 20 19 22 23 22 22 25 29 29 31 33 35 35 35 34 33 32 31 29 30 30 30 30 29 28 27 27 27 25 26 23 25 26 25 25
36 34 29 30 25 22 23 24 28 26 20 24 24 23 25 30 26 26 33 35 36 37 35 34 33 32 30 30 30 30 29 29 27 27 26 26 26 23 22 24 23 24 23 28
32 32 30 30 28 26 26 26 29 21 23 27 31 27 29 27 26 30 36 36 36 35 34 33 31 30 30 29 29 28 28 27 26 26 25 24 24 20 21 21 23 20 21 24
30 30 30 31 28 24 23 25 25 27 23 25 32 34 31 32 35 36 35 35 35 34 33 31 30 28 28 29 28 28 27 26 24 22 22 19 16 19 21 13 14 15 16 17
28 30 31 31 28 26 24 26 27 28 25 25 30 31 32 32 32 33 33 34 33 32 31 30 28 27 27 28 28 26 25 23 19 16 11 11 13 15 15 12 12 15 14 15
29 27 32 29 28 26 23 25 25 27 27 28 30 30 32 29 31 32 32 32 31 30 29 28 27 26 26 26 25 23 21 18 11 8 10 12 11 11 12 17 18 11 11 16
28 27 26 26 26 26 27 26 26 27 27 27 29 30 29 28 30 32 31 30 30 29 29 29 28 27 25 23 20 17 16 12 12 9 12 11 13 9 11 14 13 16 15 16
25 27 26 26 27 26 25 27 28 26 25 26 25 27 28 28 29 30 30 29 28 27 27 26 25 23 20 17 15 10 8 8 4 8 11 10 9 9 12 12 14 17 20 21

GFSCGP_sfc_dewp_099.txt.gz
Dewpoint
28 24 22 20 19 18 17 15 16 19 21 20 18 16 17 17 18 18 16 18 19 20 24 25 26 27 30 41 55 58 61 62 62 61 63 63 63 63 64 64 63 63 63 63
25 22 23 23 20 18 16 16 16 22 23 18 19 18 19 19 18 18 19 19 22 22 26 28 28 28 28 29 31 42 60 62 62 61 62 63 63 63 64 64 64 63 63 63
23 23 25 22 19 16 13 13 15 15 22 21 16 12 19 20 18 20 20 20 22 23 28 32 34 39 39 35 37 35 41 60 62 61 62 63 63 62 63 63 63 63 63 63
22 22 22 19 15 15 13 15 20 22 13 5 10 -0 10 17 18 20 21 20 23 30 31 35 38 42 43 45 44 38 35 43 60 62 62 62 61 60 61 62 62 62 62 62
23 21 21 19 16 16 15 23 22 22 17 13 13 3 4 16 16 18 22 24 24 31 35 37 39 42 44 47 46 34 40 48 58 60 61 60 59 59 59 60 60 60 61 61
22 24 22 20 22 18 21 20 19 18 15 9 9 4 3 12 14 18 25 28 33 34 36 38 41 43 43 46 48 43 47 50 53 56 60 58 57 57 57 57 58 58 58 52
21 22 24 23 20 22 19 13 13 9 13 10 16 11 6 13 14 19 26 32 34 35 36 38 40 41 41 42 46 50 51 51 52 53 54 54 54 54 54 53 51 48 46 45
18 15 21 21 20 19 18 14 15 9 14 10 15 10 8 18 23 27 30 33 34 34 36 38 39 40 40 41 42 43 44 44 45 45 45 45 45 44 43 43 42 41 41 41
16 20 25 24 25 19 18 15 18 17 14 17 12 11 15 23 26 29 31 33 34 36 37 38 39 39 39 39 39 40 40 40 39 39 40 39 39 39 38 38 38 38 38 37
16 20 27 25 24 23 19 15 14 17 12 9 11 11 6 21 19 29 31 32 35 36 37 38 37 37 37 37 37 38 38 37 37 37 37 36 36 36 36 36 36 36 36 36
21 25 25 24 21 19 16 14 14 17 18 12 10 9 15 16 20 29 31 33 35 36 37 36 36 36 36 36 36 37 37 36 36 36 36 35 34 34 34 34 34 34 35 34
25 27 24 21 25 26 22 15 15 14 11 18 19 11 20 20 22 29 31 32 36 37 36 36 36 36 35 35 35 35 35 35 35 34 34 33 33 33 32 32 33 33 33 33
27 26 22 22 21 25 21 20 15 18 22 18 13 8 21 22 23 29 30 33 36 36 36 35 35 35 34 33 33 33 34 33 33 32 31 31 31 31 32 32 32 32 32 32
32 29 22 15 17 23 21 21 20 16 21 18 17 7 15 20 25 29 30 34 36 35 35 35 35 34 33 32 31 31 32 32 32 32 31 31 32 31 31 31 31 31 31 31
28 24 24 21 18 21 21 20 21 17 14 13 9 12 11 18 24 28 30 34 36 35 34 34 34 34 32 30 30 30 30 31 31 31 31 31 31 31 30 29 29 29 29 29
29 25 25 24 20 19 20 21 21 19 16 17 15 13 14 19 25 29 30 34 35 34 34 34 34 33 31 29 29 29 29 31 30 30 30 30 30 29 29 29 29 29 28 28
28 29 26 23 26 25 23 24 21 20 18 15 13 15 18 20 25 28 30 34 34 35 34 34 34 33 30 29 28 29 30 31 29 29 29 29 28 28 28 28 27 27 27 27
27 27 26 24 24 18 22 21 22 21 20 20 17 18 20 22 27 29 31 33 34 35 34 34 34 32 30 29 29 30 31 30 29 29 28 28 28 27 27 27 26 26 27 26
31 27 25 23 14 20 20 24 21 22 19 24 22 21 21 22 27 28 31 32 34 36 35 35 34 32 30 29 29 30 30 29 28 28 28 28 27 26 26 23 24 25 24 24
33 29 25 15 12 13 18 24 24 22 18 20 25 24 25 27 21 20 29 33 33 36 36 36 33 31 30 29 30 29 29 28 27 27 27 27 26 24 22 24 23 23 21 25
31 30 25 23 20 23 27 26 26 21 21 24 26 25 25 25 23 26 31 34 36 36 35 33 32 30 29 29 29 28 28 27 27 26 26 25 25 22 22 21 22 19 16 19
29 29 29 29 26 23 25 26 23 25 21 23 29 33 28 31 33 34 35 36 35 34 33 32 31 29 29 29 28 28 27 27 26 25 24 22 19 20 21 12 12 11 9 11
30 31 31 31 29 26 24 27 25 27 24 22 27 31 32 33 32 33 34 34 34 33 32 31 29 28 28 28 29 28 26 25 23 22 19 15 15 16 14 9 9 11 9 9
32 32 31 29 28 27 24 25 24 25 25 27 29 30 32 31 33 32 32 32 31 30 29 28 28 27 27 27 28 27 25 23 21 17 18 17 13 9 9 15 15 7 6 7
31 33 31 30 28 26 27 27 26 26 26 27 28 29 31 31 31 31 31 30 30 29 28 28 27 27 26 25 24 23 21 20 18 17 15 12 10 6 8 11 9 12 12 12
26 27 27 26 28 29 25 27 28 26 25 26 27 28 28 29 31 30 29 29 29 28 27 27 26 25 24 22 19 18 17 17 15 13 12 9 7 7 9 8 7 14 17 19

GFSCGP_sfc_dewp_105.txt.gz
Dewpoint
29 26 29 35 34 23 20 19 18 18 20 18 19 19 18 18 17 19 24 25 31 41 48 46 49 52 53 58 61 61 62 61 62 60 60 62 61 63 63 63 63 63 63 62
27 23 26 27 24 22 19 18 18 21 22 19 18 17 18 17 17 18 17 17 19 25 28 33 37 48 52 55 60 61 62 62 61 62 61 60 60 63 63 63 63 63 63 63
25 25 26 25 24 22 18 19 18 19 20 19 17 16 16 18 19 18 19 18 17 22 26 28 29 32 41 49 56 59 61 61 61 61 61 61 62 62 62 62 62 62 62 62
28 27 26 26 25 23 20 18 19 20 16 14 15 13 11 16 17 19 18 18 19 21 25 27 28 33 34 34 37 42 57 60 61 61 61 61 60 59 60 61 62 62 62 61
25 24 28 27 27 24 21 20 19 22 15 12 12 8 9 13 14 17 19 19 20 21 24 28 32 37 41 44 44 40 37 57 61 61 61 61 59 58 59 60 59 55 53 54
23 24 28 29 26 26 22 19 17 18 14 11 12 11 10 9 11 13 16 19 21 24 27 32 38 42 44 45 46 39 35 38 58 61 61 61 59 58 59 58 56 51 49 48
20 20 23 22 20 23 19 17 16 13 14 12 13 9 11 9 11 14 14 18 21 26 33 36 40 42 43 46 46 41 42 44 54 60 60 59 58 58 58 57 51 47 45 43
19 17 21 22 21 20 19 16 17 11 13 10 15 11 11 14 15 14 16 19 25 28 35 38 40 41 42 45 46 46 48 48 53 59 57 55 57 55 53 50 46 43 41 40
18 17 24 22 21 20 18 14 16 17 16 15 11 11 12 15 15 21 25 27 29 32 36 38 40 41 42 44 45 46 46 45 49 49 48 48 47 47 43 40 39 38 37 36
18 16 25 24 22 21 18 17 15 18 12 9 10 10 7 9 12 14 25 28 30 34 37 39 40 40 40 42 42 42 42 42 41 42 43 41 40 39 38 37 36 35 35 34
21 20 23 23 20 18 14 15 16 16 19 13 9 6 14 7 13 10 18 29 33 35 37 38 39 39 39 39 39 39 39 38 38 38 38 37 36 36 35 34 34 33 33 32
24 24 22 19 24 25 21 15 14 14 14 15 16 11 10 15 16 17 25 31 34 35 37 38 37 37 37 37 37 37 36 36 36 36 35 34 33 33 32 32 32 32 31 31
27 24 20 20 19 24 21 19 16 18 22 18 14 9 10 20 20 21 26 32 34 36 37 37 36 36 36 36 36 35 35 34 34 33 33 32 31 31 31 31 31 30 30 30
31 26 20 14 14 21 21 19 18 15 18 15 15 10 9 9 17 23 30 33 35 36 36 36 35 35 35 35 35 34 34 33 32 31 30 30 30 29 30 30 30 30 29 28
25 23 22 18 18 18 19 21 18 15 14 13 11 11 11 9 12 20 29 33 36 36 36 36 35 35 35 34 34 33 33 31 30 30 29 29 29 29 29 29 29 29 28 28
26 21 21 21 21 21 19 20 20 18 17 15 14 12 12 13 20 26 29 33 35 35 36 36 35 35 34 34 33 33 32 31 30 29 29 29 29 28 28 28 28 28 27 27
26 24 20 15 23 22 21 21 20 19 18 16 14 14 15 15 18 21 28 32 33 35 36 36 35 35 34 34 33 32 31 31 29 29 29 28 28 27 28 28 27 27 26 26
29 26 26 20 24 16 19 21 20 19 19 19 17 16 19 18 19 22 29 30 32 33 35 36 36 35 35 34 33 32 31 30 29 29 28 27 27 27 27 27 26 26 26 25
30 27 23 23 16 20 21 24 24 21 19 22 20 21 19 19 21 20 26 30 29 33 35 36 37 36 35 33 33 31 30 29 28 27 27 27 27 26 26 26 25 25 26 25
28 26 24 10 19 16 19 22 24 23 22 26 25 23 22 21 18 19 21 28 30 33 35 37 37 37 35 33 31 30 29 28 27 27 27 27 27 27 26 25 25 25 24 25
25 23 22 10 14 16 22 23 24 21 20 23 26 26 25 22 22 26 28 25 31 33 35 37 37 36 34 32 30 30 29 28 27 27 27 27 26 26 25 25 24 24 24 24
25 24 22 15 11 17 24 23 21 22 20 25 28 30 27 26 27 28 31 31 31 32 35 37 36 34 32 31 31 30 28 28 27 27 26 26 25 25 24 23 23 23 23 22
25 26 25 24 23 25 27 25 27 25 20 23 24 26 29 29 29 31 32 32 33 33 33 33 34 32 30 31 31 30 29 27 27 26 25 24 24 24 23 22 21 20 21 21
29 31 28 27 26 27 25 25 26 26 22 25 27 26 28 28 30 31 31 31 31 28 28 27 28 28 28 30 30 31 28 28 27 26 24 22 22 22 22 22 21 21 19 19
30 33 30 28 28 27 26 25 25 23 26 26 25 28 28 29 29 31 30 28 27 26 25 26 28 28 28 29 28 28 28 28 27 25 22 22 22 21 20 20 20 19 19 19
32 33 31 27 31 31 30 28 28 27 27 27 24 24 27 28 29 29 28 27 26 24 24 25 25 26 26 26 26 26 27 27 24 22 21 20 20 19 17 17 16 19 20 22

GFSCGP_sfc_dewp_108.txt.gz
Dewpoint
33 31 37 37 34 29 32 32 31 20 20 20 20 20 20 19 21 33 43 46 47 50 52 54 55 55 56 59 61 61 61 61 61 59 59 59 61 62 62 63 62 62 61 61
30 28 31 35 34 32 25 22 25 21 21 19 19 18 20 17 19 22 30 35 39 41 38 43 47 50 53 56 59 61 61 61 61 61 61 60 61 62 63 63 63 63 63 62
30 27 29 29 28 29 28 25 20 21 21 20 17 17 17 18 18 18 19 22 25 31 32 35 37 41 50 53 56 59 61 61 62 62 61 59 61 62 61 62 62 62 62 62
28 27 26 27 25 25 25 25 20 22 25 23 17 15 16 16 17 18 18 18 19 18 20 26 32 33 38 49 53 57 60 61 61 61 61 61 60 59 60 60 61 61 61 61
29 28 27 26 26 27 25 22 21 22 19 15 14 12 14 11 14 17 18 19 18 19 20 24 28 32 35 37 41 47 55 58 60 61 61 61 60 60 59 60 57 55 55 57
27 25 27 27 29 29 27 31 21 20 18 16 17 14 13 11 12 13 17 18 19 19 21 24 29 35 39 44 44 41 38 51 59 60 61 61 60 59 59 58 55 53 51 50
22 20 23 29 27 30 30 31 23 15 16 15 13 11 12 14 11 13 13 16 18 20 22 25 32 37 41 44 46 44 38 36 50 60 60 60 60 59 58 57 54 49 47 45
23 20 21 23 27 26 27 29 22 16 15 13 15 11 12 15 15 12 14 15 17 21 24 27 31 38 41 43 46 44 42 40 43 57 60 61 57 58 58 55 51 48 44 41
21 20 23 22 21 24 20 26 23 17 17 16 13 12 13 15 12 13 17 21 20 22 25 30 37 40 41 42 44 45 44 45 47 51 57 58 57 55 52 48 44 42 39 37
20 18 23 23 20 20 19 20 16 18 14 11 10 9 10 7 11 11 11 20 21 26 30 36 38 40 40 42 44 44 44 44 47 49 51 51 51 50 46 43 40 38 35 34
19 20 22 22 19 17 15 16 16 16 19 16 11 8 12 10 9 10 11 22 27 31 34 37 38 39 39 40 41 41 41 41 43 44 43 43 42 42 41 39 37 35 33 32
22 23 21 19 25 25 17 16 15 15 15 15 18 11 10 14 15 16 16 21 30 33 35 37 38 38 38 39 39 39 38 38 40 40 40 39 38 37 36 34 33 32 31 31
25 22 16 19 20 25 19 18 16 17 22 18 16 12 10 14 18 19 21 23 31 35 35 36 37 37 38 37 37 37 37 38 37 37 37 36 35 34 33 31 30 30 30 30
29 25 20 14 14 21 20 18 16 16 18 16 16 13 12 8 10 14 22 29 33 35 36 36 36 36 37 37 37 37 36 36 35 35 35 34 32 31 30 30 29 29 29 29
25 24 23 19 15 19 20 20 18 15 14 15 14 14 13 13 11 12 19 31 34 35 36 36 36 36 36 36 36 36 35 34 33 33 32 31 31 30 30 29 29 29 28 28
25 21 22 20 19 19 18 21 20 17 17 15 15 14 13 13 12 20 23 30 33 34 35 36 36 36 36 36 35 35 34 32 31 31 31 30 29 29 29 29 29 28 28 28
26 24 20 15 23 21 19 21 20 18 18 17 15 16 15 14 14 16 18 28 30 32 34 36 36 36 36 36 36 35 33 32 31 30 29 29 29 28 28 28 27 27 26 26
29 27 27 22 24 15 20 21 20 19 19 19 17 17 20 18 18 19 22 25 28 30 34 35 36 36 36 36 36 35 33 31 30 29 29 28 28 27 27 27 26 26 26 25
30 30 25 24 22 21 19 21 19 18 17 20 20 21 20 19 20 19 21 25 26 27 32 35 37 37 36 36 35 33 31 31 29 28 28 27 27 27 26 26 26 25 25 25
27 27 25 16 20 17 19 22 26 25 20 21 23 23 22 21 18 20 22 25 26 29 33 35 37 37 36 35 34 32 31 30 29 28 28 27 27 27 27 26 26 25 26 26
23 22 23 16 20 18 21 23 27 21 19 24 26 27 25 22 23 26 29 27 28 29 31 35 37 36 36 34 33 32 31 30 30 29 27 27 27 27 27 26 25 25 25 25
24 24 21 13 10 17 23 24 23 23 21 26 29 29 25 26 28 30 31 31 32 32 32 34 35 34 34 33 33 32 31 31 29 28 27 27 27 27 26 25 24 24 23 22
24 25 24 23 22 24 25 26 25 24 21 24 26 27 28 29 28 28 31 31 32 32 31 32 32 31 31 31 32 32 31 29 28 28 28 27 26 26 25 24 23 22 22 21
28 31 27 25 25 25 25 25 25 22 22 24 26 26 27 26 28 29 30 30 30 28 28 26 26 25 25 26 28 29 29 28 28 28 26 25 24 23 24 23 22 22 21 21
28 30 28 27 28 27 26 26 24 24 24 24 25 27 27 27 27 29 28 27 27 26 24 23 24 24 24 25 25 26 28 28 28 26 24 25 24 23 22 22 22 21 22 22
32 32 29 25 30 30 29 27 28 27 26 24 24 23 26 27 27 27 26 26 25 24 23 23 23 23 23 22 22 24 28 28 27 25 24 24 22 22 21 20 19 22 22 24

GFSCGP_sfc_dewp_111.txt.gz
Dewpoint
35 36 40 40 40 37 38 39 37 25 36 25 22 21 22 21 27 35 45 49 50 52 54 55 55 57 59 60 61 61 61 61 60 60 60 60 60 61 62 62 62 62 62 61
31 30 39 39 37 31 32 32 32 34 22 21 21 20 21 20 20 23 32 44 48 49 48 52 54 55 56 58 60 61 61 61 61 60 61 61 61 62 62 63 63 62 62 62
32 32 32 36 35 35 31 25 23 22 22 21 19 21 19 20 20 20 22 31 40 46 47 46 47 52 54 55 58 60 61 61 61 61 61 60 61 62 62 63 63 63 63 63
32 31 29 31 34 36 33 29 29 24 25 23 21 19 20 19 19 19 20 20 22 31 36 42 42 43 48 53 56 58 60 61 62 62 61 61 60 60 61 61 62 62 62 62
34 31 28 28 30 29 26 25 21 23 22 20 17 17 17 15 16 18 19 22 20 22 23 27 32 39 41 47 53 56 58 60 61 62 62 61 61 61 61 60 60 58 59 60
31 29 28 27 28 28 32 33 34 24 19 18 20 18 17 17 13 15 19 20 21 21 22 22 24 29 33 40 44 50 56 58 61 61 62 61 61 61 60 58 57 56 55 53
26 24 27 29 28 31 33 32 28 25 22 20 14 16 20 18 14 15 17 19 20 21 21 21 23 28 32 39 42 43 46 55 59 60 61 61 61 61 60 58 56 53 51 51
26 25 24 28 28 30 30 31 24 17 17 16 15 13 14 17 19 15 14 15 17 18 22 23 23 27 33 40 44 44 41 41 49 59 60 61 61 61 59 58 55 54 51 47
24 22 23 26 26 30 28 30 24 17 15 16 14 14 15 18 14 14 15 17 18 18 19 23 27 31 37 41 44 45 43 42 40 45 58 59 60 60 58 55 53 48 44 41
23 19 23 23 23 25 28 28 26 22 11 10 11 10 13 11 13 14 13 15 18 23 26 27 32 36 39 41 43 45 45 44 44 46 49 56 58 57 54 50 46 44 40 37
21 22 22 22 20 20 19 25 20 23 20 15 12 11 13 13 13 13 15 14 18 24 27 30 36 38 40 41 43 44 45 45 45 48 49 51 52 51 49 47 44 41 37 34
21 23 21 20 22 21 20 21 21 18 15 15 18 16 13 14 14 15 15 18 20 28 31 34 37 39 39 40 42 43 43 43 43 45 45 45 45 44 45 42 39 37 34 33
23 23 19 20 19 23 18 17 22 18 21 18 16 14 13 13 16 18 19 21 25 32 34 36 37 38 39 39 40 40 40 41 41 42 42 40 40 41 40 37 35 33 32 31
28 24 20 15 16 21 20 18 17 18 18 16 17 14 15 13 9 12 16 24 29 33 34 36 37 37 38 38 39 39 39 39 38 39 39 39 37 38 36 34 32 31 30 29
24 20 20 17 17 20 20 20 17 15 16 15 15 15 15 15 15 14 13 26 30 31 34 35 36 37 37 37 37 38 39 37 37 37 37 36 35 34 32 31 31 30 30 29
25 20 21 20 17 19 18 21 19 17 17 16 15 15 16 17 15 13 17 23 26 28 32 35 36 37 37 37 37 37 37 36 36 35 36 33 32 32 31 30 30 29 29 28
24 23 19 18 22 20 17 20 20 18 18 17 15 17 17 16 14 16 16 18 22 27 29 34 35 36 37 37 37 37 37 35 34 35 33 32 31 30 30 29 28 27 27 28
25 24 20 12 16 16 19 22 20 20 19 19 18 18 21 19 19 19 19 18 19 24 29 33 34 36 37 37 37 37 35 34 33 32 32 30 30 30 28 28 27 27 27 26
28 25 17 18 11 20 21 22 19 19 18 20 20 21 19 19 20 19 20 21 21 23 27 32 35 37 37 37 37 35 33 33 32 31 31 30 29 29 28 27 26 26 26 26
27 27 24 13 19 17 19 21 22 21 17 19 21 22 22 21 18 18 25 25 25 28 30 32 35 37 37 37 36 34 33 32 32 31 30 29 29 29 28 27 27 27 27 27
18 21 23 19 24 20 24 23 24 18 18 23 24 23 24 22 22 26 28 28 31 32 32 34 35 36 36 34 34 33 33 32 32 31 29 28 28 29 28 27 27 27 27 27
20 19 18 12 22 19 22 25 21 22 23 26 28 25 27 25 26 30 30 31 31 32 32 32 33 33 33 33 33 32 32 32 31 30 29 28 28 28 28 27 27 27 27 26
22 24 22 23 22 23 24 26 26 24 24 26 28 30 28 28 29 29 29 30 30 31 31 30 29 30 32 30 32 31 30 30 29 29 29 28 28 28 28 27 26 25 25 24
28 29 25 23 24 25 24 24 23 22 23 24 24 25 26 26 27 28 29 30 30 27 27 25 26 26 26 25 28 28 29 29 29 29 28 27 27 26 27 26 25 25 23 22
28 30 25 24 27 26 26 25 24 25 25 24 26 26 26 26 27 28 28 27 26 26 25 24 25 25 25 24 24 23 26 28 28 28 26 26 26 26 25 25 24 23 24 23
32 30 28 24 29 29 28 27 27 26 24 24 24 24 26 26 27 27 26 25 24 25 22 23 22 21 23 20 20 20 23 27 27 25 25 26 25 25 24 22 23 24 24 26

GFSCGP_sfc_dewp_114.txt.gz
Dewpoint
41 44 43 43 43 41 40 40 38 35 38 34 32 33 34 34 24 30 34 41 46 49 51 56 59 60 60 60 60 57 55 56 57 58 59 60 59 60 60 61 62 62 62 61
37 39 43 44 41 41 42 40 39 39 26 26 31 32 33 31 25 24 26 33 41 46 50 53 56 58 60 60 61 60 59 58 58 58 60 60 60 60 60 62 63 62 62 62
36 35 41 40 33 35 36 39 35 32 24 24 26 33 30 26 28 24 23 26 33 44 46 49 53 55 57 59 60 61 61 60 60 60 60 61 62 62 62 63 63 63 63 63
33 31 37 40 34 32 29 28 27 26 24 28 30 30 32 30 29 22 23 24 25 35 45 46 50 53 55 56 58 60 61 61 61 61 61 61 60 60 60 62 63 63 63 62
33 30 34 36 37 37 32 34 33 28 24 23 21 23 27 23 25 28 23 25 24 26 33 40 47 50 52 56 57 58 59 60 61 62 62 61 61 61 61 61 62 63 63 63
33 32 32 34 34 30 31 33 33 24 22 25 26 23 26 26 23 24 24 23 25 25 26 28 37 44 47 51 55 57 57 59 60 61 62 62 61 61 62 62 62 60 60 61
30 29 28 30 31 32 33 32 29 27 24 25 16 21 25 26 23 23 23 22 24 25 25 25 26 30 36 44 48 53 56 56 59 60 61 61 61 61 61 62 61 59 57 56
30 27 28 29 30 32 32 33 28 24 24 24 16 19 21 22 25 22 18 20 22 23 26 27 27 30 31 34 39 44 50 53 57 59 60 61 61 61 61 61 60 59 57 57
30 24 26 28 32 31 31 31 25 21 21 18 17 17 19 25 17 18 19 18 19 20 22 24 27 27 28 33 38 40 41 47 51 56 58 59 59 60 60 61 61 58 57 52
27 21 24 25 31 31 32 32 28 28 23 18 15 14 15 18 15 16 16 17 19 21 23 25 25 26 29 32 35 41 43 44 45 48 57 58 59 60 60 60 58 55 51 48
23 23 22 24 26 26 29 30 27 28 23 22 18 16 14 15 17 16 17 16 18 21 23 26 29 32 34 37 38 41 44 45 45 44 45 53 58 59 58 55 51 49 46 44
25 24 21 23 23 24 27 27 27 26 24 20 18 19 18 16 16 14 15 18 20 24 26 30 32 36 38 39 40 42 45 46 46 46 47 48 50 55 54 54 50 46 43 42
25 25 25 20 20 24 24 24 29 24 23 28 25 22 19 14 14 16 19 21 22 28 30 33 35 36 38 39 41 43 45 45 46 46 48 49 50 51 51 49 46 44 39 38
30 26 22 19 17 20 21 24 27 28 24 22 20 21 18 15 15 15 18 20 23 28 31 33 35 37 38 39 40 41 43 45 44 45 46 47 48 48 47 44 41 40 36 34
27 28 23 17 19 20 20 21 22 24 23 20 19 18 17 17 17 17 18 17 22 24 29 31 34 37 37 39 39 40 41 43 43 43 44 45 43 43 40 38 37 34 34 32
25 31 23 25 19 21 21 22 21 21 21 19 18 17 18 18 18 18 18 18 19 22 24 28 34 36 37 38 38 39 40 41 41 41 42 40 38 36 36 34 33 32 31 31
27 30 29 24 24 24 26 23 21 20 19 19 17 19 20 18 18 20 21 19 18 21 24 26 31 35 37 38 38 38 39 40 40 40 38 36 36 35 34 32 31 30 30 30
28 28 34 25 26 19 23 19 21 20 20 20 19 20 23 22 22 24 23 23 22 22 23 27 30 32 38 39 39 39 40 39 39 39 36 35 35 34 32 31 31 30 29 28
28 28 29 26 25 22 21 21 19 19 17 21 21 21 21 21 21 21 22 23 23 24 27 30 33 34 36 38 39 39 39 38 38 37 36 34 34 34 32 31 30 28 28 28
28 27 28 25 22 19 17 22 22 20 20 20 22 23 23 23 19 20 26 28 28 31 33 33 35 36 38 39 39 38 37 36 36 37 36 34 34 35 33 32 30 30 30 29
29 30 26 26 26 32 29 26 24 24 26 31 27 24 25 23 23 28 30 32 33 34 34 35 35 36 37 39 38 37 36 35 36 36 35 34 33 34 33 32 30 30 30 30
26 27 27 29 26 23 26 25 23 27 30 30 28 27 28 26 29 31 31 32 32 33 33 35 35 36 36 37 37 36 35 36 36 34 33 33 33 33 33 32 31 30 30 30
26 26 29 28 28 27 26 30 27 26 30 30 31 30 28 28 29 29 30 31 32 32 32 32 32 33 33 33 36 36 36 35 33 33 32 32 32 33 32 32 30 30 30 29
28 30 29 30 28 26 27 25 25 24 25 26 28 28 28 28 29 30 31 31 31 31 31 30 32 32 32 32 31 34 34 33 32 33 32 32 31 32 32 31 30 30 29 28
30 31 30 30 28 27 26 26 26 27 28 28 28 28 27 29 29 30 30 31 30 30 29 29 30 30 30 30 31 31 32 32 33 33 31 32 32 31 31 30 30 29 30 29
32 30 26 26 29 29 27 27 29 28 26 27 27 27 28 30 29 30 29 28 28 28 28 29 29 28 29 28 28 28 28 31 32 31 30 30 30 29 29 29 28 28 29 28

GFSCGP_sfc_dewp_117.txt.gz
Dewpoint
46 45 43 45 44 42 41 40 39 39 35 36 36 36 36 36 28 29 27 29 37 41 46 52 55 58 58 57 53 51 53 55 57 58 58 58 58 59 59 59 60 62 61 61
42 41 45 46 45 42 41 40 40 39 31 36 39 38 38 38 37 33 29 27 29 37 41 48 53 57 58 58 58 55 52 54 55 56 57 57 57 59 59 60 61 62 63 62
42 42 46 45 43 41 41 40 40 40 37 32 34 35 35 37 37 36 33 30 26 29 38 44 51 55 58 59 59 59 57 55 54 55 56 57 59 60 60 61 63 63 63 63
40 39 43 41 40 41 37 33 38 28 30 33 33 32 35 36 37 36 36 35 31 27 33 40 47 52 56 59 60 60 60 59 58 58 59 59 60 59 60 61 63 63 63 63
34 38 43 40 37 40 33 31 30 29 27 26 27 27 29 30 31 33 36 35 34 29 29 35 43 49 53 57 59 61 60 60 61 61 61 61 61 61 60 61 63 64 64 63
33 38 42 40 37 34 33 31 29 27 25 27 30 27 28 30 28 29 31 33 34 29 28 30 38 48 51 55 58 59 59 60 61 61 62 61 61 61 61 61 62 63 63 63
32 31 31 38 33 33 33 34 31 30 28 28 20 30 28 31 30 28 28 30 33 32 28 28 31 41 48 52 56 58 58 57 59 61 61 62 62 62 61 62 62 62 61 61
30 28 29 36 35 32 33 35 29 27 26 25 19 24 25 25 21 25 26 22 25 29 29 31 31 33 40 47 51 54 56 56 57 59 61 61 62 61 61 61 61 61 61 59
30 28 30 31 33 34 33 33 32 22 25 21 22 22 24 26 22 19 24 22 21 22 23 27 30 30 33 36 41 48 50 54 55 57 59 60 61 61 61 61 62 61 61 59
32 24 30 29 33 33 33 33 28 29 29 23 22 20 18 23 19 18 19 23 22 23 23 25 25 28 30 33 35 39 40 44 49 54 57 58 60 61 60 60 60 60 60 56
32 26 26 29 30 32 31 31 29 29 28 26 23 20 17 13 16 17 18 19 18 20 22 23 26 29 31 33 34 37 40 41 43 47 53 57 58 59 59 59 60 59 56 52
27 25 25 28 24 28 31 31 30 27 27 26 24 22 17 17 17 15 16 18 20 24 27 27 30 32 35 36 37 37 40 43 45 46 47 52 57 58 59 59 57 53 51 49
25 26 28 26 26 24 27 28 31 28 28 32 27 23 19 17 17 16 17 21 21 27 26 31 33 34 35 37 38 39 41 43 46 46 47 46 47 52 56 56 53 50 48 46
31 26 25 22 21 23 23 27 27 28 27 25 26 23 22 18 16 16 16 19 19 21 25 30 33 36 37 38 38 39 42 45 46 46 47 48 48 49 51 53 50 47 45 42
25 30 24 19 18 21 22 25 27 28 27 23 22 23 23 21 21 20 19 19 19 19 22 25 30 35 36 38 38 39 41 43 45 45 46 47 48 49 48 44 43 41 42 39
25 31 24 29 21 21 22 23 26 26 27 26 23 20 20 19 18 18 19 19 21 21 22 26 30 33 36 37 38 39 40 43 44 44 45 46 45 43 41 39 38 36 35 35
28 34 34 31 26 25 28 25 23 25 25 25 23 23 22 18 19 20 21 21 21 22 22 25 27 29 36 38 39 39 39 41 43 43 42 40 39 38 38 36 35 34 34 33
32 34 34 28 31 19 24 19 21 21 23 23 22 22 23 22 22 25 25 25 25 24 24 26 29 28 36 39 40 39 41 41 42 41 40 38 37 37 36 34 34 33 32 32
28 30 32 28 25 25 21 19 18 19 19 21 21 22 22 23 25 23 24 25 25 27 29 30 33 33 34 36 39 40 41 41 40 40 39 37 37 35 34 34 33 32 32 31
30 29 31 31 25 21 16 19 21 21 21 21 22 23 23 23 21 20 23 30 30 32 35 35 36 37 38 39 41 40 39 39 39 39 39 37 36 35 34 34 34 33 33 31
30 34 28 30 29 33 29 27 23 23 24 28 24 22 23 24 23 29 31 33 34 35 35 35 36 36 37 39 38 38 38 37 38 37 37 35 35 35 35 35 33 33 31 30
26 28 29 31 28 23 28 26 21 25 32 31 28 28 29 30 31 32 31 32 33 34 34 35 36 36 36 37 37 37 37 37 36 35 34 34 34 34 34 34 33 32 31 31
25 25 31 28 28 30 28 29 30 32 33 32 33 32 28 29 29 30 31 32 33 32 33 33 33 34 33 33 34 35 36 34 33 33 32 33 33 33 33 33 32 31 31 30
29 27 31 29 30 29 30 28 29 26 31 31 34 32 30 29 30 32 33 33 32 32 31 32 32 32 31 31 32 32 32 33 33 32 32 32 32 32 32 33 32 32 30 29
31 30 34 34 28 28 29 29 29 28 31 30 30 30 29 31 32 32 32 32 31 31 30 30 30 30 29 30 30 31 30 32 32 32 31 32 33 32 32 32 32 31 31 31
31 29 27 26 28 27 29 31 31 29 29 31 29 29 31 32 31 30 29 29 29 29 29 29 29 28 29 29 29 28 29 30 31 32 31 32 32 31 31 31 30 32 32 32

GFSCGP_sfc_dewp_120.txt.gz
Dewpoint
48 45 42 44 44 43 40 40 39 39 35 34 32 32 33 35 26 26 27 29 37 46 48 52 55 58 58 53 50 53 57 58 60 60 59 58 58 59 59 59 59 60 60 60
43 41 45 45 44 45 43 40 39 38 37 38 38 36 36 37 38 34 29 28 28 37 44 49 53 57 58 54 51 51 55 56 57 57 58 57 57 59 59 59 59 61 61 61
42 43 45 46 46 44 45 40 39 38 32 32 33 35 36 38 39 39 38 33 28 29 38 45 51 55 57 57 55 51 52 54 55 57 57 57 57 58 58 59 60 61 62 61
42 46 45 45 45 46 42 40 38 32 34 33 35 33 36 37 37 38 39 36 30 27 31 40 50 53 56 58 58 57 53 52 54 55 56 55 55 56 58 59 60 62 62 62
39 40 45 45 44 46 39 34 30 30 27 31 26 27 30 30 36 37 37 38 35 30 28 34 45 51 54 57 58 59 59 56 54 54 55 56 57 58 59 60 61 62 62 62
35 43 45 42 41 40 32 31 31 29 30 30 32 28 29 31 30 31 36 37 37 36 32 29 38 48 52 55 58 59 59 59 59 56 55 57 58 59 59 59 61 62 62 62
34 41 35 39 37 39 37 35 31 30 29 30 25 30 31 33 33 30 29 30 33 36 34 29 32 43 48 52 56 58 59 59 60 60 59 58 60 60 60 60 60 61 62 62
31 31 35 38 36 34 36 35 30 24 26 26 20 25 27 29 24 21 23 28 23 24 34 30 30 37 47 51 54 56 57 58 59 60 60 60 60 61 61 60 61 61 62 61
30 29 32 39 35 34 33 35 30 23 20 23 23 24 26 29 26 23 20 24 22 22 23 29 31 32 35 45 50 54 56 57 57 58 59 60 61 61 61 61 61 61 61 61
31 28 30 35 36 35 35 34 31 29 21 19 23 23 22 20 21 22 20 24 24 24 24 24 25 29 31 34 37 43 51 53 56 56 57 59 60 61 61 61 61 61 61 60
30 30 29 32 33 32 31 32 31 30 29 25 23 23 18 21 18 18 19 20 19 21 22 24 26 29 31 32 32 36 38 40 45 51 54 56 58 59 60 60 60 58 58 57
30 29 28 30 27 33 32 32 30 28 27 27 26 24 16 17 17 17 18 19 21 24 27 29 30 31 33 35 35 36 37 40 41 43 46 50 54 55 56 56 56 56 54 52
28 28 27 29 30 26 31 32 31 28 28 27 24 24 19 21 20 16 17 21 23 25 28 31 33 34 35 36 38 38 39 40 44 45 45 46 47 52 54 54 53 53 51 50
33 29 26 23 25 25 27 31 32 31 26 27 26 26 22 19 16 17 17 19 19 21 24 28 30 33 35 37 37 39 40 43 45 46 46 46 46 46 49 53 52 50 48 47
28 26 26 24 25 25 27 30 29 30 29 25 25 26 26 21 19 19 18 21 19 19 20 23 26 31 35 37 38 39 40 43 44 44 44 44 45 45 45 45 44 42 43 43
26 25 26 24 24 25 25 28 29 29 30 28 26 24 23 25 22 18 19 20 20 21 21 22 25 28 33 36 38 39 40 42 43 43 43 43 43 41 39 39 38 37 37 37
27 30 27 24 24 23 20 25 27 27 28 29 27 26 25 22 20 20 19 20 21 22 21 22 25 26 32 35 38 38 39 40 41 40 38 38 37 37 36 35 35 35 35 34
31 31 32 24 26 16 22 23 25 26 27 27 27 27 27 26 24 25 24 22 24 25 24 24 28 29 33 37 38 39 39 39 37 36 36 36 36 35 34 33 35 34 34 34
33 32 28 24 21 21 23 20 22 23 22 26 26 26 26 25 24 23 24 26 25 27 30 32 34 35 36 38 38 38 36 35 35 35 35 34 34 32 33 32 34 33 32 32
33 32 30 29 17 15 19 20 21 22 18 21 24 24 25 25 22 21 24 26 31 35 35 35 35 37 37 37 37 34 34 34 34 34 34 34 33 31 31 31 31 30 32 32
28 29 26 21 16 22 24 22 23 18 19 22 24 23 24 24 23 28 32 33 35 35 35 36 37 36 36 34 34 33 33 33 33 33 33 31 31 29 30 29 29 28 29 31
25 25 25 21 15 16 25 23 18 23 27 26 25 25 26 28 31 32 32 33 34 34 33 34 33 31 31 32 33 32 32 32 30 29 29 29 27 29 31 27 28 31 32 31
23 25 26 26 23 27 27 25 27 30 26 28 26 29 28 30 30 31 32 32 32 31 30 30 29 29 29 28 30 30 29 29 28 28 25 29 29 30 31 27 31 31 31 31
26 27 26 22 25 26 26 27 27 26 28 30 31 29 28 28 30 30 31 31 30 28 27 26 25 26 26 26 27 26 27 26 32 32 29 28 27 26 26 29 30 31 31 30
28 28 27 25 26 27 27 28 28 27 28 28 28 28 30 30 30 30 29 28 28 27 26 24 25 25 25 24 24 23 25 25 27 27 27 29 29 26 26 27 28 28 27 30
30 27 25 24 28 26 27 29 30 28 28 28 28 29 29 30 30 29 27 27 26 25 24 24 23 22 21 21 20 21 23 23 23 26 24 25 25 24 25 25 26 32 32 33

GFSCGP_sfc_dewp_123.txt.gz
Dewpoint
47 45 42 44 43 42 39 40 38 35 35 32 29 29 29 30 25 26 29 30 43 51 55 57 57 57 56 53 56 58 59 60 61 60 59 59 59 58 57 57 59 60 59 59
44 41 43 45 44 43 41 40 39 36 34 32 33 31 33 34 31 26 26 27 29 46 49 54 56 57 57 54 52 57 58 60 61 61 60 59 58 59 57 58 58 60 60 60
38 40 44 45 44 43 46 42 40 35 33 35 34 36 35 37 36 38 31 29 28 30 46 50 54 56 58 55 51 53 56 58 60 60 60 58 57 58 58 58 58 59 61 60
40 43 44 44 43 44 42 46 46 34 35 35 37 33 34 37 37 38 38 37 29 28 36 47 52 55 57 57 53 50 55 57 58 59 58 57 56 56 58 58 59 59 61 61
38 43 42 44 42 45 43 40 38 38 28 31 28 30 30 33 37 38 39 39 37 31 29 39 49 53 56 58 56 52 52 55 56 56 57 57 56 56 57 58 58 59 61 61
38 44 44 43 43 45 37 36 38 35 34 32 30 31 31 30 31 36 38 38 39 35 30 29 45 51 54 57 58 57 54 51 54 55 56 56 56 55 57 58 59 59 60 61
39 42 41 44 39 39 39 39 32 31 31 30 30 29 33 33 33 32 30 31 38 38 36 31 30 47 52 55 58 58 58 56 53 54 54 55 55 55 58 58 59 60 60 61
33 35 41 41 39 36 37 39 33 26 27 27 23 28 29 33 34 32 26 26 27 24 35 35 31 39 49 53 57 58 59 59 59 56 54 54 55 57 57 59 59 60 61 61
32 33 37 41 37 39 36 37 32 23 18 23 24 25 26 30 29 26 21 23 22 21 23 34 31 32 44 50 53 56 58 59 59 59 60 57 56 57 59 59 60 60 61 61
32 31 35 37 38 38 37 35 30 28 18 18 22 23 23 20 23 24 23 22 24 21 23 25 30 31 33 43 50 53 55 56 57 57 59 60 60 60 60 60 60 60 60 60
31 31 30 37 36 35 34 34 32 30 27 22 21 23 25 24 21 20 21 20 25 22 23 25 27 27 29 31 34 40 46 51 52 54 55 56 58 59 59 60 60 60 58 59
30 30 30 34 30 34 33 35 31 29 27 26 25 22 24 21 17 19 19 19 21 23 25 25 27 29 31 31 32 33 35 38 41 44 50 52 53 55 56 58 59 57 58 56
30 29 28 29 29 30 32 33 31 29 30 26 24 23 21 18 16 16 19 21 23 26 28 29 31 32 32 34 36 36 37 37 39 42 43 44 47 51 53 54 55 56 55 53
34 30 27 26 27 31 31 31 32 28 25 26 26 25 18 19 18 16 18 21 22 24 26 27 28 31 33 35 36 37 38 39 41 44 44 44 44 45 49 51 52 52 52 51
30 26 26 26 27 30 31 31 32 30 28 25 25 27 25 19 18 17 16 18 18 19 20 22 25 29 33 35 36 38 39 41 42 43 43 43 43 43 44 45 47 46 46 47
28 26 23 23 27 28 30 31 32 31 30 27 27 26 28 28 21 19 18 19 18 19 20 21 23 26 29 34 36 37 38 40 41 42 41 41 41 40 40 39 39 40 41 41
27 27 24 18 26 27 24 30 31 31 31 29 27 28 27 25 26 21 19 18 19 20 21 22 22 25 27 32 36 37 38 39 40 38 37 37 37 37 36 35 35 36 36 35
30 27 28 23 24 17 24 28 32 31 31 31 31 28 27 26 25 22 21 21 20 22 23 23 25 29 34 36 37 39 38 37 36 35 35 35 35 35 35 34 34 34 34 36
35 31 28 25 16 19 20 23 28 29 28 30 31 31 28 26 25 23 25 24 22 24 26 28 32 34 38 38 38 36 34 34 34 34 34 34 34 31 32 31 32 35 34 33
37 35 30 27 20 17 20 22 27 25 21 24 29 30 29 27 24 25 26 26 31 34 34 35 36 36 36 35 35 33 33 33 33 33 33 33 33 29 29 30 29 29 33 33
31 31 29 28 23 25 24 22 25 18 18 22 25 28 29 27 27 26 33 34 34 34 35 36 35 34 33 32 32 32 32 32 32 32 31 30 30 28 28 28 28 27 31 32
29 28 28 25 21 21 26 23 20 23 26 24 24 25 28 27 29 30 32 33 33 33 33 33 31 30 30 31 32 31 31 30 29 28 28 27 28 30 30 23 25 31 32 32
26 28 27 28 26 25 25 23 25 26 25 26 26 25 27 30 30 31 32 32 31 31 30 30 29 28 28 27 29 29 28 28 26 27 28 30 30 30 31 24 26 31 31 31
27 29 27 25 26 25 25 26 26 27 26 27 28 28 29 29 30 31 30 30 29 28 27 25 25 24 24 23 25 24 24 28 30 26 27 23 23 26 27 25 26 26 29 30
28 27 25 25 27 27 28 26 27 26 29 29 28 28 28 30 30 30 29 28 28 26 25 24 25 24 23 21 21 20 22 21 24 22 23 28 26 21 22 23 24 25 24 26
29 27 25 24 27 27 27 28 28 27 27 28 28 29 29 29 29 29 28 27 27 25 24 23 21 21 18 16 15 14 15 16 19 24 22 21 21 20 21 21 23 29 32 33